<?xml version="1.0" encoding="UTF-8" standalone="no" ?>
<gpx xmlns="http://www.topografix.com/GPX/1/1" xmlns:xsi="http://www.w3.org/2001/XMLSchema-instance" xsi:schemaLocation="http://www.topografix.com/GPX/1/1 http://www.topografix.com/GPX/1/1/gpx.xsd" version="1.1" creator="VisuGPX - https://www.visugpx.com">
  <metadata>
    <name>Plaine d'Ovace depuis Naseo</name>
    <desc><![CDATA[Randonnée depuis Naseo jusqu'à la plaine d'Ovace. Attention, itinéraire compliqué avec des passages délicats dans chaos granitique. Orientation difficile.]]></desc>
  </metadata>
  <trk>
    <name><![CDATA[2016-04-25 16:25:12]]></name>
    <trkseg>
      <trkpt lat="41.56189" lon="9.10008">
        <ele>887.43</ele>
        <time>2016-04-25T07:53:19Z</time>
      </trkpt>
      <trkpt lat="41.56189" lon="9.10008">
        <ele>887.43</ele>
        <time>2016-04-25T07:53:20Z</time>
      </trkpt>
      <trkpt lat="41.5619" lon="9.10007">
        <ele>890.8</ele>
        <time>2016-04-25T07:53:31Z</time>
      </trkpt>
      <trkpt lat="41.5619" lon="9.10008">
        <ele>887.43</ele>
        <time>2016-04-25T07:53:33Z</time>
      </trkpt>
      <trkpt lat="41.5619" lon="9.10008">
        <ele>895.61</ele>
        <time>2016-04-25T07:53:34Z</time>
      </trkpt>
      <trkpt lat="41.5619" lon="9.10008">
        <ele>891.76</ele>
        <time>2016-04-25T07:53:35Z</time>
      </trkpt>
      <trkpt lat="41.56191" lon="9.10009">
        <ele>914.35</ele>
        <time>2016-04-25T07:53:41Z</time>
      </trkpt>
      <trkpt lat="41.56192" lon="9.10009">
        <ele>896.57</ele>
        <time>2016-04-25T07:53:44Z</time>
      </trkpt>
      <trkpt lat="41.56192" lon="9.10009">
        <ele>896.57</ele>
        <time>2016-04-25T07:53:45Z</time>
      </trkpt>
      <trkpt lat="41.56192" lon="9.10009">
        <ele>897.05</ele>
        <time>2016-04-25T07:54:13Z</time>
      </trkpt>
      <trkpt lat="41.56191" lon="9.10008">
        <ele>897.05</ele>
        <time>2016-04-25T07:54:41Z</time>
      </trkpt>
      <trkpt lat="41.5619" lon="9.10004">
        <ele>897.05</ele>
        <time>2016-04-25T07:54:55Z</time>
      </trkpt>
      <trkpt lat="41.56189" lon="9.10003">
        <ele>897.05</ele>
        <time>2016-04-25T07:55:09Z</time>
      </trkpt>
      <trkpt lat="41.56188" lon="9.10004">
        <ele>897.05</ele>
        <time>2016-04-25T07:55:35Z</time>
      </trkpt>
      <trkpt lat="41.56191" lon="9.10003">
        <ele>895.61</ele>
        <time>2016-04-25T07:55:56Z</time>
      </trkpt>
      <trkpt lat="41.56196" lon="9.1">
        <ele>895.61</ele>
        <time>2016-04-25T07:56:06Z</time>
      </trkpt>
      <trkpt lat="41.56199" lon="9.09995">
        <ele>895.61</ele>
        <time>2016-04-25T07:56:10Z</time>
      </trkpt>
      <trkpt lat="41.56205" lon="9.09978">
        <ele>895.61</ele>
        <time>2016-04-25T07:56:23Z</time>
      </trkpt>
      <trkpt lat="41.56211" lon="9.09962">
        <ele>895.61</ele>
        <time>2016-04-25T07:56:37Z</time>
      </trkpt>
      <trkpt lat="41.56212" lon="9.09958">
        <ele>895.61</ele>
        <time>2016-04-25T07:56:41Z</time>
      </trkpt>
      <trkpt lat="41.56222" lon="9.09943">
        <ele>895.61</ele>
        <time>2016-04-25T07:56:55Z</time>
      </trkpt>
      <trkpt lat="41.56231" lon="9.09934">
        <ele>895.61</ele>
        <time>2016-04-25T07:57:08Z</time>
      </trkpt>
      <trkpt lat="41.56253" lon="9.09922">
        <ele>894.16</ele>
        <time>2016-04-25T07:57:26Z</time>
      </trkpt>
      <trkpt lat="41.56256" lon="9.0992">
        <ele>894.16</ele>
        <time>2016-04-25T07:57:28Z</time>
      </trkpt>
      <trkpt lat="41.56274" lon="9.09912">
        <ele>893.2</ele>
        <time>2016-04-25T07:57:41Z</time>
      </trkpt>
      <trkpt lat="41.56287" lon="9.09896">
        <ele>892.24</ele>
        <time>2016-04-25T07:57:52Z</time>
      </trkpt>
      <trkpt lat="41.56291" lon="9.09894">
        <ele>891.76</ele>
        <time>2016-04-25T07:57:55Z</time>
      </trkpt>
      <trkpt lat="41.56304" lon="9.09883">
        <ele>890.8</ele>
        <time>2016-04-25T07:58:09Z</time>
      </trkpt>
      <trkpt lat="41.56311" lon="9.09875">
        <ele>889.84</ele>
        <time>2016-04-25T07:58:22Z</time>
      </trkpt>
      <trkpt lat="41.56318" lon="9.09874">
        <ele>889.36</ele>
        <time>2016-04-25T07:58:39Z</time>
      </trkpt>
      <trkpt lat="41.5633" lon="9.09875">
        <ele>891.28</ele>
        <time>2016-04-25T07:58:55Z</time>
      </trkpt>
      <trkpt lat="41.56344" lon="9.09875">
        <ele>891.76</ele>
        <time>2016-04-25T07:59:10Z</time>
      </trkpt>
      <trkpt lat="41.5636" lon="9.09874">
        <ele>891.76</ele>
        <time>2016-04-25T07:59:26Z</time>
      </trkpt>
      <trkpt lat="41.56374" lon="9.09879">
        <ele>893.2</ele>
        <time>2016-04-25T07:59:42Z</time>
      </trkpt>
      <trkpt lat="41.5639" lon="9.09887">
        <ele>894.16</ele>
        <time>2016-04-25T07:59:58Z</time>
      </trkpt>
      <trkpt lat="41.56407" lon="9.09896">
        <ele>894.16</ele>
        <time>2016-04-25T08:00:16Z</time>
      </trkpt>
      <trkpt lat="41.56423" lon="9.09911">
        <ele>893.2</ele>
        <time>2016-04-25T08:00:32Z</time>
      </trkpt>
      <trkpt lat="41.56434" lon="9.09919">
        <ele>893.2</ele>
        <time>2016-04-25T08:00:46Z</time>
      </trkpt>
      <trkpt lat="41.56441" lon="9.09924">
        <ele>894.64</ele>
        <time>2016-04-25T08:00:54Z</time>
      </trkpt>
      <trkpt lat="41.56453" lon="9.09936">
        <ele>895.12</ele>
        <time>2016-04-25T08:01:08Z</time>
      </trkpt>
      <trkpt lat="41.56466" lon="9.09946">
        <ele>895.12</ele>
        <time>2016-04-25T08:01:23Z</time>
      </trkpt>
      <trkpt lat="41.5648" lon="9.09948">
        <ele>893.68</ele>
        <time>2016-04-25T08:01:39Z</time>
      </trkpt>
      <trkpt lat="41.56494" lon="9.09956">
        <ele>893.2</ele>
        <time>2016-04-25T08:01:56Z</time>
      </trkpt>
      <trkpt lat="41.56506" lon="9.09964">
        <ele>893.2</ele>
        <time>2016-04-25T08:02:08Z</time>
      </trkpt>
      <trkpt lat="41.56525" lon="9.09967">
        <ele>893.2</ele>
        <time>2016-04-25T08:02:21Z</time>
      </trkpt>
      <trkpt lat="41.56528" lon="9.09968">
        <ele>893.2</ele>
        <time>2016-04-25T08:02:23Z</time>
      </trkpt>
      <trkpt lat="41.56542" lon="9.09976">
        <ele>893.2</ele>
        <time>2016-04-25T08:02:40Z</time>
      </trkpt>
      <trkpt lat="41.56554" lon="9.09983">
        <ele>895.12</ele>
        <time>2016-04-25T08:02:57Z</time>
      </trkpt>
      <trkpt lat="41.56571" lon="9.09999">
        <ele>896.09</ele>
        <time>2016-04-25T08:03:15Z</time>
      </trkpt>
      <trkpt lat="41.56585" lon="9.10006">
        <ele>897.05</ele>
        <time>2016-04-25T08:03:30Z</time>
      </trkpt>
      <trkpt lat="41.56597" lon="9.10014">
        <ele>898.49</ele>
        <time>2016-04-25T08:03:44Z</time>
      </trkpt>
      <trkpt lat="41.56607" lon="9.10015">
        <ele>899.45</ele>
        <time>2016-04-25T08:03:57Z</time>
      </trkpt>
      <trkpt lat="41.56623" lon="9.1002">
        <ele>900.89</ele>
        <time>2016-04-25T08:04:13Z</time>
      </trkpt>
      <trkpt lat="41.56639" lon="9.10022">
        <ele>901.85</ele>
        <time>2016-04-25T08:04:28Z</time>
      </trkpt>
      <trkpt lat="41.5665" lon="9.10023">
        <ele>903.3</ele>
        <time>2016-04-25T08:04:41Z</time>
      </trkpt>
      <trkpt lat="41.5666" lon="9.10025">
        <ele>903.78</ele>
        <time>2016-04-25T08:04:53Z</time>
      </trkpt>
      <trkpt lat="41.56667" lon="9.10027">
        <ele>904.26</ele>
        <time>2016-04-25T08:04:59Z</time>
      </trkpt>
      <trkpt lat="41.56681" lon="9.10031">
        <ele>904.74</ele>
        <time>2016-04-25T08:05:12Z</time>
      </trkpt>
      <trkpt lat="41.56693" lon="9.10037">
        <ele>904.74</ele>
        <time>2016-04-25T08:05:26Z</time>
      </trkpt>
      <trkpt lat="41.56707" lon="9.10042">
        <ele>904.74</ele>
        <time>2016-04-25T08:05:40Z</time>
      </trkpt>
      <trkpt lat="41.56723" lon="9.10046">
        <ele>904.74</ele>
        <time>2016-04-25T08:05:55Z</time>
      </trkpt>
      <trkpt lat="41.56737" lon="9.10051">
        <ele>904.74</ele>
        <time>2016-04-25T08:06:06Z</time>
      </trkpt>
      <trkpt lat="41.56739" lon="9.10051">
        <ele>904.74</ele>
        <time>2016-04-25T08:06:08Z</time>
      </trkpt>
      <trkpt lat="41.56751" lon="9.10052">
        <ele>904.74</ele>
        <time>2016-04-25T08:06:21Z</time>
      </trkpt>
      <trkpt lat="41.56763" lon="9.10055">
        <ele>902.82</ele>
        <time>2016-04-25T08:06:34Z</time>
      </trkpt>
      <trkpt lat="41.56774" lon="9.10058">
        <ele>901.85</ele>
        <time>2016-04-25T08:06:47Z</time>
      </trkpt>
      <trkpt lat="41.56789" lon="9.10058">
        <ele>901.37</ele>
        <time>2016-04-25T08:07:04Z</time>
      </trkpt>
      <trkpt lat="41.56801" lon="9.10062">
        <ele>900.89</ele>
        <time>2016-04-25T08:07:18Z</time>
      </trkpt>
      <trkpt lat="41.56814" lon="9.10065">
        <ele>900.41</ele>
        <time>2016-04-25T08:07:35Z</time>
      </trkpt>
      <trkpt lat="41.56831" lon="9.10069">
        <ele>899.93</ele>
        <time>2016-04-25T08:07:48Z</time>
      </trkpt>
      <trkpt lat="41.56843" lon="9.10073">
        <ele>899.93</ele>
        <time>2016-04-25T08:08:01Z</time>
      </trkpt>
      <trkpt lat="41.56865" lon="9.10073">
        <ele>898.49</ele>
        <time>2016-04-25T08:08:17Z</time>
      </trkpt>
      <trkpt lat="41.5688" lon="9.10073">
        <ele>898.01</ele>
        <time>2016-04-25T08:08:34Z</time>
      </trkpt>
      <trkpt lat="41.5689" lon="9.10072">
        <ele>897.53</ele>
        <time>2016-04-25T08:08:51Z</time>
      </trkpt>
      <trkpt lat="41.56924" lon="9.10064">
        <ele>897.05</ele>
        <time>2016-04-25T08:09:13Z</time>
      </trkpt>
      <trkpt lat="41.56936" lon="9.10061">
        <ele>897.05</ele>
        <time>2016-04-25T08:09:31Z</time>
      </trkpt>
      <trkpt lat="41.5694" lon="9.10061">
        <ele>898.49</ele>
        <time>2016-04-25T08:09:39Z</time>
      </trkpt>
      <trkpt lat="41.5696" lon="9.10054">
        <ele>898.49</ele>
        <time>2016-04-25T08:09:58Z</time>
      </trkpt>
      <trkpt lat="41.5699" lon="9.10041">
        <ele>899.93</ele>
        <time>2016-04-25T08:10:18Z</time>
      </trkpt>
      <trkpt lat="41.57006" lon="9.10037">
        <ele>901.37</ele>
        <time>2016-04-25T08:10:32Z</time>
      </trkpt>
      <trkpt lat="41.57016" lon="9.10037">
        <ele>902.82</ele>
        <time>2016-04-25T08:10:49Z</time>
      </trkpt>
      <trkpt lat="41.57027" lon="9.10034">
        <ele>903.3</ele>
        <time>2016-04-25T08:11:02Z</time>
      </trkpt>
      <trkpt lat="41.57041" lon="9.10028">
        <ele>903.78</ele>
        <time>2016-04-25T08:11:14Z</time>
      </trkpt>
      <trkpt lat="41.57053" lon="9.10025">
        <ele>904.26</ele>
        <time>2016-04-25T08:11:30Z</time>
      </trkpt>
      <trkpt lat="41.57055" lon="9.10023">
        <ele>904.26</ele>
        <time>2016-04-25T08:11:47Z</time>
      </trkpt>
      <trkpt lat="41.57055" lon="9.10022">
        <ele>904.26</ele>
        <time>2016-04-25T08:12:02Z</time>
      </trkpt>
      <trkpt lat="41.57057" lon="9.10021">
        <ele>904.26</ele>
        <time>2016-04-25T08:12:04Z</time>
      </trkpt>
      <trkpt lat="41.57066" lon="9.10016">
        <ele>903.3</ele>
        <time>2016-04-25T08:12:14Z</time>
      </trkpt>
      <trkpt lat="41.57076" lon="9.10009">
        <ele>900.89</ele>
        <time>2016-04-25T08:12:29Z</time>
      </trkpt>
      <trkpt lat="41.57083" lon="9.10002">
        <ele>898.97</ele>
        <time>2016-04-25T08:12:41Z</time>
      </trkpt>
      <trkpt lat="41.57088" lon="9.09995">
        <ele>898.01</ele>
        <time>2016-04-25T08:12:53Z</time>
      </trkpt>
      <trkpt lat="41.57098" lon="9.09993">
        <ele>895.12</ele>
        <time>2016-04-25T08:13:08Z</time>
      </trkpt>
      <trkpt lat="41.57105" lon="9.09992">
        <ele>893.2</ele>
        <time>2016-04-25T08:13:20Z</time>
      </trkpt>
      <trkpt lat="41.57112" lon="9.09992">
        <ele>891.28</ele>
        <time>2016-04-25T08:13:32Z</time>
      </trkpt>
      <trkpt lat="41.57118" lon="9.09987">
        <ele>890.32</ele>
        <time>2016-04-25T08:13:44Z</time>
      </trkpt>
      <trkpt lat="41.57122" lon="9.09986">
        <ele>889.36</ele>
        <time>2016-04-25T08:13:58Z</time>
      </trkpt>
      <trkpt lat="41.57127" lon="9.09986">
        <ele>886.95</ele>
        <time>2016-04-25T08:14:09Z</time>
      </trkpt>
      <trkpt lat="41.57131" lon="9.09994">
        <ele>885.51</ele>
        <time>2016-04-25T08:14:21Z</time>
      </trkpt>
      <trkpt lat="41.57133" lon="9.09997">
        <ele>883.59</ele>
        <time>2016-04-25T08:14:33Z</time>
      </trkpt>
      <trkpt lat="41.5714" lon="9.09994">
        <ele>882.15</ele>
        <time>2016-04-25T08:14:45Z</time>
      </trkpt>
      <trkpt lat="41.57142" lon="9.09985">
        <ele>881.67</ele>
        <time>2016-04-25T08:14:56Z</time>
      </trkpt>
      <trkpt lat="41.57144" lon="9.09976">
        <ele>881.19</ele>
        <time>2016-04-25T08:15:07Z</time>
      </trkpt>
      <trkpt lat="41.57145" lon="9.09968">
        <ele>878.3</ele>
        <time>2016-04-25T08:15:17Z</time>
      </trkpt>
      <trkpt lat="41.5715" lon="9.09961">
        <ele>876.86</ele>
        <time>2016-04-25T08:15:32Z</time>
      </trkpt>
      <trkpt lat="41.57157" lon="9.09966">
        <ele>875.42</ele>
        <time>2016-04-25T08:15:45Z</time>
      </trkpt>
      <trkpt lat="41.57162" lon="9.09968">
        <ele>873.98</ele>
        <time>2016-04-25T08:15:55Z</time>
      </trkpt>
      <trkpt lat="41.57167" lon="9.09975">
        <ele>872.53</ele>
        <time>2016-04-25T08:16:07Z</time>
      </trkpt>
      <trkpt lat="41.57172" lon="9.09981">
        <ele>871.57</ele>
        <time>2016-04-25T08:16:16Z</time>
      </trkpt>
      <trkpt lat="41.57177" lon="9.0999">
        <ele>869.65</ele>
        <time>2016-04-25T08:16:28Z</time>
      </trkpt>
      <trkpt lat="41.57186" lon="9.09998">
        <ele>868.21</ele>
        <time>2016-04-25T08:16:42Z</time>
      </trkpt>
      <trkpt lat="41.57186" lon="9.09998">
        <ele>868.21</ele>
        <time>2016-04-25T08:16:43Z</time>
      </trkpt>
      <trkpt lat="41.57193" lon="9.10009">
        <ele>866.29</ele>
        <time>2016-04-25T08:16:57Z</time>
      </trkpt>
      <trkpt lat="41.57197" lon="9.10013">
        <ele>864.84</ele>
        <time>2016-04-25T08:17:11Z</time>
      </trkpt>
      <trkpt lat="41.572" lon="9.1002">
        <ele>862.92</ele>
        <time>2016-04-25T08:17:24Z</time>
      </trkpt>
      <trkpt lat="41.57203" lon="9.10026">
        <ele>861</ele>
        <time>2016-04-25T08:17:34Z</time>
      </trkpt>
      <trkpt lat="41.57207" lon="9.10032">
        <ele>860.04</ele>
        <time>2016-04-25T08:17:46Z</time>
      </trkpt>
      <trkpt lat="41.57216" lon="9.10029">
        <ele>858.11</ele>
        <time>2016-04-25T08:18:02Z</time>
      </trkpt>
      <trkpt lat="41.57222" lon="9.10026">
        <ele>855.71</ele>
        <time>2016-04-25T08:18:17Z</time>
      </trkpt>
      <trkpt lat="41.57223" lon="9.10026">
        <ele>854.27</ele>
        <time>2016-04-25T08:18:30Z</time>
      </trkpt>
      <trkpt lat="41.57225" lon="9.10026">
        <ele>851.87</ele>
        <time>2016-04-25T08:18:44Z</time>
      </trkpt>
      <trkpt lat="41.57228" lon="9.10024">
        <ele>850.9</ele>
        <time>2016-04-25T08:18:55Z</time>
      </trkpt>
      <trkpt lat="41.57232" lon="9.10029">
        <ele>848.5</ele>
        <time>2016-04-25T08:19:07Z</time>
      </trkpt>
      <trkpt lat="41.57235" lon="9.10031">
        <ele>847.54</ele>
        <time>2016-04-25T08:19:19Z</time>
      </trkpt>
      <trkpt lat="41.57241" lon="9.10031">
        <ele>846.1</ele>
        <time>2016-04-25T08:19:31Z</time>
      </trkpt>
      <trkpt lat="41.57247" lon="9.10032">
        <ele>844.66</ele>
        <time>2016-04-25T08:19:43Z</time>
      </trkpt>
      <trkpt lat="41.57252" lon="9.10034">
        <ele>843.21</ele>
        <time>2016-04-25T08:19:51Z</time>
      </trkpt>
      <trkpt lat="41.57262" lon="9.10038">
        <ele>841.77</ele>
        <time>2016-04-25T08:20:02Z</time>
      </trkpt>
      <trkpt lat="41.57268" lon="9.10041">
        <ele>842.73</ele>
        <time>2016-04-25T08:20:16Z</time>
      </trkpt>
      <trkpt lat="41.57271" lon="9.10043">
        <ele>841.29</ele>
        <time>2016-04-25T08:20:34Z</time>
      </trkpt>
      <trkpt lat="41.57273" lon="9.10042">
        <ele>841.29</ele>
        <time>2016-04-25T08:20:51Z</time>
      </trkpt>
      <trkpt lat="41.57274" lon="9.10041">
        <ele>841.29</ele>
        <time>2016-04-25T08:21:12Z</time>
      </trkpt>
      <trkpt lat="41.57275" lon="9.1004">
        <ele>841.29</ele>
        <time>2016-04-25T08:21:41Z</time>
      </trkpt>
      <trkpt lat="41.57275" lon="9.10042">
        <ele>841.29</ele>
        <time>2016-04-25T08:22:08Z</time>
      </trkpt>
      <trkpt lat="41.57271" lon="9.10043">
        <ele>841.77</ele>
        <time>2016-04-25T08:22:30Z</time>
      </trkpt>
      <trkpt lat="41.57269" lon="9.10043">
        <ele>842.73</ele>
        <time>2016-04-25T08:22:44Z</time>
      </trkpt>
      <trkpt lat="41.57272" lon="9.10043">
        <ele>842.73</ele>
        <time>2016-04-25T08:23:05Z</time>
      </trkpt>
      <trkpt lat="41.57276" lon="9.10041">
        <ele>843.21</ele>
        <time>2016-04-25T08:23:29Z</time>
      </trkpt>
      <trkpt lat="41.57274" lon="9.10042">
        <ele>843.21</ele>
        <time>2016-04-25T08:23:53Z</time>
      </trkpt>
      <trkpt lat="41.57272" lon="9.10043">
        <ele>843.21</ele>
        <time>2016-04-25T08:24:14Z</time>
      </trkpt>
      <trkpt lat="41.57273" lon="9.10045">
        <ele>843.21</ele>
        <time>2016-04-25T08:24:31Z</time>
      </trkpt>
      <trkpt lat="41.57271" lon="9.10044">
        <ele>843.21</ele>
        <time>2016-04-25T08:24:52Z</time>
      </trkpt>
      <trkpt lat="41.57271" lon="9.10041">
        <ele>843.21</ele>
        <time>2016-04-25T08:25:14Z</time>
      </trkpt>
      <trkpt lat="41.57273" lon="9.10042">
        <ele>843.21</ele>
        <time>2016-04-25T08:25:32Z</time>
      </trkpt>
      <trkpt lat="41.57272" lon="9.1004">
        <ele>843.21</ele>
        <time>2016-04-25T08:26:02Z</time>
      </trkpt>
      <trkpt lat="41.57273" lon="9.10041">
        <ele>843.21</ele>
        <time>2016-04-25T08:26:22Z</time>
      </trkpt>
      <trkpt lat="41.57274" lon="9.10041">
        <ele>843.69</ele>
        <time>2016-04-25T08:26:43Z</time>
      </trkpt>
      <trkpt lat="41.57277" lon="9.10039">
        <ele>843.69</ele>
        <time>2016-04-25T08:26:55Z</time>
      </trkpt>
      <trkpt lat="41.5728" lon="9.1004">
        <ele>842.25</ele>
        <time>2016-04-25T08:26:58Z</time>
      </trkpt>
      <trkpt lat="41.57288" lon="9.10042">
        <ele>841.77</ele>
        <time>2016-04-25T08:27:10Z</time>
      </trkpt>
      <trkpt lat="41.57299" lon="9.10039">
        <ele>840.33</ele>
        <time>2016-04-25T08:27:24Z</time>
      </trkpt>
      <trkpt lat="41.57308" lon="9.10036">
        <ele>839.37</ele>
        <time>2016-04-25T08:27:36Z</time>
      </trkpt>
      <trkpt lat="41.57318" lon="9.1003">
        <ele>838.89</ele>
        <time>2016-04-25T08:27:50Z</time>
      </trkpt>
      <trkpt lat="41.57327" lon="9.10023">
        <ele>838.41</ele>
        <time>2016-04-25T08:28:04Z</time>
      </trkpt>
      <trkpt lat="41.57341" lon="9.10013">
        <ele>838.41</ele>
        <time>2016-04-25T08:28:19Z</time>
      </trkpt>
      <trkpt lat="41.57345" lon="9.1001">
        <ele>837.93</ele>
        <time>2016-04-25T08:28:23Z</time>
      </trkpt>
      <trkpt lat="41.5736" lon="9.10004">
        <ele>837.93</ele>
        <time>2016-04-25T08:28:36Z</time>
      </trkpt>
      <trkpt lat="41.57363" lon="9.10004">
        <ele>837.93</ele>
        <time>2016-04-25T08:28:38Z</time>
      </trkpt>
      <trkpt lat="41.57375" lon="9.09998">
        <ele>837.93</ele>
        <time>2016-04-25T08:28:49Z</time>
      </trkpt>
      <trkpt lat="41.57385" lon="9.0999">
        <ele>835.52</ele>
        <time>2016-04-25T08:29:02Z</time>
      </trkpt>
      <trkpt lat="41.57394" lon="9.09986">
        <ele>833.12</ele>
        <time>2016-04-25T08:29:16Z</time>
      </trkpt>
      <trkpt lat="41.57398" lon="9.0998">
        <ele>832.16</ele>
        <time>2016-04-25T08:29:27Z</time>
      </trkpt>
      <trkpt lat="41.57404" lon="9.09971">
        <ele>831.68</ele>
        <time>2016-04-25T08:29:34Z</time>
      </trkpt>
      <trkpt lat="41.57407" lon="9.09966">
        <ele>832.16</ele>
        <time>2016-04-25T08:29:38Z</time>
      </trkpt>
      <trkpt lat="41.57417" lon="9.09948">
        <ele>832.16</ele>
        <time>2016-04-25T08:29:52Z</time>
      </trkpt>
      <trkpt lat="41.57428" lon="9.09934">
        <ele>832.16</ele>
        <time>2016-04-25T08:30:06Z</time>
      </trkpt>
      <trkpt lat="41.57438" lon="9.09928">
        <ele>830.24</ele>
        <time>2016-04-25T08:30:19Z</time>
      </trkpt>
      <trkpt lat="41.57451" lon="9.09926">
        <ele>828.79</ele>
        <time>2016-04-25T08:30:32Z</time>
      </trkpt>
      <trkpt lat="41.57458" lon="9.09916">
        <ele>827.35</ele>
        <time>2016-04-25T08:30:44Z</time>
      </trkpt>
      <trkpt lat="41.57465" lon="9.0991">
        <ele>825.91</ele>
        <time>2016-04-25T08:30:56Z</time>
      </trkpt>
      <trkpt lat="41.57468" lon="9.09909">
        <ele>824.47</ele>
        <time>2016-04-25T08:30:59Z</time>
      </trkpt>
      <trkpt lat="41.57472" lon="9.09901">
        <ele>824.47</ele>
        <time>2016-04-25T08:31:12Z</time>
      </trkpt>
      <trkpt lat="41.57477" lon="9.09891">
        <ele>824.47</ele>
        <time>2016-04-25T08:31:24Z</time>
      </trkpt>
      <trkpt lat="41.57482" lon="9.09878">
        <ele>823.99</ele>
        <time>2016-04-25T08:31:36Z</time>
      </trkpt>
      <trkpt lat="41.57485" lon="9.09869">
        <ele>823.99</ele>
        <time>2016-04-25T08:31:49Z</time>
      </trkpt>
      <trkpt lat="41.57486" lon="9.09858">
        <ele>823.99</ele>
        <time>2016-04-25T08:32:03Z</time>
      </trkpt>
      <trkpt lat="41.57488" lon="9.09846">
        <ele>823.99</ele>
        <time>2016-04-25T08:32:18Z</time>
      </trkpt>
      <trkpt lat="41.57488" lon="9.09832">
        <ele>823.99</ele>
        <time>2016-04-25T08:32:32Z</time>
      </trkpt>
      <trkpt lat="41.5749" lon="9.09819">
        <ele>825.43</ele>
        <time>2016-04-25T08:32:44Z</time>
      </trkpt>
      <trkpt lat="41.5749" lon="9.098">
        <ele>825.91</ele>
        <time>2016-04-25T08:33:01Z</time>
      </trkpt>
      <trkpt lat="41.57492" lon="9.09785">
        <ele>826.39</ele>
        <time>2016-04-25T08:33:15Z</time>
      </trkpt>
      <trkpt lat="41.57492" lon="9.09763">
        <ele>826.39</ele>
        <time>2016-04-25T08:33:28Z</time>
      </trkpt>
      <trkpt lat="41.57494" lon="9.09747">
        <ele>827.35</ele>
        <time>2016-04-25T08:33:42Z</time>
      </trkpt>
      <trkpt lat="41.57495" lon="9.09724">
        <ele>827.83</ele>
        <time>2016-04-25T08:33:58Z</time>
      </trkpt>
      <trkpt lat="41.57494" lon="9.09703">
        <ele>829.27</ele>
        <time>2016-04-25T08:34:12Z</time>
      </trkpt>
      <trkpt lat="41.57494" lon="9.09686">
        <ele>829.76</ele>
        <time>2016-04-25T08:34:26Z</time>
      </trkpt>
      <trkpt lat="41.57493" lon="9.09671">
        <ele>828.31</ele>
        <time>2016-04-25T08:34:40Z</time>
      </trkpt>
      <trkpt lat="41.57493" lon="9.09669">
        <ele>828.31</ele>
        <time>2016-04-25T08:34:41Z</time>
      </trkpt>
      <trkpt lat="41.57492" lon="9.09656">
        <ele>827.83</ele>
        <time>2016-04-25T08:34:55Z</time>
      </trkpt>
      <trkpt lat="41.57492" lon="9.09641">
        <ele>826.87</ele>
        <time>2016-04-25T08:35:08Z</time>
      </trkpt>
      <trkpt lat="41.57497" lon="9.09618">
        <ele>826.87</ele>
        <time>2016-04-25T08:35:24Z</time>
      </trkpt>
      <trkpt lat="41.57497" lon="9.09602">
        <ele>827.83</ele>
        <time>2016-04-25T08:35:36Z</time>
      </trkpt>
      <trkpt lat="41.57498" lon="9.09586">
        <ele>827.83</ele>
        <time>2016-04-25T08:35:50Z</time>
      </trkpt>
      <trkpt lat="41.57503" lon="9.09568">
        <ele>828.31</ele>
        <time>2016-04-25T08:36:05Z</time>
      </trkpt>
      <trkpt lat="41.57502" lon="9.09543">
        <ele>828.79</ele>
        <time>2016-04-25T08:36:21Z</time>
      </trkpt>
      <trkpt lat="41.57507" lon="9.09525">
        <ele>828.79</ele>
        <time>2016-04-25T08:36:37Z</time>
      </trkpt>
      <trkpt lat="41.57508" lon="9.09516">
        <ele>828.79</ele>
        <time>2016-04-25T08:36:51Z</time>
      </trkpt>
      <trkpt lat="41.57511" lon="9.09496">
        <ele>830.24</ele>
        <time>2016-04-25T08:37:07Z</time>
      </trkpt>
      <trkpt lat="41.57514" lon="9.09477">
        <ele>831.68</ele>
        <time>2016-04-25T08:37:23Z</time>
      </trkpt>
      <trkpt lat="41.57517" lon="9.09457">
        <ele>833.12</ele>
        <time>2016-04-25T08:37:39Z</time>
      </trkpt>
      <trkpt lat="41.57521" lon="9.09448">
        <ele>831.2</ele>
        <time>2016-04-25T08:37:53Z</time>
      </trkpt>
      <trkpt lat="41.57519" lon="9.09441">
        <ele>832.64</ele>
        <time>2016-04-25T08:38:12Z</time>
      </trkpt>
      <trkpt lat="41.57513" lon="9.09428">
        <ele>835.04</ele>
        <time>2016-04-25T08:38:28Z</time>
      </trkpt>
      <trkpt lat="41.57507" lon="9.09416">
        <ele>834.08</ele>
        <time>2016-04-25T08:38:45Z</time>
      </trkpt>
      <trkpt lat="41.5751" lon="9.09404">
        <ele>834.08</ele>
        <time>2016-04-25T08:38:58Z</time>
      </trkpt>
      <trkpt lat="41.57511" lon="9.09401">
        <ele>835.52</ele>
        <time>2016-04-25T08:39:03Z</time>
      </trkpt>
      <trkpt lat="41.57511" lon="9.09388">
        <ele>836.96</ele>
        <time>2016-04-25T08:39:15Z</time>
      </trkpt>
      <trkpt lat="41.57516" lon="9.09373">
        <ele>838.89</ele>
        <time>2016-04-25T08:39:32Z</time>
      </trkpt>
      <trkpt lat="41.57522" lon="9.09361">
        <ele>841.29</ele>
        <time>2016-04-25T08:39:47Z</time>
      </trkpt>
      <trkpt lat="41.57526" lon="9.0935">
        <ele>841.29</ele>
        <time>2016-04-25T08:40:01Z</time>
      </trkpt>
      <trkpt lat="41.57527" lon="9.0934">
        <ele>841.29</ele>
        <time>2016-04-25T08:40:16Z</time>
      </trkpt>
      <trkpt lat="41.5753" lon="9.09331">
        <ele>843.21</ele>
        <time>2016-04-25T08:40:33Z</time>
      </trkpt>
      <trkpt lat="41.57526" lon="9.09318">
        <ele>844.66</ele>
        <time>2016-04-25T08:40:52Z</time>
      </trkpt>
      <trkpt lat="41.57523" lon="9.09311">
        <ele>844.66</ele>
        <time>2016-04-25T08:41:10Z</time>
      </trkpt>
      <trkpt lat="41.57515" lon="9.09305">
        <ele>842.73</ele>
        <time>2016-04-25T08:41:27Z</time>
      </trkpt>
      <trkpt lat="41.5751" lon="9.09299">
        <ele>842.73</ele>
        <time>2016-04-25T08:41:42Z</time>
      </trkpt>
      <trkpt lat="41.57508" lon="9.09292">
        <ele>843.21</ele>
        <time>2016-04-25T08:42:04Z</time>
      </trkpt>
      <trkpt lat="41.57501" lon="9.09295">
        <ele>842.73</ele>
        <time>2016-04-25T08:42:35Z</time>
      </trkpt>
      <trkpt lat="41.57494" lon="9.09296">
        <ele>842.73</ele>
        <time>2016-04-25T08:42:57Z</time>
      </trkpt>
      <trkpt lat="41.57502" lon="9.093">
        <ele>842.73</ele>
        <time>2016-04-25T08:43:23Z</time>
      </trkpt>
      <trkpt lat="41.57508" lon="9.09292">
        <ele>842.73</ele>
        <time>2016-04-25T08:43:41Z</time>
      </trkpt>
      <trkpt lat="41.57502" lon="9.09287">
        <ele>842.25</ele>
        <time>2016-04-25T08:44:03Z</time>
      </trkpt>
      <trkpt lat="41.575" lon="9.09282">
        <ele>841.29</ele>
        <time>2016-04-25T08:44:21Z</time>
      </trkpt>
      <trkpt lat="41.57499" lon="9.09279">
        <ele>841.29</ele>
        <time>2016-04-25T08:44:37Z</time>
      </trkpt>
      <trkpt lat="41.575" lon="9.09277">
        <ele>841.77</ele>
        <time>2016-04-25T08:45:00Z</time>
      </trkpt>
      <trkpt lat="41.57501" lon="9.09277">
        <ele>843.21</ele>
        <time>2016-04-25T08:45:02Z</time>
      </trkpt>
      <trkpt lat="41.57502" lon="9.09272">
        <ele>845.62</ele>
        <time>2016-04-25T08:45:15Z</time>
      </trkpt>
      <trkpt lat="41.57503" lon="9.09261">
        <ele>848.02</ele>
        <time>2016-04-25T08:45:32Z</time>
      </trkpt>
      <trkpt lat="41.57505" lon="9.09253">
        <ele>850.9</ele>
        <time>2016-04-25T08:45:46Z</time>
      </trkpt>
      <trkpt lat="41.57508" lon="9.09241">
        <ele>854.27</ele>
        <time>2016-04-25T08:46:05Z</time>
      </trkpt>
      <trkpt lat="41.57503" lon="9.0924">
        <ele>856.67</ele>
        <time>2016-04-25T08:46:19Z</time>
      </trkpt>
      <trkpt lat="41.57501" lon="9.09231">
        <ele>859.08</ele>
        <time>2016-04-25T08:46:35Z</time>
      </trkpt>
      <trkpt lat="41.57497" lon="9.09223">
        <ele>861.96</ele>
        <time>2016-04-25T08:46:51Z</time>
      </trkpt>
      <trkpt lat="41.5749" lon="9.09221">
        <ele>865.32</ele>
        <time>2016-04-25T08:47:09Z</time>
      </trkpt>
      <trkpt lat="41.57495" lon="9.09208">
        <ele>866.29</ele>
        <time>2016-04-25T08:47:27Z</time>
      </trkpt>
      <trkpt lat="41.57495" lon="9.09199">
        <ele>867.73</ele>
        <time>2016-04-25T08:47:40Z</time>
      </trkpt>
      <trkpt lat="41.57496" lon="9.09188">
        <ele>870.61</ele>
        <time>2016-04-25T08:47:55Z</time>
      </trkpt>
      <trkpt lat="41.57493" lon="9.09178">
        <ele>872.53</ele>
        <time>2016-04-25T08:48:09Z</time>
      </trkpt>
      <trkpt lat="41.5749" lon="9.09171">
        <ele>874.46</ele>
        <time>2016-04-25T08:48:22Z</time>
      </trkpt>
      <trkpt lat="41.5749" lon="9.09156">
        <ele>877.34</ele>
        <time>2016-04-25T08:48:39Z</time>
      </trkpt>
      <trkpt lat="41.57493" lon="9.09147">
        <ele>879.74</ele>
        <time>2016-04-25T08:48:53Z</time>
      </trkpt>
      <trkpt lat="41.57496" lon="9.09134">
        <ele>880.71</ele>
        <time>2016-04-25T08:49:06Z</time>
      </trkpt>
      <trkpt lat="41.57494" lon="9.09124">
        <ele>882.15</ele>
        <time>2016-04-25T08:49:22Z</time>
      </trkpt>
      <trkpt lat="41.57493" lon="9.09112">
        <ele>883.59</ele>
        <time>2016-04-25T08:49:37Z</time>
      </trkpt>
      <trkpt lat="41.57492" lon="9.09093">
        <ele>885.51</ele>
        <time>2016-04-25T08:49:53Z</time>
      </trkpt>
      <trkpt lat="41.57488" lon="9.09078">
        <ele>885.99</ele>
        <time>2016-04-25T08:50:08Z</time>
      </trkpt>
      <trkpt lat="41.57487" lon="9.09064">
        <ele>886.47</ele>
        <time>2016-04-25T08:50:21Z</time>
      </trkpt>
      <trkpt lat="41.57486" lon="9.09047">
        <ele>887.43</ele>
        <time>2016-04-25T08:50:37Z</time>
      </trkpt>
      <trkpt lat="41.57489" lon="9.09034">
        <ele>888.4</ele>
        <time>2016-04-25T08:50:51Z</time>
      </trkpt>
      <trkpt lat="41.57489" lon="9.09021">
        <ele>889.84</ele>
        <time>2016-04-25T08:51:06Z</time>
      </trkpt>
      <trkpt lat="41.57486" lon="9.09012">
        <ele>892.24</ele>
        <time>2016-04-25T08:51:26Z</time>
      </trkpt>
      <trkpt lat="41.57479" lon="9.09006">
        <ele>894.16</ele>
        <time>2016-04-25T08:51:41Z</time>
      </trkpt>
      <trkpt lat="41.57472" lon="9.08995">
        <ele>896.57</ele>
        <time>2016-04-25T08:51:59Z</time>
      </trkpt>
      <trkpt lat="41.57479" lon="9.08979">
        <ele>896.57</ele>
        <time>2016-04-25T08:52:19Z</time>
      </trkpt>
      <trkpt lat="41.57479" lon="9.08966">
        <ele>897.53</ele>
        <time>2016-04-25T08:52:33Z</time>
      </trkpt>
      <trkpt lat="41.57481" lon="9.08946">
        <ele>898.01</ele>
        <time>2016-04-25T08:52:48Z</time>
      </trkpt>
      <trkpt lat="41.57481" lon="9.08935">
        <ele>899.45</ele>
        <time>2016-04-25T08:53:01Z</time>
      </trkpt>
      <trkpt lat="41.57482" lon="9.08925">
        <ele>901.37</ele>
        <time>2016-04-25T08:53:15Z</time>
      </trkpt>
      <trkpt lat="41.57481" lon="9.08917">
        <ele>902.82</ele>
        <time>2016-04-25T08:53:36Z</time>
      </trkpt>
      <trkpt lat="41.57482" lon="9.08916">
        <ele>901.37</ele>
        <time>2016-04-25T08:53:40Z</time>
      </trkpt>
      <trkpt lat="41.57477" lon="9.08906">
        <ele>902.82</ele>
        <time>2016-04-25T08:53:56Z</time>
      </trkpt>
      <trkpt lat="41.57471" lon="9.08894">
        <ele>905.7</ele>
        <time>2016-04-25T08:54:12Z</time>
      </trkpt>
      <trkpt lat="41.57467" lon="9.08879">
        <ele>907.62</ele>
        <time>2016-04-25T08:54:28Z</time>
      </trkpt>
      <trkpt lat="41.57469" lon="9.0887">
        <ele>909.54</ele>
        <time>2016-04-25T08:54:41Z</time>
      </trkpt>
      <trkpt lat="41.57473" lon="9.08862">
        <ele>910.99</ele>
        <time>2016-04-25T08:54:58Z</time>
      </trkpt>
      <trkpt lat="41.5747" lon="9.08859">
        <ele>911.47</ele>
        <time>2016-04-25T08:55:15Z</time>
      </trkpt>
      <trkpt lat="41.57471" lon="9.08858">
        <ele>913.39</ele>
        <time>2016-04-25T08:55:34Z</time>
      </trkpt>
      <trkpt lat="41.57473" lon="9.08864">
        <ele>913.39</ele>
        <time>2016-04-25T08:55:55Z</time>
      </trkpt>
      <trkpt lat="41.57472" lon="9.08864">
        <ele>913.87</ele>
        <time>2016-04-25T08:56:16Z</time>
      </trkpt>
      <trkpt lat="41.57465" lon="9.08865">
        <ele>914.83</ele>
        <time>2016-04-25T08:56:34Z</time>
      </trkpt>
      <trkpt lat="41.57457" lon="9.08869">
        <ele>916.75</ele>
        <time>2016-04-25T08:56:50Z</time>
      </trkpt>
      <trkpt lat="41.57449" lon="9.08869">
        <ele>918.2</ele>
        <time>2016-04-25T08:57:03Z</time>
      </trkpt>
      <trkpt lat="41.57446" lon="9.08871">
        <ele>920.6</ele>
        <time>2016-04-25T08:57:13Z</time>
      </trkpt>
      <trkpt lat="41.57437" lon="9.08878">
        <ele>922.04</ele>
        <time>2016-04-25T08:57:26Z</time>
      </trkpt>
      <trkpt lat="41.57431" lon="9.08876">
        <ele>924.93</ele>
        <time>2016-04-25T08:57:39Z</time>
      </trkpt>
      <trkpt lat="41.57423" lon="9.08879">
        <ele>926.37</ele>
        <time>2016-04-25T08:57:53Z</time>
      </trkpt>
      <trkpt lat="41.57421" lon="9.08872">
        <ele>928.29</ele>
        <time>2016-04-25T08:58:06Z</time>
      </trkpt>
      <trkpt lat="41.57417" lon="9.0887">
        <ele>930.21</ele>
        <time>2016-04-25T08:58:20Z</time>
      </trkpt>
      <trkpt lat="41.57416" lon="9.08866">
        <ele>931.65</ele>
        <time>2016-04-25T08:58:32Z</time>
      </trkpt>
      <trkpt lat="41.57414" lon="9.08864">
        <ele>933.1</ele>
        <time>2016-04-25T08:58:45Z</time>
      </trkpt>
      <trkpt lat="41.57416" lon="9.08853">
        <ele>935.02</ele>
        <time>2016-04-25T08:58:58Z</time>
      </trkpt>
      <trkpt lat="41.57413" lon="9.08845">
        <ele>936.94</ele>
        <time>2016-04-25T08:59:13Z</time>
      </trkpt>
      <trkpt lat="41.57414" lon="9.08838">
        <ele>938.38</ele>
        <time>2016-04-25T08:59:26Z</time>
      </trkpt>
      <trkpt lat="41.57408" lon="9.08834">
        <ele>940.31</ele>
        <time>2016-04-25T08:59:38Z</time>
      </trkpt>
      <trkpt lat="41.57406" lon="9.08829">
        <ele>942.71</ele>
        <time>2016-04-25T08:59:53Z</time>
      </trkpt>
      <trkpt lat="41.57406" lon="9.08814">
        <ele>945.11</ele>
        <time>2016-04-25T09:00:11Z</time>
      </trkpt>
      <trkpt lat="41.57401" lon="9.08814">
        <ele>947.04</ele>
        <time>2016-04-25T09:00:24Z</time>
      </trkpt>
      <trkpt lat="41.57397" lon="9.08814">
        <ele>948.96</ele>
        <time>2016-04-25T09:00:38Z</time>
      </trkpt>
      <trkpt lat="41.5739" lon="9.08812">
        <ele>950.4</ele>
        <time>2016-04-25T09:00:49Z</time>
      </trkpt>
      <trkpt lat="41.57386" lon="9.08805">
        <ele>952.8</ele>
        <time>2016-04-25T09:01:02Z</time>
      </trkpt>
      <trkpt lat="41.57388" lon="9.08792">
        <ele>952.8</ele>
        <time>2016-04-25T09:01:14Z</time>
      </trkpt>
      <trkpt lat="41.57384" lon="9.08779">
        <ele>954.73</ele>
        <time>2016-04-25T09:01:29Z</time>
      </trkpt>
      <trkpt lat="41.57388" lon="9.08767">
        <ele>955.21</ele>
        <time>2016-04-25T09:01:42Z</time>
      </trkpt>
      <trkpt lat="41.5739" lon="9.08757">
        <ele>957.13</ele>
        <time>2016-04-25T09:01:55Z</time>
      </trkpt>
      <trkpt lat="41.57388" lon="9.08753">
        <ele>957.13</ele>
        <time>2016-04-25T09:02:07Z</time>
      </trkpt>
      <trkpt lat="41.5739" lon="9.08743">
        <ele>957.13</ele>
        <time>2016-04-25T09:02:19Z</time>
      </trkpt>
      <trkpt lat="41.57393" lon="9.08732">
        <ele>958.57</ele>
        <time>2016-04-25T09:02:33Z</time>
      </trkpt>
      <trkpt lat="41.57393" lon="9.08724">
        <ele>959.53</ele>
        <time>2016-04-25T09:02:47Z</time>
      </trkpt>
      <trkpt lat="41.57394" lon="9.08714">
        <ele>960.98</ele>
        <time>2016-04-25T09:03:02Z</time>
      </trkpt>
      <trkpt lat="41.57393" lon="9.08701">
        <ele>962.9</ele>
        <time>2016-04-25T09:03:18Z</time>
      </trkpt>
      <trkpt lat="41.57401" lon="9.08693">
        <ele>964.82</ele>
        <time>2016-04-25T09:03:34Z</time>
      </trkpt>
      <trkpt lat="41.57406" lon="9.08684">
        <ele>967.22</ele>
        <time>2016-04-25T09:03:50Z</time>
      </trkpt>
      <trkpt lat="41.57414" lon="9.08689">
        <ele>967.7</ele>
        <time>2016-04-25T09:04:07Z</time>
      </trkpt>
      <trkpt lat="41.57414" lon="9.08681">
        <ele>969.63</ele>
        <time>2016-04-25T09:04:21Z</time>
      </trkpt>
      <trkpt lat="41.57415" lon="9.08673">
        <ele>971.55</ele>
        <time>2016-04-25T09:04:34Z</time>
      </trkpt>
      <trkpt lat="41.57417" lon="9.08664">
        <ele>972.99</ele>
        <time>2016-04-25T09:04:48Z</time>
      </trkpt>
      <trkpt lat="41.57422" lon="9.08659">
        <ele>975.39</ele>
        <time>2016-04-25T09:05:00Z</time>
      </trkpt>
      <trkpt lat="41.57424" lon="9.08652">
        <ele>976.84</ele>
        <time>2016-04-25T09:05:11Z</time>
      </trkpt>
      <trkpt lat="41.57424" lon="9.08646">
        <ele>978.76</ele>
        <time>2016-04-25T09:05:27Z</time>
      </trkpt>
      <trkpt lat="41.57424" lon="9.08637">
        <ele>980.2</ele>
        <time>2016-04-25T09:05:40Z</time>
      </trkpt>
      <trkpt lat="41.57422" lon="9.08626">
        <ele>981.64</ele>
        <time>2016-04-25T09:05:52Z</time>
      </trkpt>
      <trkpt lat="41.57419" lon="9.08618">
        <ele>981.64</ele>
        <time>2016-04-25T09:06:07Z</time>
      </trkpt>
      <trkpt lat="41.57419" lon="9.08608">
        <ele>983.09</ele>
        <time>2016-04-25T09:06:22Z</time>
      </trkpt>
      <trkpt lat="41.57415" lon="9.08601">
        <ele>983.09</ele>
        <time>2016-04-25T09:06:36Z</time>
      </trkpt>
      <trkpt lat="41.57413" lon="9.08593">
        <ele>983.09</ele>
        <time>2016-04-25T09:06:53Z</time>
      </trkpt>
      <trkpt lat="41.57417" lon="9.08584">
        <ele>983.09</ele>
        <time>2016-04-25T09:07:04Z</time>
      </trkpt>
      <trkpt lat="41.57423" lon="9.08573">
        <ele>984.05</ele>
        <time>2016-04-25T09:07:17Z</time>
      </trkpt>
      <trkpt lat="41.57429" lon="9.08563">
        <ele>985.01</ele>
        <time>2016-04-25T09:07:31Z</time>
      </trkpt>
      <trkpt lat="41.57435" lon="9.08555">
        <ele>985.49</ele>
        <time>2016-04-25T09:07:43Z</time>
      </trkpt>
      <trkpt lat="41.57441" lon="9.08543">
        <ele>987.41</ele>
        <time>2016-04-25T09:07:58Z</time>
      </trkpt>
      <trkpt lat="41.57446" lon="9.08539">
        <ele>988.37</ele>
        <time>2016-04-25T09:08:09Z</time>
      </trkpt>
      <trkpt lat="41.57454" lon="9.08533">
        <ele>989.81</ele>
        <time>2016-04-25T09:08:21Z</time>
      </trkpt>
      <trkpt lat="41.57462" lon="9.08521">
        <ele>990.3</ele>
        <time>2016-04-25T09:08:33Z</time>
      </trkpt>
      <trkpt lat="41.57464" lon="9.08516">
        <ele>990.78</ele>
        <time>2016-04-25T09:08:38Z</time>
      </trkpt>
      <trkpt lat="41.57469" lon="9.08513">
        <ele>991.26</ele>
        <time>2016-04-25T09:08:49Z</time>
      </trkpt>
      <trkpt lat="41.57474" lon="9.08506">
        <ele>991.26</ele>
        <time>2016-04-25T09:09:01Z</time>
      </trkpt>
      <trkpt lat="41.57479" lon="9.08493">
        <ele>991.26</ele>
        <time>2016-04-25T09:09:14Z</time>
      </trkpt>
      <trkpt lat="41.57486" lon="9.08487">
        <ele>992.22</ele>
        <time>2016-04-25T09:09:27Z</time>
      </trkpt>
      <trkpt lat="41.57491" lon="9.0848">
        <ele>993.66</ele>
        <time>2016-04-25T09:09:41Z</time>
      </trkpt>
      <trkpt lat="41.57496" lon="9.08468">
        <ele>995.1</ele>
        <time>2016-04-25T09:09:56Z</time>
      </trkpt>
      <trkpt lat="41.57499" lon="9.08464">
        <ele>997.02</ele>
        <time>2016-04-25T09:10:13Z</time>
      </trkpt>
      <trkpt lat="41.57514" lon="9.08457">
        <ele>997.99</ele>
        <time>2016-04-25T09:10:31Z</time>
      </trkpt>
      <trkpt lat="41.57529" lon="9.08452">
        <ele>998.95</ele>
        <time>2016-04-25T09:10:50Z</time>
      </trkpt>
      <trkpt lat="41.57542" lon="9.08451">
        <ele>999.91</ele>
        <time>2016-04-25T09:11:06Z</time>
      </trkpt>
      <trkpt lat="41.57543" lon="9.08452">
        <ele>1000.39</ele>
        <time>2016-04-25T09:11:25Z</time>
      </trkpt>
      <trkpt lat="41.57545" lon="9.0846">
        <ele>1002.31</ele>
        <time>2016-04-25T09:11:43Z</time>
      </trkpt>
      <trkpt lat="41.57548" lon="9.08464">
        <ele>1004.23</ele>
        <time>2016-04-25T09:11:56Z</time>
      </trkpt>
      <trkpt lat="41.57549" lon="9.08465">
        <ele>1003.75</ele>
        <time>2016-04-25T09:12:19Z</time>
      </trkpt>
      <trkpt lat="41.57552" lon="9.08463">
        <ele>1005.2</ele>
        <time>2016-04-25T09:12:32Z</time>
      </trkpt>
      <trkpt lat="41.57558" lon="9.08463">
        <ele>1006.16</ele>
        <time>2016-04-25T09:12:46Z</time>
      </trkpt>
      <trkpt lat="41.57564" lon="9.08464">
        <ele>1006.16</ele>
        <time>2016-04-25T09:12:58Z</time>
      </trkpt>
      <trkpt lat="41.5757" lon="9.08469">
        <ele>1007.6</ele>
        <time>2016-04-25T09:13:11Z</time>
      </trkpt>
      <trkpt lat="41.57575" lon="9.08468">
        <ele>1008.08</ele>
        <time>2016-04-25T09:13:22Z</time>
      </trkpt>
      <trkpt lat="41.57583" lon="9.08459">
        <ele>1008.56</ele>
        <time>2016-04-25T09:13:36Z</time>
      </trkpt>
      <trkpt lat="41.57589" lon="9.08452">
        <ele>1011.44</ele>
        <time>2016-04-25T09:13:50Z</time>
      </trkpt>
      <trkpt lat="41.57594" lon="9.08444">
        <ele>1011.93</ele>
        <time>2016-04-25T09:14:05Z</time>
      </trkpt>
      <trkpt lat="41.57599" lon="9.08434">
        <ele>1013.37</ele>
        <time>2016-04-25T09:14:19Z</time>
      </trkpt>
      <trkpt lat="41.57604" lon="9.08428">
        <ele>1014.33</ele>
        <time>2016-04-25T09:14:30Z</time>
      </trkpt>
      <trkpt lat="41.57604" lon="9.08418">
        <ele>1015.29</ele>
        <time>2016-04-25T09:14:44Z</time>
      </trkpt>
      <trkpt lat="41.57604" lon="9.08407">
        <ele>1015.29</ele>
        <time>2016-04-25T09:15:01Z</time>
      </trkpt>
      <trkpt lat="41.57604" lon="9.08395">
        <ele>1013.37</ele>
        <time>2016-04-25T09:15:18Z</time>
      </trkpt>
      <trkpt lat="41.57601" lon="9.08383">
        <ele>1013.37</ele>
        <time>2016-04-25T09:15:37Z</time>
      </trkpt>
      <trkpt lat="41.57601" lon="9.0838">
        <ele>1012.89</ele>
        <time>2016-04-25T09:15:55Z</time>
      </trkpt>
      <trkpt lat="41.57599" lon="9.08376">
        <ele>1012.89</ele>
        <time>2016-04-25T09:16:10Z</time>
      </trkpt>
      <trkpt lat="41.57594" lon="9.08375">
        <ele>1012.89</ele>
        <time>2016-04-25T09:16:30Z</time>
      </trkpt>
      <trkpt lat="41.57593" lon="9.08375">
        <ele>1012.89</ele>
        <time>2016-04-25T09:16:40Z</time>
      </trkpt>
      <trkpt lat="41.57591" lon="9.08372">
        <ele>1013.85</ele>
        <time>2016-04-25T09:16:46Z</time>
      </trkpt>
      <trkpt lat="41.57588" lon="9.08366">
        <ele>1016.25</ele>
        <time>2016-04-25T09:17:01Z</time>
      </trkpt>
      <trkpt lat="41.57589" lon="9.0836">
        <ele>1018.17</ele>
        <time>2016-04-25T09:17:15Z</time>
      </trkpt>
      <trkpt lat="41.57593" lon="9.0835">
        <ele>1020.58</ele>
        <time>2016-04-25T09:17:33Z</time>
      </trkpt>
      <trkpt lat="41.57593" lon="9.08344">
        <ele>1021.54</ele>
        <time>2016-04-25T09:17:47Z</time>
      </trkpt>
      <trkpt lat="41.57593" lon="9.08336">
        <ele>1022.98</ele>
        <time>2016-04-25T09:18:01Z</time>
      </trkpt>
      <trkpt lat="41.57593" lon="9.08331">
        <ele>1024.9</ele>
        <time>2016-04-25T09:18:15Z</time>
      </trkpt>
      <trkpt lat="41.5759" lon="9.08327">
        <ele>1026.83</ele>
        <time>2016-04-25T09:18:29Z</time>
      </trkpt>
      <trkpt lat="41.57594" lon="9.0832">
        <ele>1029.71</ele>
        <time>2016-04-25T09:18:46Z</time>
      </trkpt>
      <trkpt lat="41.57598" lon="9.08309">
        <ele>1031.15</ele>
        <time>2016-04-25T09:19:05Z</time>
      </trkpt>
      <trkpt lat="41.57596" lon="9.08302">
        <ele>1034.04</ele>
        <time>2016-04-25T09:19:22Z</time>
      </trkpt>
      <trkpt lat="41.57598" lon="9.08292">
        <ele>1035.96</ele>
        <time>2016-04-25T09:19:38Z</time>
      </trkpt>
      <trkpt lat="41.57605" lon="9.08289">
        <ele>1037.88</ele>
        <time>2016-04-25T09:19:53Z</time>
      </trkpt>
      <trkpt lat="41.57606" lon="9.08279">
        <ele>1039.8</ele>
        <time>2016-04-25T09:20:09Z</time>
      </trkpt>
      <trkpt lat="41.57604" lon="9.08273">
        <ele>1041.25</ele>
        <time>2016-04-25T09:20:24Z</time>
      </trkpt>
      <trkpt lat="41.57607" lon="9.08266">
        <ele>1043.65</ele>
        <time>2016-04-25T09:20:41Z</time>
      </trkpt>
      <trkpt lat="41.57608" lon="9.08258">
        <ele>1045.09</ele>
        <time>2016-04-25T09:20:58Z</time>
      </trkpt>
      <trkpt lat="41.57604" lon="9.08251">
        <ele>1047.01</ele>
        <time>2016-04-25T09:21:12Z</time>
      </trkpt>
      <trkpt lat="41.57602" lon="9.08239">
        <ele>1048.94</ele>
        <time>2016-04-25T09:21:24Z</time>
      </trkpt>
      <trkpt lat="41.57602" lon="9.08234">
        <ele>1051.34</ele>
        <time>2016-04-25T09:21:39Z</time>
      </trkpt>
      <trkpt lat="41.57604" lon="9.08223">
        <ele>1052.3</ele>
        <time>2016-04-25T09:21:53Z</time>
      </trkpt>
      <trkpt lat="41.57607" lon="9.08214">
        <ele>1053.26</ele>
        <time>2016-04-25T09:22:08Z</time>
      </trkpt>
      <trkpt lat="41.57608" lon="9.08199">
        <ele>1056.15</ele>
        <time>2016-04-25T09:22:25Z</time>
      </trkpt>
      <trkpt lat="41.5761" lon="9.08192">
        <ele>1057.11</ele>
        <time>2016-04-25T09:22:35Z</time>
      </trkpt>
      <trkpt lat="41.57611" lon="9.08182">
        <ele>1057.59</ele>
        <time>2016-04-25T09:22:47Z</time>
      </trkpt>
      <trkpt lat="41.57606" lon="9.08176">
        <ele>1058.55</ele>
        <time>2016-04-25T09:23:01Z</time>
      </trkpt>
      <trkpt lat="41.57599" lon="9.08171">
        <ele>1060.47</ele>
        <time>2016-04-25T09:23:14Z</time>
      </trkpt>
      <trkpt lat="41.57592" lon="9.08165">
        <ele>1062.39</ele>
        <time>2016-04-25T09:23:26Z</time>
      </trkpt>
      <trkpt lat="41.57588" lon="9.08161">
        <ele>1063.36</ele>
        <time>2016-04-25T09:23:40Z</time>
      </trkpt>
      <trkpt lat="41.57585" lon="9.08162">
        <ele>1065.28</ele>
        <time>2016-04-25T09:23:53Z</time>
      </trkpt>
      <trkpt lat="41.5758" lon="9.08153">
        <ele>1066.72</ele>
        <time>2016-04-25T09:24:08Z</time>
      </trkpt>
      <trkpt lat="41.57578" lon="9.08146">
        <ele>1067.2</ele>
        <time>2016-04-25T09:24:21Z</time>
      </trkpt>
      <trkpt lat="41.57573" lon="9.08141">
        <ele>1068.64</ele>
        <time>2016-04-25T09:24:33Z</time>
      </trkpt>
      <trkpt lat="41.57569" lon="9.08132">
        <ele>1070.57</ele>
        <time>2016-04-25T09:24:46Z</time>
      </trkpt>
      <trkpt lat="41.57564" lon="9.08124">
        <ele>1070.57</ele>
        <time>2016-04-25T09:25:00Z</time>
      </trkpt>
      <trkpt lat="41.57556" lon="9.08122">
        <ele>1073.45</ele>
        <time>2016-04-25T09:25:14Z</time>
      </trkpt>
      <trkpt lat="41.57554" lon="9.08128">
        <ele>1074.41</ele>
        <time>2016-04-25T09:25:28Z</time>
      </trkpt>
      <trkpt lat="41.5755" lon="9.08126">
        <ele>1074.89</ele>
        <time>2016-04-25T09:25:54Z</time>
      </trkpt>
      <trkpt lat="41.57553" lon="9.08126">
        <ele>1074.89</ele>
        <time>2016-04-25T09:26:21Z</time>
      </trkpt>
      <trkpt lat="41.57553" lon="9.08124">
        <ele>1073.93</ele>
        <time>2016-04-25T09:26:40Z</time>
      </trkpt>
      <trkpt lat="41.57559" lon="9.08124">
        <ele>1072.01</ele>
        <time>2016-04-25T09:26:55Z</time>
      </trkpt>
      <trkpt lat="41.57569" lon="9.08139">
        <ele>1070.57</ele>
        <time>2016-04-25T09:27:10Z</time>
      </trkpt>
      <trkpt lat="41.57577" lon="9.08148">
        <ele>1069.12</ele>
        <time>2016-04-25T09:27:23Z</time>
      </trkpt>
      <trkpt lat="41.57579" lon="9.08155">
        <ele>1067.2</ele>
        <time>2016-04-25T09:27:36Z</time>
      </trkpt>
      <trkpt lat="41.57583" lon="9.08163">
        <ele>1065.28</ele>
        <time>2016-04-25T09:27:52Z</time>
      </trkpt>
      <trkpt lat="41.57588" lon="9.08163">
        <ele>1063.36</ele>
        <time>2016-04-25T09:28:07Z</time>
      </trkpt>
      <trkpt lat="41.57595" lon="9.08169">
        <ele>1061.91</ele>
        <time>2016-04-25T09:28:23Z</time>
      </trkpt>
      <trkpt lat="41.57601" lon="9.08173">
        <ele>1059.51</ele>
        <time>2016-04-25T09:28:35Z</time>
      </trkpt>
      <trkpt lat="41.57604" lon="9.08182">
        <ele>1057.59</ele>
        <time>2016-04-25T09:28:48Z</time>
      </trkpt>
      <trkpt lat="41.57607" lon="9.08197">
        <ele>1056.15</ele>
        <time>2016-04-25T09:29:02Z</time>
      </trkpt>
      <trkpt lat="41.57607" lon="9.08208">
        <ele>1055.18</ele>
        <time>2016-04-25T09:29:16Z</time>
      </trkpt>
      <trkpt lat="41.57607" lon="9.08214">
        <ele>1053.74</ele>
        <time>2016-04-25T09:29:30Z</time>
      </trkpt>
      <trkpt lat="41.57606" lon="9.08221">
        <ele>1050.86</ele>
        <time>2016-04-25T09:29:45Z</time>
      </trkpt>
      <trkpt lat="41.57607" lon="9.0823">
        <ele>1048.94</ele>
        <time>2016-04-25T09:29:58Z</time>
      </trkpt>
      <trkpt lat="41.57605" lon="9.0825">
        <ele>1046.05</ele>
        <time>2016-04-25T09:30:15Z</time>
      </trkpt>
      <trkpt lat="41.5761" lon="9.08261">
        <ele>1043.65</ele>
        <time>2016-04-25T09:30:32Z</time>
      </trkpt>
      <trkpt lat="41.57603" lon="9.08273">
        <ele>1040.76</ele>
        <time>2016-04-25T09:30:49Z</time>
      </trkpt>
      <trkpt lat="41.57604" lon="9.08283">
        <ele>1038.84</ele>
        <time>2016-04-25T09:31:06Z</time>
      </trkpt>
      <trkpt lat="41.57605" lon="9.08287">
        <ele>1037.88</ele>
        <time>2016-04-25T09:31:24Z</time>
      </trkpt>
      <trkpt lat="41.57599" lon="9.08293">
        <ele>1035.48</ele>
        <time>2016-04-25T09:31:41Z</time>
      </trkpt>
      <trkpt lat="41.57597" lon="9.08299">
        <ele>1033.55</ele>
        <time>2016-04-25T09:31:55Z</time>
      </trkpt>
      <trkpt lat="41.57598" lon="9.08307">
        <ele>1030.67</ele>
        <time>2016-04-25T09:32:10Z</time>
      </trkpt>
      <trkpt lat="41.57596" lon="9.08317">
        <ele>1027.79</ele>
        <time>2016-04-25T09:32:29Z</time>
      </trkpt>
      <trkpt lat="41.57595" lon="9.08325">
        <ele>1025.38</ele>
        <time>2016-04-25T09:32:49Z</time>
      </trkpt>
      <trkpt lat="41.57591" lon="9.0834">
        <ele>1022.98</ele>
        <time>2016-04-25T09:33:07Z</time>
      </trkpt>
      <trkpt lat="41.57593" lon="9.08344">
        <ele>1019.62</ele>
        <time>2016-04-25T09:33:21Z</time>
      </trkpt>
      <trkpt lat="41.57597" lon="9.08354">
        <ele>1018.17</ele>
        <time>2016-04-25T09:33:39Z</time>
      </trkpt>
      <trkpt lat="41.57591" lon="9.08359">
        <ele>1016.73</ele>
        <time>2016-04-25T09:33:52Z</time>
      </trkpt>
      <trkpt lat="41.57591" lon="9.08374">
        <ele>1013.37</ele>
        <time>2016-04-25T09:34:08Z</time>
      </trkpt>
      <trkpt lat="41.57595" lon="9.08376">
        <ele>1011.44</ele>
        <time>2016-04-25T09:34:27Z</time>
      </trkpt>
      <trkpt lat="41.57598" lon="9.08376">
        <ele>1011.44</ele>
        <time>2016-04-25T09:34:41Z</time>
      </trkpt>
      <trkpt lat="41.57594" lon="9.08381">
        <ele>1010.96</ele>
        <time>2016-04-25T09:35:00Z</time>
      </trkpt>
      <trkpt lat="41.5759" lon="9.08384">
        <ele>1010.96</ele>
        <time>2016-04-25T09:35:32Z</time>
      </trkpt>
      <trkpt lat="41.57591" lon="9.08381">
        <ele>1012.41</ele>
        <time>2016-04-25T09:35:39Z</time>
      </trkpt>
      <trkpt lat="41.57596" lon="9.08377">
        <ele>1012.89</ele>
        <time>2016-04-25T09:35:58Z</time>
      </trkpt>
      <trkpt lat="41.57597" lon="9.08372">
        <ele>1012.41</ele>
        <time>2016-04-25T09:36:28Z</time>
      </trkpt>
      <trkpt lat="41.57598" lon="9.08369">
        <ele>1013.85</ele>
        <time>2016-04-25T09:36:52Z</time>
      </trkpt>
      <trkpt lat="41.57606" lon="9.08371">
        <ele>1013.85</ele>
        <time>2016-04-25T09:37:17Z</time>
      </trkpt>
      <trkpt lat="41.57602" lon="9.08375">
        <ele>1013.85</ele>
        <time>2016-04-25T09:37:46Z</time>
      </trkpt>
      <trkpt lat="41.57599" lon="9.08373">
        <ele>1012.89</ele>
        <time>2016-04-25T09:38:10Z</time>
      </trkpt>
      <trkpt lat="41.57602" lon="9.08372">
        <ele>1013.37</ele>
        <time>2016-04-25T09:38:39Z</time>
      </trkpt>
      <trkpt lat="41.57602" lon="9.08372">
        <ele>1013.37</ele>
        <time>2016-04-25T09:39:01Z</time>
      </trkpt>
      <trkpt lat="41.57607" lon="9.08377">
        <ele>1013.37</ele>
        <time>2016-04-25T09:39:29Z</time>
      </trkpt>
      <trkpt lat="41.57606" lon="9.08371">
        <ele>1012.89</ele>
        <time>2016-04-25T09:40:07Z</time>
      </trkpt>
      <trkpt lat="41.57607" lon="9.08377">
        <ele>1014.33</ele>
        <time>2016-04-25T09:40:33Z</time>
      </trkpt>
      <trkpt lat="41.57598" lon="9.08375">
        <ele>1014.33</ele>
        <time>2016-04-25T09:40:53Z</time>
      </trkpt>
      <trkpt lat="41.57598" lon="9.08374">
        <ele>1012.89</ele>
        <time>2016-04-25T09:40:59Z</time>
      </trkpt>
      <trkpt lat="41.57595" lon="9.08374">
        <ele>1012.41</ele>
        <time>2016-04-25T09:41:19Z</time>
      </trkpt>
      <trkpt lat="41.57594" lon="9.08376">
        <ele>1012.89</ele>
        <time>2016-04-25T09:41:48Z</time>
      </trkpt>
      <trkpt lat="41.57596" lon="9.08381">
        <ele>1012.89</ele>
        <time>2016-04-25T09:42:14Z</time>
      </trkpt>
      <trkpt lat="41.57601" lon="9.08376">
        <ele>1012.89</ele>
        <time>2016-04-25T09:42:34Z</time>
      </trkpt>
      <trkpt lat="41.57604" lon="9.08371">
        <ele>1012.89</ele>
        <time>2016-04-25T09:42:58Z</time>
      </trkpt>
      <trkpt lat="41.576" lon="9.08374">
        <ele>1012.89</ele>
        <time>2016-04-25T09:43:29Z</time>
      </trkpt>
      <trkpt lat="41.576" lon="9.08376">
        <ele>1012.89</ele>
        <time>2016-04-25T09:43:52Z</time>
      </trkpt>
      <trkpt lat="41.57599" lon="9.08379">
        <ele>1014.81</ele>
        <time>2016-04-25T09:44:19Z</time>
      </trkpt>
      <trkpt lat="41.57602" lon="9.08379">
        <ele>1013.85</ele>
        <time>2016-04-25T09:44:41Z</time>
      </trkpt>
      <trkpt lat="41.57603" lon="9.08383">
        <ele>1013.85</ele>
        <time>2016-04-25T09:44:58Z</time>
      </trkpt>
      <trkpt lat="41.57606" lon="9.08382">
        <ele>1014.33</ele>
        <time>2016-04-25T09:45:17Z</time>
      </trkpt>
      <trkpt lat="41.57604" lon="9.08394">
        <ele>1014.33</ele>
        <time>2016-04-25T09:45:33Z</time>
      </trkpt>
      <trkpt lat="41.57604" lon="9.08403">
        <ele>1015.77</ele>
        <time>2016-04-25T09:45:42Z</time>
      </trkpt>
      <trkpt lat="41.57608" lon="9.08411">
        <ele>1016.25</ele>
        <time>2016-04-25T09:45:55Z</time>
      </trkpt>
      <trkpt lat="41.57608" lon="9.0842">
        <ele>1016.25</ele>
        <time>2016-04-25T09:46:05Z</time>
      </trkpt>
      <trkpt lat="41.57608" lon="9.08424">
        <ele>1014.81</ele>
        <time>2016-04-25T09:46:10Z</time>
      </trkpt>
      <trkpt lat="41.57607" lon="9.08426">
        <ele>1016.25</ele>
        <time>2016-04-25T09:46:12Z</time>
      </trkpt>
      <trkpt lat="41.57605" lon="9.08429">
        <ele>1014.81</ele>
        <time>2016-04-25T09:46:15Z</time>
      </trkpt>
      <trkpt lat="41.57597" lon="9.08442">
        <ele>1011.93</ele>
        <time>2016-04-25T09:46:30Z</time>
      </trkpt>
      <trkpt lat="41.5759" lon="9.08454">
        <ele>1011.44</ele>
        <time>2016-04-25T09:46:45Z</time>
      </trkpt>
      <trkpt lat="41.57581" lon="9.08463">
        <ele>1009.04</ele>
        <time>2016-04-25T09:47:00Z</time>
      </trkpt>
      <trkpt lat="41.57572" lon="9.08468">
        <ele>1008.56</ele>
        <time>2016-04-25T09:47:14Z</time>
      </trkpt>
      <trkpt lat="41.57566" lon="9.08473">
        <ele>1007.6</ele>
        <time>2016-04-25T09:47:29Z</time>
      </trkpt>
      <trkpt lat="41.57566" lon="9.08485">
        <ele>1010</ele>
        <time>2016-04-25T09:47:43Z</time>
      </trkpt>
      <trkpt lat="41.57562" lon="9.08494">
        <ele>1011.93</ele>
        <time>2016-04-25T09:47:55Z</time>
      </trkpt>
      <trkpt lat="41.57556" lon="9.08498">
        <ele>1014.33</ele>
        <time>2016-04-25T09:48:10Z</time>
      </trkpt>
      <trkpt lat="41.57548" lon="9.08501">
        <ele>1016.73</ele>
        <time>2016-04-25T09:48:25Z</time>
      </trkpt>
      <trkpt lat="41.57545" lon="9.08504">
        <ele>1016.73</ele>
        <time>2016-04-25T09:48:39Z</time>
      </trkpt>
      <trkpt lat="41.57548" lon="9.08514">
        <ele>1017.21</ele>
        <time>2016-04-25T09:48:52Z</time>
      </trkpt>
      <trkpt lat="41.57549" lon="9.08528">
        <ele>1017.69</ele>
        <time>2016-04-25T09:49:07Z</time>
      </trkpt>
      <trkpt lat="41.57551" lon="9.08535">
        <ele>1019.13</ele>
        <time>2016-04-25T09:49:20Z</time>
      </trkpt>
      <trkpt lat="41.5755" lon="9.08538">
        <ele>1017.69</ele>
        <time>2016-04-25T09:49:44Z</time>
      </trkpt>
      <trkpt lat="41.57552" lon="9.08542">
        <ele>1016.25</ele>
        <time>2016-04-25T09:49:56Z</time>
      </trkpt>
      <trkpt lat="41.57556" lon="9.08543">
        <ele>1017.21</ele>
        <time>2016-04-25T09:50:09Z</time>
      </trkpt>
      <trkpt lat="41.57556" lon="9.08545">
        <ele>1015.77</ele>
        <time>2016-04-25T09:50:11Z</time>
      </trkpt>
      <trkpt lat="41.57558" lon="9.08549">
        <ele>1013.37</ele>
        <time>2016-04-25T09:50:23Z</time>
      </trkpt>
      <trkpt lat="41.57561" lon="9.08554">
        <ele>1011.93</ele>
        <time>2016-04-25T09:50:37Z</time>
      </trkpt>
      <trkpt lat="41.57564" lon="9.08557">
        <ele>1009.52</ele>
        <time>2016-04-25T09:50:50Z</time>
      </trkpt>
      <trkpt lat="41.57564" lon="9.08558">
        <ele>1009.52</ele>
        <time>2016-04-25T09:50:51Z</time>
      </trkpt>
      <trkpt lat="41.57566" lon="9.0856">
        <ele>1009.52</ele>
        <time>2016-04-25T09:50:58Z</time>
      </trkpt>
      <trkpt lat="41.57571" lon="9.08559">
        <ele>1007.12</ele>
        <time>2016-04-25T09:51:11Z</time>
      </trkpt>
      <trkpt lat="41.57574" lon="9.0856">
        <ele>1005.68</ele>
        <time>2016-04-25T09:51:20Z</time>
      </trkpt>
      <trkpt lat="41.57573" lon="9.0856">
        <ele>1008.56</ele>
        <time>2016-04-25T09:51:22Z</time>
      </trkpt>
      <trkpt lat="41.57573" lon="9.08561">
        <ele>1007.12</ele>
        <time>2016-04-25T09:51:29Z</time>
      </trkpt>
      <trkpt lat="41.57577" lon="9.08566">
        <ele>1005.68</ele>
        <time>2016-04-25T09:51:40Z</time>
      </trkpt>
      <trkpt lat="41.57584" lon="9.08567">
        <ele>1004.23</ele>
        <time>2016-04-25T09:51:54Z</time>
      </trkpt>
      <trkpt lat="41.57588" lon="9.0857">
        <ele>1003.27</ele>
        <time>2016-04-25T09:52:08Z</time>
      </trkpt>
      <trkpt lat="41.57587" lon="9.08574">
        <ele>1001.35</ele>
        <time>2016-04-25T09:52:20Z</time>
      </trkpt>
      <trkpt lat="41.57588" lon="9.08572">
        <ele>1002.79</ele>
        <time>2016-04-25T09:52:43Z</time>
      </trkpt>
      <trkpt lat="41.57595" lon="9.08574">
        <ele>1003.27</ele>
        <time>2016-04-25T09:52:56Z</time>
      </trkpt>
      <trkpt lat="41.57602" lon="9.08577">
        <ele>1003.27</ele>
        <time>2016-04-25T09:53:11Z</time>
      </trkpt>
      <trkpt lat="41.57603" lon="9.08576">
        <ele>1004.23</ele>
        <time>2016-04-25T09:53:24Z</time>
      </trkpt>
      <trkpt lat="41.57608" lon="9.0858">
        <ele>1003.27</ele>
        <time>2016-04-25T09:53:38Z</time>
      </trkpt>
      <trkpt lat="41.57607" lon="9.08585">
        <ele>1001.83</ele>
        <time>2016-04-25T09:53:51Z</time>
      </trkpt>
      <trkpt lat="41.57605" lon="9.08586">
        <ele>1000.87</ele>
        <time>2016-04-25T09:54:01Z</time>
      </trkpt>
      <trkpt lat="41.57605" lon="9.08591">
        <ele>999.91</ele>
        <time>2016-04-25T09:54:15Z</time>
      </trkpt>
      <trkpt lat="41.57608" lon="9.08593">
        <ele>999.91</ele>
        <time>2016-04-25T09:54:27Z</time>
      </trkpt>
      <trkpt lat="41.57612" lon="9.08594">
        <ele>1001.35</ele>
        <time>2016-04-25T09:54:39Z</time>
      </trkpt>
      <trkpt lat="41.57614" lon="9.086">
        <ele>998.47</ele>
        <time>2016-04-25T09:54:53Z</time>
      </trkpt>
      <trkpt lat="41.57619" lon="9.08605">
        <ele>998.47</ele>
        <time>2016-04-25T09:55:03Z</time>
      </trkpt>
      <trkpt lat="41.57622" lon="9.08614">
        <ele>998.47</ele>
        <time>2016-04-25T09:55:15Z</time>
      </trkpt>
      <trkpt lat="41.57622" lon="9.08618">
        <ele>998.47</ele>
        <time>2016-04-25T09:55:34Z</time>
      </trkpt>
      <trkpt lat="41.57626" lon="9.08618">
        <ele>1000.39</ele>
        <time>2016-04-25T09:55:47Z</time>
      </trkpt>
      <trkpt lat="41.5763" lon="9.08623">
        <ele>1002.31</ele>
        <time>2016-04-25T09:55:59Z</time>
      </trkpt>
      <trkpt lat="41.57633" lon="9.08625">
        <ele>1003.27</ele>
        <time>2016-04-25T09:56:15Z</time>
      </trkpt>
      <trkpt lat="41.57641" lon="9.08631">
        <ele>1005.68</ele>
        <time>2016-04-25T09:56:32Z</time>
      </trkpt>
      <trkpt lat="41.57647" lon="9.08636">
        <ele>1006.64</ele>
        <time>2016-04-25T09:56:45Z</time>
      </trkpt>
      <trkpt lat="41.5765" lon="9.0864">
        <ele>1007.12</ele>
        <time>2016-04-25T09:57:07Z</time>
      </trkpt>
      <trkpt lat="41.57654" lon="9.08639">
        <ele>1009.52</ele>
        <time>2016-04-25T09:57:31Z</time>
      </trkpt>
      <trkpt lat="41.57659" lon="9.08642">
        <ele>1010</ele>
        <time>2016-04-25T09:57:46Z</time>
      </trkpt>
      <trkpt lat="41.57666" lon="9.08647">
        <ele>1010.96</ele>
        <time>2016-04-25T09:58:01Z</time>
      </trkpt>
      <trkpt lat="41.57671" lon="9.0865">
        <ele>1011.44</ele>
        <time>2016-04-25T09:58:11Z</time>
      </trkpt>
      <trkpt lat="41.57676" lon="9.08659">
        <ele>1011.44</ele>
        <time>2016-04-25T09:58:25Z</time>
      </trkpt>
      <trkpt lat="41.57677" lon="9.08661">
        <ele>1011.44</ele>
        <time>2016-04-25T09:58:31Z</time>
      </trkpt>
      <trkpt lat="41.57678" lon="9.08667">
        <ele>1010</ele>
        <time>2016-04-25T09:58:45Z</time>
      </trkpt>
      <trkpt lat="41.57677" lon="9.08672">
        <ele>1009.04</ele>
        <time>2016-04-25T09:59:00Z</time>
      </trkpt>
      <trkpt lat="41.57677" lon="9.0868">
        <ele>1007.6</ele>
        <time>2016-04-25T09:59:16Z</time>
      </trkpt>
      <trkpt lat="41.57673" lon="9.08683">
        <ele>1007.12</ele>
        <time>2016-04-25T09:59:33Z</time>
      </trkpt>
      <trkpt lat="41.57676" lon="9.08689">
        <ele>1006.16</ele>
        <time>2016-04-25T09:59:44Z</time>
      </trkpt>
      <trkpt lat="41.57681" lon="9.08694">
        <ele>1003.75</ele>
        <time>2016-04-25T09:59:58Z</time>
      </trkpt>
      <trkpt lat="41.57686" lon="9.08703">
        <ele>1002.31</ele>
        <time>2016-04-25T10:00:13Z</time>
      </trkpt>
      <trkpt lat="41.57691" lon="9.08714">
        <ele>999.91</ele>
        <time>2016-04-25T10:00:28Z</time>
      </trkpt>
      <trkpt lat="41.57695" lon="9.08729">
        <ele>997.99</ele>
        <time>2016-04-25T10:00:44Z</time>
      </trkpt>
      <trkpt lat="41.57696" lon="9.08734">
        <ele>997.02</ele>
        <time>2016-04-25T10:00:54Z</time>
      </trkpt>
      <trkpt lat="41.57698" lon="9.08741">
        <ele>996.06</ele>
        <time>2016-04-25T10:01:07Z</time>
      </trkpt>
      <trkpt lat="41.57698" lon="9.08743">
        <ele>997.51</ele>
        <time>2016-04-25T10:01:11Z</time>
      </trkpt>
      <trkpt lat="41.57703" lon="9.08744">
        <ele>996.54</ele>
        <time>2016-04-25T10:01:22Z</time>
      </trkpt>
      <trkpt lat="41.57708" lon="9.08747">
        <ele>996.54</ele>
        <time>2016-04-25T10:01:37Z</time>
      </trkpt>
      <trkpt lat="41.57709" lon="9.08753">
        <ele>995.58</ele>
        <time>2016-04-25T10:01:49Z</time>
      </trkpt>
      <trkpt lat="41.57714" lon="9.08757">
        <ele>996.54</ele>
        <time>2016-04-25T10:02:03Z</time>
      </trkpt>
      <trkpt lat="41.57719" lon="9.08758">
        <ele>998.47</ele>
        <time>2016-04-25T10:02:17Z</time>
      </trkpt>
      <trkpt lat="41.57722" lon="9.0876">
        <ele>998.95</ele>
        <time>2016-04-25T10:02:37Z</time>
      </trkpt>
      <trkpt lat="41.57724" lon="9.08767">
        <ele>998.95</ele>
        <time>2016-04-25T10:03:02Z</time>
      </trkpt>
      <trkpt lat="41.57727" lon="9.08769">
        <ele>998.95</ele>
        <time>2016-04-25T10:03:21Z</time>
      </trkpt>
      <trkpt lat="41.57726" lon="9.08767">
        <ele>998.95</ele>
        <time>2016-04-25T10:03:51Z</time>
      </trkpt>
      <trkpt lat="41.5772" lon="9.08766">
        <ele>997.99</ele>
        <time>2016-04-25T10:04:23Z</time>
      </trkpt>
      <trkpt lat="41.57727" lon="9.08765">
        <ele>997.99</ele>
        <time>2016-04-25T10:04:45Z</time>
      </trkpt>
      <trkpt lat="41.57734" lon="9.08767">
        <ele>997.51</ele>
        <time>2016-04-25T10:05:04Z</time>
      </trkpt>
      <trkpt lat="41.57733" lon="9.08766">
        <ele>997.99</ele>
        <time>2016-04-25T10:05:28Z</time>
      </trkpt>
      <trkpt lat="41.57733" lon="9.08768">
        <ele>997.51</ele>
        <time>2016-04-25T10:05:42Z</time>
      </trkpt>
      <trkpt lat="41.57739" lon="9.08769">
        <ele>997.51</ele>
        <time>2016-04-25T10:06:01Z</time>
      </trkpt>
      <trkpt lat="41.57741" lon="9.08776">
        <ele>997.51</ele>
        <time>2016-04-25T10:06:20Z</time>
      </trkpt>
      <trkpt lat="41.57742" lon="9.08781">
        <ele>998.95</ele>
        <time>2016-04-25T10:06:28Z</time>
      </trkpt>
      <trkpt lat="41.57743" lon="9.08789">
        <ele>999.91</ele>
        <time>2016-04-25T10:06:44Z</time>
      </trkpt>
      <trkpt lat="41.57747" lon="9.08792">
        <ele>1000.87</ele>
        <time>2016-04-25T10:07:01Z</time>
      </trkpt>
      <trkpt lat="41.5775" lon="9.08798">
        <ele>1001.83</ele>
        <time>2016-04-25T10:07:18Z</time>
      </trkpt>
      <trkpt lat="41.57752" lon="9.08806">
        <ele>1002.79</ele>
        <time>2016-04-25T10:07:35Z</time>
      </trkpt>
      <trkpt lat="41.57756" lon="9.08811">
        <ele>1004.23</ele>
        <time>2016-04-25T10:07:50Z</time>
      </trkpt>
      <trkpt lat="41.57757" lon="9.08816">
        <ele>1004.72</ele>
        <time>2016-04-25T10:08:06Z</time>
      </trkpt>
      <trkpt lat="41.57756" lon="9.08824">
        <ele>1005.68</ele>
        <time>2016-04-25T10:08:24Z</time>
      </trkpt>
      <trkpt lat="41.57754" lon="9.0883">
        <ele>1006.64</ele>
        <time>2016-04-25T10:08:43Z</time>
      </trkpt>
      <trkpt lat="41.57758" lon="9.08833">
        <ele>1007.12</ele>
        <time>2016-04-25T10:09:04Z</time>
      </trkpt>
      <trkpt lat="41.57762" lon="9.08838">
        <ele>1010.48</ele>
        <time>2016-04-25T10:09:24Z</time>
      </trkpt>
      <trkpt lat="41.57767" lon="9.08837">
        <ele>1010.96</ele>
        <time>2016-04-25T10:09:40Z</time>
      </trkpt>
      <trkpt lat="41.57774" lon="9.08838">
        <ele>1010.96</ele>
        <time>2016-04-25T10:09:56Z</time>
      </trkpt>
      <trkpt lat="41.57783" lon="9.08835">
        <ele>1010.96</ele>
        <time>2016-04-25T10:10:11Z</time>
      </trkpt>
      <trkpt lat="41.57787" lon="9.08838">
        <ele>1012.41</ele>
        <time>2016-04-25T10:10:23Z</time>
      </trkpt>
      <trkpt lat="41.57791" lon="9.08841">
        <ele>1014.33</ele>
        <time>2016-04-25T10:10:36Z</time>
      </trkpt>
      <trkpt lat="41.57796" lon="9.08847">
        <ele>1016.73</ele>
        <time>2016-04-25T10:10:52Z</time>
      </trkpt>
      <trkpt lat="41.57801" lon="9.08854">
        <ele>1018.17</ele>
        <time>2016-04-25T10:11:06Z</time>
      </trkpt>
      <trkpt lat="41.57805" lon="9.08853">
        <ele>1019.13</ele>
        <time>2016-04-25T10:11:18Z</time>
      </trkpt>
      <trkpt lat="41.57806" lon="9.0886">
        <ele>1020.58</ele>
        <time>2016-04-25T10:11:33Z</time>
      </trkpt>
      <trkpt lat="41.57808" lon="9.0886">
        <ele>1021.54</ele>
        <time>2016-04-25T10:11:45Z</time>
      </trkpt>
      <trkpt lat="41.57809" lon="9.08859">
        <ele>1022.02</ele>
        <time>2016-04-25T10:11:51Z</time>
      </trkpt>
      <trkpt lat="41.57814" lon="9.08858">
        <ele>1022.02</ele>
        <time>2016-04-25T10:12:02Z</time>
      </trkpt>
      <trkpt lat="41.57819" lon="9.0886">
        <ele>1023.46</ele>
        <time>2016-04-25T10:12:16Z</time>
      </trkpt>
      <trkpt lat="41.57819" lon="9.0886">
        <ele>1024.9</ele>
        <time>2016-04-25T10:12:40Z</time>
      </trkpt>
      <trkpt lat="41.57821" lon="9.08861">
        <ele>1024.9</ele>
        <time>2016-04-25T10:13:01Z</time>
      </trkpt>
      <trkpt lat="41.57818" lon="9.08858">
        <ele>1023.94</ele>
        <time>2016-04-25T10:13:20Z</time>
      </trkpt>
      <trkpt lat="41.57818" lon="9.08861">
        <ele>1023.46</ele>
        <time>2016-04-25T10:13:51Z</time>
      </trkpt>
      <trkpt lat="41.57819" lon="9.08861">
        <ele>1023.46</ele>
        <time>2016-04-25T10:14:15Z</time>
      </trkpt>
      <trkpt lat="41.57821" lon="9.08856">
        <ele>1024.9</ele>
        <time>2016-04-25T10:14:38Z</time>
      </trkpt>
      <trkpt lat="41.57821" lon="9.08859">
        <ele>1026.34</ele>
        <time>2016-04-25T10:15:06Z</time>
      </trkpt>
      <trkpt lat="41.57825" lon="9.0886">
        <ele>1027.79</ele>
        <time>2016-04-25T10:15:22Z</time>
      </trkpt>
      <trkpt lat="41.57828" lon="9.08861">
        <ele>1029.23</ele>
        <time>2016-04-25T10:15:41Z</time>
      </trkpt>
      <trkpt lat="41.57829" lon="9.08866">
        <ele>1031.15</ele>
        <time>2016-04-25T10:16:02Z</time>
      </trkpt>
      <trkpt lat="41.57834" lon="9.08867">
        <ele>1031.15</ele>
        <time>2016-04-25T10:16:22Z</time>
      </trkpt>
      <trkpt lat="41.57837" lon="9.0887">
        <ele>1032.59</ele>
        <time>2016-04-25T10:16:33Z</time>
      </trkpt>
      <trkpt lat="41.57843" lon="9.08876">
        <ele>1035.48</ele>
        <time>2016-04-25T10:16:53Z</time>
      </trkpt>
      <trkpt lat="41.57846" lon="9.08879">
        <ele>1037.4</ele>
        <time>2016-04-25T10:17:12Z</time>
      </trkpt>
      <trkpt lat="41.57849" lon="9.08885">
        <ele>1040.28</ele>
        <time>2016-04-25T10:17:30Z</time>
      </trkpt>
      <trkpt lat="41.57849" lon="9.08892">
        <ele>1041.73</ele>
        <time>2016-04-25T10:17:47Z</time>
      </trkpt>
      <trkpt lat="41.57844" lon="9.08899">
        <ele>1045.09</ele>
        <time>2016-04-25T10:18:02Z</time>
      </trkpt>
      <trkpt lat="41.57844" lon="9.08902">
        <ele>1045.57</ele>
        <time>2016-04-25T10:18:20Z</time>
      </trkpt>
      <trkpt lat="41.57845" lon="9.08903">
        <ele>1046.53</ele>
        <time>2016-04-25T10:18:36Z</time>
      </trkpt>
      <trkpt lat="41.5784" lon="9.0891">
        <ele>1049.42</ele>
        <time>2016-04-25T10:18:53Z</time>
      </trkpt>
      <trkpt lat="41.5784" lon="9.08914">
        <ele>1049.9</ele>
        <time>2016-04-25T10:19:06Z</time>
      </trkpt>
      <trkpt lat="41.57839" lon="9.08921">
        <ele>1052.78</ele>
        <time>2016-04-25T10:19:19Z</time>
      </trkpt>
      <trkpt lat="41.57839" lon="9.08925">
        <ele>1054.22</ele>
        <time>2016-04-25T10:19:33Z</time>
      </trkpt>
      <trkpt lat="41.57842" lon="9.08929">
        <ele>1055.67</ele>
        <time>2016-04-25T10:19:47Z</time>
      </trkpt>
      <trkpt lat="41.57841" lon="9.08933">
        <ele>1057.11</ele>
        <time>2016-04-25T10:20:02Z</time>
      </trkpt>
      <trkpt lat="41.57842" lon="9.08937">
        <ele>1058.07</ele>
        <time>2016-04-25T10:20:19Z</time>
      </trkpt>
      <trkpt lat="41.57839" lon="9.08941">
        <ele>1058.07</ele>
        <time>2016-04-25T10:20:30Z</time>
      </trkpt>
      <trkpt lat="41.57837" lon="9.08942">
        <ele>1059.03</ele>
        <time>2016-04-25T10:20:46Z</time>
      </trkpt>
      <trkpt lat="41.57834" lon="9.08947">
        <ele>1059.51</ele>
        <time>2016-04-25T10:20:57Z</time>
      </trkpt>
      <trkpt lat="41.57834" lon="9.08954">
        <ele>1060.95</ele>
        <time>2016-04-25T10:21:09Z</time>
      </trkpt>
      <trkpt lat="41.57834" lon="9.08955">
        <ele>1062.39</ele>
        <time>2016-04-25T10:21:11Z</time>
      </trkpt>
      <trkpt lat="41.57832" lon="9.0896">
        <ele>1063.84</ele>
        <time>2016-04-25T10:21:23Z</time>
      </trkpt>
      <trkpt lat="41.57836" lon="9.08963">
        <ele>1064.8</ele>
        <time>2016-04-25T10:21:36Z</time>
      </trkpt>
      <trkpt lat="41.57838" lon="9.08968">
        <ele>1065.28</ele>
        <time>2016-04-25T10:21:52Z</time>
      </trkpt>
      <trkpt lat="41.5784" lon="9.08972">
        <ele>1067.68</ele>
        <time>2016-04-25T10:22:02Z</time>
      </trkpt>
      <trkpt lat="41.57841" lon="9.0898">
        <ele>1068.64</ele>
        <time>2016-04-25T10:22:13Z</time>
      </trkpt>
      <trkpt lat="41.57842" lon="9.08989">
        <ele>1069.6</ele>
        <time>2016-04-25T10:22:25Z</time>
      </trkpt>
      <trkpt lat="41.57846" lon="9.08994">
        <ele>1071.53</ele>
        <time>2016-04-25T10:22:36Z</time>
      </trkpt>
      <trkpt lat="41.5785" lon="9.08997">
        <ele>1072.01</ele>
        <time>2016-04-25T10:22:46Z</time>
      </trkpt>
      <trkpt lat="41.57853" lon="9.09">
        <ele>1072.97</ele>
        <time>2016-04-25T10:22:57Z</time>
      </trkpt>
      <trkpt lat="41.57855" lon="9.09003">
        <ele>1074.89</ele>
        <time>2016-04-25T10:23:11Z</time>
      </trkpt>
      <trkpt lat="41.57859" lon="9.09003">
        <ele>1075.37</ele>
        <time>2016-04-25T10:23:25Z</time>
      </trkpt>
      <trkpt lat="41.5786" lon="9.09002">
        <ele>1075.85</ele>
        <time>2016-04-25T10:23:39Z</time>
      </trkpt>
      <trkpt lat="41.57864" lon="9.08999">
        <ele>1075.85</ele>
        <time>2016-04-25T10:23:58Z</time>
      </trkpt>
      <trkpt lat="41.57868" lon="9.09002">
        <ele>1077.29</ele>
        <time>2016-04-25T10:24:09Z</time>
      </trkpt>
      <trkpt lat="41.57871" lon="9.09003">
        <ele>1078.26</ele>
        <time>2016-04-25T10:24:20Z</time>
      </trkpt>
      <trkpt lat="41.57875" lon="9.09004">
        <ele>1081.14</ele>
        <time>2016-04-25T10:24:33Z</time>
      </trkpt>
      <trkpt lat="41.57878" lon="9.09005">
        <ele>1082.1</ele>
        <time>2016-04-25T10:24:50Z</time>
      </trkpt>
      <trkpt lat="41.57886" lon="9.09001">
        <ele>1084.02</ele>
        <time>2016-04-25T10:25:06Z</time>
      </trkpt>
      <trkpt lat="41.57896" lon="9.08999">
        <ele>1086.43</ele>
        <time>2016-04-25T10:25:26Z</time>
      </trkpt>
      <trkpt lat="41.57902" lon="9.08998">
        <ele>1087.87</ele>
        <time>2016-04-25T10:25:40Z</time>
      </trkpt>
      <trkpt lat="41.57906" lon="9.08993">
        <ele>1088.83</ele>
        <time>2016-04-25T10:25:49Z</time>
      </trkpt>
      <trkpt lat="41.5791" lon="9.08991">
        <ele>1090.27</ele>
        <time>2016-04-25T10:26:01Z</time>
      </trkpt>
      <trkpt lat="41.5791" lon="9.08991">
        <ele>1091.23</ele>
        <time>2016-04-25T10:26:13Z</time>
      </trkpt>
      <trkpt lat="41.57913" lon="9.08992">
        <ele>1092.68</ele>
        <time>2016-04-25T10:26:25Z</time>
      </trkpt>
      <trkpt lat="41.57915" lon="9.08992">
        <ele>1093.64</ele>
        <time>2016-04-25T10:26:38Z</time>
      </trkpt>
      <trkpt lat="41.57914" lon="9.08992">
        <ele>1095.08</ele>
        <time>2016-04-25T10:27:00Z</time>
      </trkpt>
      <trkpt lat="41.57915" lon="9.08994">
        <ele>1095.08</ele>
        <time>2016-04-25T10:27:27Z</time>
      </trkpt>
      <trkpt lat="41.57917" lon="9.08992">
        <ele>1095.56</ele>
        <time>2016-04-25T10:27:44Z</time>
      </trkpt>
      <trkpt lat="41.5792" lon="9.08994">
        <ele>1097.48</ele>
        <time>2016-04-25T10:27:54Z</time>
      </trkpt>
      <trkpt lat="41.57923" lon="9.08991">
        <ele>1097.96</ele>
        <time>2016-04-25T10:28:02Z</time>
      </trkpt>
      <trkpt lat="41.57925" lon="9.0899">
        <ele>1098.92</ele>
        <time>2016-04-25T10:28:12Z</time>
      </trkpt>
      <trkpt lat="41.57928" lon="9.08993">
        <ele>1099.89</ele>
        <time>2016-04-25T10:28:25Z</time>
      </trkpt>
      <trkpt lat="41.57929" lon="9.08995">
        <ele>1101.33</ele>
        <time>2016-04-25T10:28:36Z</time>
      </trkpt>
      <trkpt lat="41.5793" lon="9.08995">
        <ele>1102.29</ele>
        <time>2016-04-25T10:28:57Z</time>
      </trkpt>
      <trkpt lat="41.57935" lon="9.08992">
        <ele>1102.77</ele>
        <time>2016-04-25T10:29:11Z</time>
      </trkpt>
      <trkpt lat="41.5794" lon="9.08991">
        <ele>1105.17</ele>
        <time>2016-04-25T10:29:25Z</time>
      </trkpt>
      <trkpt lat="41.57944" lon="9.08993">
        <ele>1107.58</ele>
        <time>2016-04-25T10:29:39Z</time>
      </trkpt>
      <trkpt lat="41.57949" lon="9.08994">
        <ele>1110.46</ele>
        <time>2016-04-25T10:29:56Z</time>
      </trkpt>
      <trkpt lat="41.57954" lon="9.08996">
        <ele>1110.94</ele>
        <time>2016-04-25T10:30:09Z</time>
      </trkpt>
      <trkpt lat="41.57956" lon="9.08996">
        <ele>1112.86</ele>
        <time>2016-04-25T10:30:23Z</time>
      </trkpt>
      <trkpt lat="41.5796" lon="9.08996">
        <ele>1113.34</ele>
        <time>2016-04-25T10:30:33Z</time>
      </trkpt>
      <trkpt lat="41.57962" lon="9.08996">
        <ele>1114.31</ele>
        <time>2016-04-25T10:30:46Z</time>
      </trkpt>
      <trkpt lat="41.57966" lon="9.08995">
        <ele>1115.75</ele>
        <time>2016-04-25T10:31:00Z</time>
      </trkpt>
      <trkpt lat="41.57967" lon="9.08998">
        <ele>1117.67</ele>
        <time>2016-04-25T10:31:10Z</time>
      </trkpt>
      <trkpt lat="41.57964" lon="9.09003">
        <ele>1118.63</ele>
        <time>2016-04-25T10:31:23Z</time>
      </trkpt>
      <trkpt lat="41.57964" lon="9.09007">
        <ele>1119.59</ele>
        <time>2016-04-25T10:31:36Z</time>
      </trkpt>
      <trkpt lat="41.57967" lon="9.09011">
        <ele>1122</ele>
        <time>2016-04-25T10:31:49Z</time>
      </trkpt>
      <trkpt lat="41.57969" lon="9.09013">
        <ele>1119.59</ele>
        <time>2016-04-25T10:32:12Z</time>
      </trkpt>
      <trkpt lat="41.57972" lon="9.09011">
        <ele>1122</ele>
        <time>2016-04-25T10:32:26Z</time>
      </trkpt>
      <trkpt lat="41.57971" lon="9.09012">
        <ele>1122.48</ele>
        <time>2016-04-25T10:32:48Z</time>
      </trkpt>
      <trkpt lat="41.57974" lon="9.09016">
        <ele>1124.4</ele>
        <time>2016-04-25T10:33:00Z</time>
      </trkpt>
      <trkpt lat="41.57979" lon="9.09015">
        <ele>1125.36</ele>
        <time>2016-04-25T10:33:11Z</time>
      </trkpt>
      <trkpt lat="41.57981" lon="9.09019">
        <ele>1127.28</ele>
        <time>2016-04-25T10:33:24Z</time>
      </trkpt>
      <trkpt lat="41.57986" lon="9.09019">
        <ele>1128.73</ele>
        <time>2016-04-25T10:33:36Z</time>
      </trkpt>
      <trkpt lat="41.5799" lon="9.09017">
        <ele>1130.17</ele>
        <time>2016-04-25T10:33:48Z</time>
      </trkpt>
      <trkpt lat="41.57998" lon="9.09014">
        <ele>1131.61</ele>
        <time>2016-04-25T10:34:01Z</time>
      </trkpt>
      <trkpt lat="41.58001" lon="9.09015">
        <ele>1131.61</ele>
        <time>2016-04-25T10:34:15Z</time>
      </trkpt>
      <trkpt lat="41.58003" lon="9.09016">
        <ele>1134.01</ele>
        <time>2016-04-25T10:34:35Z</time>
      </trkpt>
      <trkpt lat="41.58012" lon="9.09014">
        <ele>1134.97</ele>
        <time>2016-04-25T10:34:46Z</time>
      </trkpt>
      <trkpt lat="41.58017" lon="9.09012">
        <ele>1135.45</ele>
        <time>2016-04-25T10:34:58Z</time>
      </trkpt>
      <trkpt lat="41.58023" lon="9.09011">
        <ele>1136.42</ele>
        <time>2016-04-25T10:35:11Z</time>
      </trkpt>
      <trkpt lat="41.58028" lon="9.09014">
        <ele>1137.38</ele>
        <time>2016-04-25T10:35:21Z</time>
      </trkpt>
      <trkpt lat="41.58032" lon="9.09015">
        <ele>1138.82</ele>
        <time>2016-04-25T10:35:35Z</time>
      </trkpt>
      <trkpt lat="41.58034" lon="9.09013">
        <ele>1138.82</ele>
        <time>2016-04-25T10:35:55Z</time>
      </trkpt>
      <trkpt lat="41.58038" lon="9.09012">
        <ele>1140.26</ele>
        <time>2016-04-25T10:36:08Z</time>
      </trkpt>
      <trkpt lat="41.58042" lon="9.0901">
        <ele>1142.66</ele>
        <time>2016-04-25T10:36:21Z</time>
      </trkpt>
      <trkpt lat="41.58047" lon="9.09009">
        <ele>1144.11</ele>
        <time>2016-04-25T10:36:41Z</time>
      </trkpt>
      <trkpt lat="41.58049" lon="9.09012">
        <ele>1145.07</ele>
        <time>2016-04-25T10:36:59Z</time>
      </trkpt>
      <trkpt lat="41.5805" lon="9.09012">
        <ele>1145.55</ele>
        <time>2016-04-25T10:37:18Z</time>
      </trkpt>
      <trkpt lat="41.5805" lon="9.09014">
        <ele>1145.55</ele>
        <time>2016-04-25T10:37:31Z</time>
      </trkpt>
      <trkpt lat="41.58051" lon="9.09018">
        <ele>1146.99</ele>
        <time>2016-04-25T10:37:45Z</time>
      </trkpt>
      <trkpt lat="41.58051" lon="9.09023">
        <ele>1147.95</ele>
        <time>2016-04-25T10:37:57Z</time>
      </trkpt>
      <trkpt lat="41.58052" lon="9.09025">
        <ele>1149.87</ele>
        <time>2016-04-25T10:38:14Z</time>
      </trkpt>
      <trkpt lat="41.58056" lon="9.09025">
        <ele>1151.8</ele>
        <time>2016-04-25T10:38:26Z</time>
      </trkpt>
      <trkpt lat="41.58059" lon="9.09025">
        <ele>1152.76</ele>
        <time>2016-04-25T10:38:40Z</time>
      </trkpt>
      <trkpt lat="41.58062" lon="9.09024">
        <ele>1154.68</ele>
        <time>2016-04-25T10:38:54Z</time>
      </trkpt>
      <trkpt lat="41.58064" lon="9.09021">
        <ele>1154.68</ele>
        <time>2016-04-25T10:39:07Z</time>
      </trkpt>
      <trkpt lat="41.58065" lon="9.09023">
        <ele>1155.16</ele>
        <time>2016-04-25T10:39:24Z</time>
      </trkpt>
      <trkpt lat="41.58064" lon="9.09026">
        <ele>1155.16</ele>
        <time>2016-04-25T10:39:39Z</time>
      </trkpt>
      <trkpt lat="41.58063" lon="9.09026">
        <ele>1155.16</ele>
        <time>2016-04-25T10:40:05Z</time>
      </trkpt>
      <trkpt lat="41.58064" lon="9.09027">
        <ele>1155.64</ele>
        <time>2016-04-25T10:40:36Z</time>
      </trkpt>
      <trkpt lat="41.58065" lon="9.09025">
        <ele>1155.64</ele>
        <time>2016-04-25T10:41:09Z</time>
      </trkpt>
      <trkpt lat="41.58064" lon="9.09026">
        <ele>1156.12</ele>
        <time>2016-04-25T10:41:36Z</time>
      </trkpt>
      <trkpt lat="41.58064" lon="9.09026">
        <ele>1156.12</ele>
        <time>2016-04-25T10:42:03Z</time>
      </trkpt>
      <trkpt lat="41.58066" lon="9.09026">
        <ele>1156.12</ele>
        <time>2016-04-25T10:42:27Z</time>
      </trkpt>
      <trkpt lat="41.58064" lon="9.09025">
        <ele>1156.12</ele>
        <time>2016-04-25T10:42:57Z</time>
      </trkpt>
      <trkpt lat="41.58063" lon="9.09026">
        <ele>1156.12</ele>
        <time>2016-04-25T10:43:20Z</time>
      </trkpt>
      <trkpt lat="41.58062" lon="9.09028">
        <ele>1156.6</ele>
        <time>2016-04-25T10:43:53Z</time>
      </trkpt>
      <trkpt lat="41.58062" lon="9.09026">
        <ele>1155.16</ele>
        <time>2016-04-25T10:44:29Z</time>
      </trkpt>
      <trkpt lat="41.58066" lon="9.09026">
        <ele>1156.6</ele>
        <time>2016-04-25T10:45:10Z</time>
      </trkpt>
      <trkpt lat="41.58065" lon="9.09025">
        <ele>1156.6</ele>
        <time>2016-04-25T10:45:44Z</time>
      </trkpt>
      <trkpt lat="41.58065" lon="9.09025">
        <ele>1155.64</ele>
        <time>2016-04-25T10:45:58Z</time>
      </trkpt>
      <trkpt lat="41.58063" lon="9.09025">
        <ele>1155.64</ele>
        <time>2016-04-25T10:46:33Z</time>
      </trkpt>
      <trkpt lat="41.58063" lon="9.09024">
        <ele>1155.64</ele>
        <time>2016-04-25T10:47:07Z</time>
      </trkpt>
      <trkpt lat="41.58063" lon="9.09023">
        <ele>1154.68</ele>
        <time>2016-04-25T10:47:27Z</time>
      </trkpt>
      <trkpt lat="41.58063" lon="9.09025">
        <ele>1155.16</ele>
        <time>2016-04-25T10:47:38Z</time>
      </trkpt>
      <trkpt lat="41.58063" lon="9.09025">
        <ele>1156.12</ele>
        <time>2016-04-25T10:47:46Z</time>
      </trkpt>
      <trkpt lat="41.58062" lon="9.09027">
        <ele>1156.12</ele>
        <time>2016-04-25T10:48:22Z</time>
      </trkpt>
      <trkpt lat="41.58061" lon="9.09026">
        <ele>1156.6</ele>
        <time>2016-04-25T10:48:57Z</time>
      </trkpt>
      <trkpt lat="41.58062" lon="9.09028">
        <ele>1157.08</ele>
        <time>2016-04-25T10:49:33Z</time>
      </trkpt>
      <trkpt lat="41.58062" lon="9.09029">
        <ele>1157.08</ele>
        <time>2016-04-25T10:49:56Z</time>
      </trkpt>
      <trkpt lat="41.58063" lon="9.09027">
        <ele>1157.08</ele>
        <time>2016-04-25T10:50:31Z</time>
      </trkpt>
      <trkpt lat="41.58063" lon="9.09028">
        <ele>1157.08</ele>
        <time>2016-04-25T10:50:58Z</time>
      </trkpt>
      <trkpt lat="41.58063" lon="9.09028">
        <ele>1157.56</ele>
        <time>2016-04-25T10:51:23Z</time>
      </trkpt>
      <trkpt lat="41.58063" lon="9.09029">
        <ele>1157.56</ele>
        <time>2016-04-25T10:51:56Z</time>
      </trkpt>
      <trkpt lat="41.58063" lon="9.09028">
        <ele>1157.08</ele>
        <time>2016-04-25T10:52:29Z</time>
      </trkpt>
      <trkpt lat="41.58063" lon="9.0903">
        <ele>1156.12</ele>
        <time>2016-04-25T10:52:51Z</time>
      </trkpt>
      <trkpt lat="41.58064" lon="9.0903">
        <ele>1156.12</ele>
        <time>2016-04-25T10:53:23Z</time>
      </trkpt>
      <trkpt lat="41.58063" lon="9.09029">
        <ele>1157.08</ele>
        <time>2016-04-25T10:53:50Z</time>
      </trkpt>
      <trkpt lat="41.58063" lon="9.09029">
        <ele>1157.56</ele>
        <time>2016-04-25T10:54:22Z</time>
      </trkpt>
      <trkpt lat="41.58063" lon="9.09029">
        <ele>1157.56</ele>
        <time>2016-04-25T10:54:50Z</time>
      </trkpt>
      <trkpt lat="41.58062" lon="9.09029">
        <ele>1157.56</ele>
        <time>2016-04-25T10:55:21Z</time>
      </trkpt>
      <trkpt lat="41.58062" lon="9.09028">
        <ele>1158.05</ele>
        <time>2016-04-25T10:55:58Z</time>
      </trkpt>
      <trkpt lat="41.58062" lon="9.09029">
        <ele>1158.05</ele>
        <time>2016-04-25T10:56:27Z</time>
      </trkpt>
      <trkpt lat="41.58063" lon="9.09028">
        <ele>1157.08</ele>
        <time>2016-04-25T10:56:51Z</time>
      </trkpt>
      <trkpt lat="41.58061" lon="9.09024">
        <ele>1157.56</ele>
        <time>2016-04-25T10:57:14Z</time>
      </trkpt>
      <trkpt lat="41.58061" lon="9.09024">
        <ele>1156.12</ele>
        <time>2016-04-25T10:57:43Z</time>
      </trkpt>
      <trkpt lat="41.5806" lon="9.09024">
        <ele>1157.08</ele>
        <time>2016-04-25T10:58:26Z</time>
      </trkpt>
      <trkpt lat="41.5806" lon="9.09025">
        <ele>1157.56</ele>
        <time>2016-04-25T10:58:57Z</time>
      </trkpt>
      <trkpt lat="41.58061" lon="9.09026">
        <ele>1157.56</ele>
        <time>2016-04-25T10:59:27Z</time>
      </trkpt>
      <trkpt lat="41.58061" lon="9.09026">
        <ele>1157.56</ele>
        <time>2016-04-25T11:00:02Z</time>
      </trkpt>
      <trkpt lat="41.5806" lon="9.09026">
        <ele>1157.56</ele>
        <time>2016-04-25T11:00:44Z</time>
      </trkpt>
      <trkpt lat="41.58061" lon="9.09028">
        <ele>1157.56</ele>
        <time>2016-04-25T11:01:14Z</time>
      </trkpt>
      <trkpt lat="41.58062" lon="9.09024">
        <ele>1158.53</ele>
        <time>2016-04-25T11:01:42Z</time>
      </trkpt>
      <trkpt lat="41.5806" lon="9.09021">
        <ele>1158.53</ele>
        <time>2016-04-25T11:02:17Z</time>
      </trkpt>
      <trkpt lat="41.5806" lon="9.09025">
        <ele>1158.05</ele>
        <time>2016-04-25T11:02:56Z</time>
      </trkpt>
      <trkpt lat="41.5806" lon="9.09023">
        <ele>1157.56</ele>
        <time>2016-04-25T11:03:11Z</time>
      </trkpt>
      <trkpt lat="41.58059" lon="9.09023">
        <ele>1157.56</ele>
        <time>2016-04-25T11:03:36Z</time>
      </trkpt>
      <trkpt lat="41.58061" lon="9.09022">
        <ele>1157.56</ele>
        <time>2016-04-25T11:04:08Z</time>
      </trkpt>
      <trkpt lat="41.58061" lon="9.09024">
        <ele>1159.01</ele>
        <time>2016-04-25T11:04:47Z</time>
      </trkpt>
      <trkpt lat="41.5806" lon="9.09023">
        <ele>1159.01</ele>
        <time>2016-04-25T11:05:26Z</time>
      </trkpt>
      <trkpt lat="41.5806" lon="9.09024">
        <ele>1159.01</ele>
        <time>2016-04-25T11:05:57Z</time>
      </trkpt>
      <trkpt lat="41.58061" lon="9.09025">
        <ele>1157.08</ele>
        <time>2016-04-25T11:06:48Z</time>
      </trkpt>
      <trkpt lat="41.58061" lon="9.09025">
        <ele>1158.53</ele>
        <time>2016-04-25T11:06:57Z</time>
      </trkpt>
      <trkpt lat="41.58062" lon="9.09025">
        <ele>1158.53</ele>
        <time>2016-04-25T11:07:37Z</time>
      </trkpt>
      <trkpt lat="41.5806" lon="9.09026">
        <ele>1158.53</ele>
        <time>2016-04-25T11:08:09Z</time>
      </trkpt>
      <trkpt lat="41.58061" lon="9.09024">
        <ele>1159.01</ele>
        <time>2016-04-25T11:08:47Z</time>
      </trkpt>
      <trkpt lat="41.5806" lon="9.09025">
        <ele>1159.01</ele>
        <time>2016-04-25T11:09:19Z</time>
      </trkpt>
      <trkpt lat="41.5806" lon="9.09025">
        <ele>1157.56</ele>
        <time>2016-04-25T11:09:22Z</time>
      </trkpt>
      <trkpt lat="41.58061" lon="9.09025">
        <ele>1159.01</ele>
        <time>2016-04-25T11:09:28Z</time>
      </trkpt>
      <trkpt lat="41.58061" lon="9.09027">
        <ele>1158.05</ele>
        <time>2016-04-25T11:10:01Z</time>
      </trkpt>
      <trkpt lat="41.58062" lon="9.09028">
        <ele>1158.05</ele>
        <time>2016-04-25T11:10:35Z</time>
      </trkpt>
      <trkpt lat="41.58062" lon="9.09026">
        <ele>1158.05</ele>
        <time>2016-04-25T11:11:13Z</time>
      </trkpt>
      <trkpt lat="41.58063" lon="9.09027">
        <ele>1159.01</ele>
        <time>2016-04-25T11:11:52Z</time>
      </trkpt>
      <trkpt lat="41.58062" lon="9.09031">
        <ele>1159.01</ele>
        <time>2016-04-25T11:12:28Z</time>
      </trkpt>
      <trkpt lat="41.58062" lon="9.09028">
        <ele>1157.56</ele>
        <time>2016-04-25T11:13:07Z</time>
      </trkpt>
      <trkpt lat="41.58062" lon="9.09029">
        <ele>1157.56</ele>
        <time>2016-04-25T11:13:35Z</time>
      </trkpt>
      <trkpt lat="41.58062" lon="9.09029">
        <ele>1157.56</ele>
        <time>2016-04-25T11:14:13Z</time>
      </trkpt>
      <trkpt lat="41.58061" lon="9.09028">
        <ele>1157.56</ele>
        <time>2016-04-25T11:14:43Z</time>
      </trkpt>
      <trkpt lat="41.58061" lon="9.09026">
        <ele>1159.01</ele>
        <time>2016-04-25T11:14:51Z</time>
      </trkpt>
      <trkpt lat="41.58061" lon="9.09029">
        <ele>1159.01</ele>
        <time>2016-04-25T11:15:31Z</time>
      </trkpt>
      <trkpt lat="41.58062" lon="9.09027">
        <ele>1159.49</ele>
        <time>2016-04-25T11:16:05Z</time>
      </trkpt>
      <trkpt lat="41.58062" lon="9.09028">
        <ele>1158.53</ele>
        <time>2016-04-25T11:16:44Z</time>
      </trkpt>
      <trkpt lat="41.58062" lon="9.09027">
        <ele>1159.01</ele>
        <time>2016-04-25T11:17:13Z</time>
      </trkpt>
      <trkpt lat="41.58061" lon="9.09027">
        <ele>1158.53</ele>
        <time>2016-04-25T11:18:05Z</time>
      </trkpt>
      <trkpt lat="41.58061" lon="9.09027">
        <ele>1158.53</ele>
        <time>2016-04-25T11:18:50Z</time>
      </trkpt>
      <trkpt lat="41.58062" lon="9.09025">
        <ele>1158.53</ele>
        <time>2016-04-25T11:19:20Z</time>
      </trkpt>
      <trkpt lat="41.58062" lon="9.09024">
        <ele>1158.53</ele>
        <time>2016-04-25T11:19:42Z</time>
      </trkpt>
      <trkpt lat="41.58063" lon="9.09023">
        <ele>1158.53</ele>
        <time>2016-04-25T11:20:10Z</time>
      </trkpt>
      <trkpt lat="41.58063" lon="9.09022">
        <ele>1158.53</ele>
        <time>2016-04-25T11:20:28Z</time>
      </trkpt>
      <trkpt lat="41.58062" lon="9.09023">
        <ele>1158.05</ele>
        <time>2016-04-25T11:21:01Z</time>
      </trkpt>
      <trkpt lat="41.58062" lon="9.09024">
        <ele>1158.05</ele>
        <time>2016-04-25T11:21:17Z</time>
      </trkpt>
      <trkpt lat="41.58062" lon="9.09023">
        <ele>1158.05</ele>
        <time>2016-04-25T11:21:35Z</time>
      </trkpt>
      <trkpt lat="41.58062" lon="9.09023">
        <ele>1159.01</ele>
        <time>2016-04-25T11:21:51Z</time>
      </trkpt>
      <trkpt lat="41.58064" lon="9.09028">
        <ele>1159.01</ele>
        <time>2016-04-25T11:22:16Z</time>
      </trkpt>
      <trkpt lat="41.58063" lon="9.09027">
        <ele>1159.01</ele>
        <time>2016-04-25T11:22:47Z</time>
      </trkpt>
      <trkpt lat="41.58063" lon="9.09026">
        <ele>1158.05</ele>
        <time>2016-04-25T11:23:14Z</time>
      </trkpt>
      <trkpt lat="41.58063" lon="9.09024">
        <ele>1158.05</ele>
        <time>2016-04-25T11:23:28Z</time>
      </trkpt>
      <trkpt lat="41.58062" lon="9.09022">
        <ele>1158.05</ele>
        <time>2016-04-25T11:23:45Z</time>
      </trkpt>
      <trkpt lat="41.58063" lon="9.09021">
        <ele>1159.49</ele>
        <time>2016-04-25T11:24:05Z</time>
      </trkpt>
      <trkpt lat="41.58063" lon="9.09024">
        <ele>1159.49</ele>
        <time>2016-04-25T11:24:23Z</time>
      </trkpt>
      <trkpt lat="41.58063" lon="9.09024">
        <ele>1158.05</ele>
        <time>2016-04-25T11:24:28Z</time>
      </trkpt>
      <trkpt lat="41.58063" lon="9.09021">
        <ele>1158.05</ele>
        <time>2016-04-25T11:24:42Z</time>
      </trkpt>
      <trkpt lat="41.58063" lon="9.09024">
        <ele>1157.56</ele>
        <time>2016-04-25T11:24:59Z</time>
      </trkpt>
      <trkpt lat="41.58063" lon="9.09023">
        <ele>1157.56</ele>
        <time>2016-04-25T11:25:16Z</time>
      </trkpt>
      <trkpt lat="41.58062" lon="9.09023">
        <ele>1157.56</ele>
        <time>2016-04-25T11:25:32Z</time>
      </trkpt>
      <trkpt lat="41.58063" lon="9.09024">
        <ele>1157.08</ele>
        <time>2016-04-25T11:25:46Z</time>
      </trkpt>
      <trkpt lat="41.58064" lon="9.09025">
        <ele>1158.53</ele>
        <time>2016-04-25T11:26:02Z</time>
      </trkpt>
      <trkpt lat="41.58066" lon="9.09025">
        <ele>1158.53</ele>
        <time>2016-04-25T11:26:18Z</time>
      </trkpt>
      <trkpt lat="41.58064" lon="9.09024">
        <ele>1158.53</ele>
        <time>2016-04-25T11:26:39Z</time>
      </trkpt>
      <trkpt lat="41.58064" lon="9.09024">
        <ele>1157.08</ele>
        <time>2016-04-25T11:26:44Z</time>
      </trkpt>
      <trkpt lat="41.58065" lon="9.09025">
        <ele>1157.08</ele>
        <time>2016-04-25T11:27:06Z</time>
      </trkpt>
      <trkpt lat="41.58064" lon="9.09024">
        <ele>1158.53</ele>
        <time>2016-04-25T11:27:13Z</time>
      </trkpt>
      <trkpt lat="41.58064" lon="9.09024">
        <ele>1159.49</ele>
        <time>2016-04-25T11:27:38Z</time>
      </trkpt>
      <trkpt lat="41.58062" lon="9.09023">
        <ele>1157.08</ele>
        <time>2016-04-25T11:28:01Z</time>
      </trkpt>
      <trkpt lat="41.58062" lon="9.09023">
        <ele>1158.53</ele>
        <time>2016-04-25T11:28:06Z</time>
      </trkpt>
      <trkpt lat="41.58062" lon="9.09024">
        <ele>1159.01</ele>
        <time>2016-04-25T11:28:24Z</time>
      </trkpt>
      <trkpt lat="41.58062" lon="9.09025">
        <ele>1159.01</ele>
        <time>2016-04-25T11:28:43Z</time>
      </trkpt>
      <trkpt lat="41.58063" lon="9.09025">
        <ele>1157.56</ele>
        <time>2016-04-25T11:29:01Z</time>
      </trkpt>
      <trkpt lat="41.58063" lon="9.09025">
        <ele>1156.6</ele>
        <time>2016-04-25T11:29:17Z</time>
      </trkpt>
      <trkpt lat="41.58063" lon="9.09025">
        <ele>1158.05</ele>
        <time>2016-04-25T11:29:26Z</time>
      </trkpt>
      <trkpt lat="41.58062" lon="9.09027">
        <ele>1158.53</ele>
        <time>2016-04-25T11:29:45Z</time>
      </trkpt>
      <trkpt lat="41.58061" lon="9.09026">
        <ele>1157.56</ele>
        <time>2016-04-25T11:30:05Z</time>
      </trkpt>
      <trkpt lat="41.5806" lon="9.09025">
        <ele>1157.56</ele>
        <time>2016-04-25T11:30:39Z</time>
      </trkpt>
      <trkpt lat="41.5806" lon="9.09053">
        <ele>1159.01</ele>
        <time>2016-04-25T11:31:01Z</time>
      </trkpt>
      <trkpt lat="41.58067" lon="9.09095">
        <ele>1159.97</ele>
        <time>2016-04-25T11:31:22Z</time>
      </trkpt>
      <trkpt lat="41.58069" lon="9.09096">
        <ele>1158.05</ele>
        <time>2016-04-25T11:31:42Z</time>
      </trkpt>
      <trkpt lat="41.5807" lon="9.09096">
        <ele>1158.05</ele>
        <time>2016-04-25T11:31:58Z</time>
      </trkpt>
      <trkpt lat="41.58076" lon="9.09094">
        <ele>1157.08</ele>
        <time>2016-04-25T11:32:12Z</time>
      </trkpt>
      <trkpt lat="41.58087" lon="9.09093">
        <ele>1157.08</ele>
        <time>2016-04-25T11:32:26Z</time>
      </trkpt>
      <trkpt lat="41.58093" lon="9.09089">
        <ele>1157.08</ele>
        <time>2016-04-25T11:32:40Z</time>
      </trkpt>
      <trkpt lat="41.58095" lon="9.09088">
        <ele>1158.05</ele>
        <time>2016-04-25T11:32:44Z</time>
      </trkpt>
      <trkpt lat="41.58098" lon="9.09088">
        <ele>1159.49</ele>
        <time>2016-04-25T11:33:00Z</time>
      </trkpt>
      <trkpt lat="41.58103" lon="9.09085">
        <ele>1160.93</ele>
        <time>2016-04-25T11:33:11Z</time>
      </trkpt>
      <trkpt lat="41.5811" lon="9.09081">
        <ele>1163.33</ele>
        <time>2016-04-25T11:33:26Z</time>
      </trkpt>
      <trkpt lat="41.58113" lon="9.09079">
        <ele>1163.81</ele>
        <time>2016-04-25T11:33:42Z</time>
      </trkpt>
      <trkpt lat="41.58117" lon="9.09077">
        <ele>1164.29</ele>
        <time>2016-04-25T11:33:43Z</time>
      </trkpt>
      <trkpt lat="41.5811" lon="9.09074">
        <ele>1164.77</ele>
        <time>2016-04-25T11:34:01Z</time>
      </trkpt>
      <trkpt lat="41.58106" lon="9.09066">
        <ele>1164.29</ele>
        <time>2016-04-25T11:34:24Z</time>
      </trkpt>
      <trkpt lat="41.58106" lon="9.09062">
        <ele>1165.74</ele>
        <time>2016-04-25T11:34:38Z</time>
      </trkpt>
      <trkpt lat="41.58104" lon="9.09019">
        <ele>1166.7</ele>
        <time>2016-04-25T11:34:56Z</time>
      </trkpt>
      <trkpt lat="41.58103" lon="9.08996">
        <ele>1165.74</ele>
        <time>2016-04-25T11:35:13Z</time>
      </trkpt>
      <trkpt lat="41.58103" lon="9.08995">
        <ele>1167.18</ele>
        <time>2016-04-25T11:35:22Z</time>
      </trkpt>
      <trkpt lat="41.58107" lon="9.08987">
        <ele>1167.66</ele>
        <time>2016-04-25T11:35:36Z</time>
      </trkpt>
      <trkpt lat="41.58107" lon="9.08984">
        <ele>1167.66</ele>
        <time>2016-04-25T11:35:55Z</time>
      </trkpt>
      <trkpt lat="41.58108" lon="9.08979">
        <ele>1166.7</ele>
        <time>2016-04-25T11:36:12Z</time>
      </trkpt>
      <trkpt lat="41.58109" lon="9.08975">
        <ele>1166.7</ele>
        <time>2016-04-25T11:36:27Z</time>
      </trkpt>
      <trkpt lat="41.5811" lon="9.08976">
        <ele>1168.14</ele>
        <time>2016-04-25T11:36:34Z</time>
      </trkpt>
      <trkpt lat="41.58111" lon="9.08977">
        <ele>1169.1</ele>
        <time>2016-04-25T11:36:54Z</time>
      </trkpt>
      <trkpt lat="41.58112" lon="9.08982">
        <ele>1168.14</ele>
        <time>2016-04-25T11:37:14Z</time>
      </trkpt>
      <trkpt lat="41.58115" lon="9.08977">
        <ele>1167.66</ele>
        <time>2016-04-25T11:37:41Z</time>
      </trkpt>
      <trkpt lat="41.58115" lon="9.08985">
        <ele>1167.66</ele>
        <time>2016-04-25T11:38:07Z</time>
      </trkpt>
      <trkpt lat="41.58115" lon="9.08983">
        <ele>1166.7</ele>
        <time>2016-04-25T11:38:24Z</time>
      </trkpt>
      <trkpt lat="41.58113" lon="9.08979">
        <ele>1165.74</ele>
        <time>2016-04-25T11:38:41Z</time>
      </trkpt>
      <trkpt lat="41.58113" lon="9.08976">
        <ele>1164.77</ele>
        <time>2016-04-25T11:38:56Z</time>
      </trkpt>
      <trkpt lat="41.58111" lon="9.08974">
        <ele>1164.77</ele>
        <time>2016-04-25T11:39:12Z</time>
      </trkpt>
      <trkpt lat="41.58111" lon="9.08972">
        <ele>1164.77</ele>
        <time>2016-04-25T11:39:29Z</time>
      </trkpt>
      <trkpt lat="41.58112" lon="9.08969">
        <ele>1164.29</ele>
        <time>2016-04-25T11:39:44Z</time>
      </trkpt>
      <trkpt lat="41.58113" lon="9.08966">
        <ele>1165.26</ele>
        <time>2016-04-25T11:40:01Z</time>
      </trkpt>
      <trkpt lat="41.58113" lon="9.08961">
        <ele>1166.22</ele>
        <time>2016-04-25T11:40:15Z</time>
      </trkpt>
      <trkpt lat="41.58115" lon="9.08959">
        <ele>1166.22</ele>
        <time>2016-04-25T11:40:32Z</time>
      </trkpt>
      <trkpt lat="41.58118" lon="9.08959">
        <ele>1165.74</ele>
        <time>2016-04-25T11:40:53Z</time>
      </trkpt>
      <trkpt lat="41.58119" lon="9.08959">
        <ele>1165.74</ele>
        <time>2016-04-25T11:41:14Z</time>
      </trkpt>
      <trkpt lat="41.58117" lon="9.08954">
        <ele>1166.22</ele>
        <time>2016-04-25T11:41:35Z</time>
      </trkpt>
      <trkpt lat="41.58115" lon="9.08957">
        <ele>1166.22</ele>
        <time>2016-04-25T11:42:00Z</time>
      </trkpt>
      <trkpt lat="41.58109" lon="9.08958">
        <ele>1165.74</ele>
        <time>2016-04-25T11:42:22Z</time>
      </trkpt>
      <trkpt lat="41.58104" lon="9.08959">
        <ele>1165.74</ele>
        <time>2016-04-25T11:42:44Z</time>
      </trkpt>
      <trkpt lat="41.58106" lon="9.08956">
        <ele>1165.74</ele>
        <time>2016-04-25T11:43:07Z</time>
      </trkpt>
      <trkpt lat="41.5811" lon="9.08957">
        <ele>1165.74</ele>
        <time>2016-04-25T11:43:26Z</time>
      </trkpt>
      <trkpt lat="41.58114" lon="9.08956">
        <ele>1165.26</ele>
        <time>2016-04-25T11:43:52Z</time>
      </trkpt>
      <trkpt lat="41.58111" lon="9.08958">
        <ele>1165.26</ele>
        <time>2016-04-25T11:44:14Z</time>
      </trkpt>
      <trkpt lat="41.58109" lon="9.08959">
        <ele>1165.26</ele>
        <time>2016-04-25T11:44:42Z</time>
      </trkpt>
      <trkpt lat="41.58114" lon="9.08959">
        <ele>1163.81</ele>
        <time>2016-04-25T11:45:14Z</time>
      </trkpt>
      <trkpt lat="41.58112" lon="9.08959">
        <ele>1163.81</ele>
        <time>2016-04-25T11:45:37Z</time>
      </trkpt>
      <trkpt lat="41.5811" lon="9.08956">
        <ele>1162.85</ele>
        <time>2016-04-25T11:46:01Z</time>
      </trkpt>
      <trkpt lat="41.58111" lon="9.08951">
        <ele>1161.41</ele>
        <time>2016-04-25T11:46:15Z</time>
      </trkpt>
      <trkpt lat="41.58113" lon="9.08945">
        <ele>1160.45</ele>
        <time>2016-04-25T11:46:29Z</time>
      </trkpt>
      <trkpt lat="41.58115" lon="9.08935">
        <ele>1159.49</ele>
        <time>2016-04-25T11:46:45Z</time>
      </trkpt>
      <trkpt lat="41.58116" lon="9.08925">
        <ele>1158.05</ele>
        <time>2016-04-25T11:46:59Z</time>
      </trkpt>
      <trkpt lat="41.58114" lon="9.08918">
        <ele>1157.56</ele>
        <time>2016-04-25T11:47:17Z</time>
      </trkpt>
      <trkpt lat="41.5811" lon="9.08914">
        <ele>1156.6</ele>
        <time>2016-04-25T11:47:42Z</time>
      </trkpt>
      <trkpt lat="41.58112" lon="9.0891">
        <ele>1156.6</ele>
        <time>2016-04-25T11:47:59Z</time>
      </trkpt>
      <trkpt lat="41.58113" lon="9.08907">
        <ele>1158.05</ele>
        <time>2016-04-25T11:48:06Z</time>
      </trkpt>
      <trkpt lat="41.58116" lon="9.08905">
        <ele>1160.93</ele>
        <time>2016-04-25T11:48:21Z</time>
      </trkpt>
      <trkpt lat="41.58119" lon="9.08898">
        <ele>1163.81</ele>
        <time>2016-04-25T11:48:39Z</time>
      </trkpt>
      <trkpt lat="41.58115" lon="9.08895">
        <ele>1164.29</ele>
        <time>2016-04-25T11:48:51Z</time>
      </trkpt>
      <trkpt lat="41.58116" lon="9.08891">
        <ele>1166.7</ele>
        <time>2016-04-25T11:49:05Z</time>
      </trkpt>
      <trkpt lat="41.58121" lon="9.08884">
        <ele>1168.14</ele>
        <time>2016-04-25T11:49:22Z</time>
      </trkpt>
      <trkpt lat="41.58122" lon="9.08885">
        <ele>1168.62</ele>
        <time>2016-04-25T11:49:36Z</time>
      </trkpt>
      <trkpt lat="41.58123" lon="9.08886">
        <ele>1168.62</ele>
        <time>2016-04-25T11:49:59Z</time>
      </trkpt>
      <trkpt lat="41.58128" lon="9.08881">
        <ele>1170.54</ele>
        <time>2016-04-25T11:50:12Z</time>
      </trkpt>
      <trkpt lat="41.58133" lon="9.08876">
        <ele>1172.95</ele>
        <time>2016-04-25T11:50:25Z</time>
      </trkpt>
      <trkpt lat="41.58139" lon="9.08869">
        <ele>1175.83</ele>
        <time>2016-04-25T11:50:43Z</time>
      </trkpt>
      <trkpt lat="41.58145" lon="9.08859">
        <ele>1176.79</ele>
        <time>2016-04-25T11:50:57Z</time>
      </trkpt>
      <trkpt lat="41.58147" lon="9.08851">
        <ele>1177.27</ele>
        <time>2016-04-25T11:51:11Z</time>
      </trkpt>
      <trkpt lat="41.5815" lon="9.08844">
        <ele>1179.19</ele>
        <time>2016-04-25T11:51:26Z</time>
      </trkpt>
      <trkpt lat="41.58159" lon="9.08834">
        <ele>1181.6</ele>
        <time>2016-04-25T11:51:41Z</time>
      </trkpt>
      <trkpt lat="41.58163" lon="9.08831">
        <ele>1183.52</ele>
        <time>2016-04-25T11:51:55Z</time>
      </trkpt>
      <trkpt lat="41.58167" lon="9.08832">
        <ele>1185.44</ele>
        <time>2016-04-25T11:52:09Z</time>
      </trkpt>
      <trkpt lat="41.58175" lon="9.08823">
        <ele>1186.88</ele>
        <time>2016-04-25T11:52:26Z</time>
      </trkpt>
      <trkpt lat="41.5818" lon="9.08813">
        <ele>1188.33</ele>
        <time>2016-04-25T11:52:39Z</time>
      </trkpt>
      <trkpt lat="41.58189" lon="9.08804">
        <ele>1189.29</ele>
        <time>2016-04-25T11:52:53Z</time>
      </trkpt>
      <trkpt lat="41.58193" lon="9.08799">
        <ele>1190.25</ele>
        <time>2016-04-25T11:53:07Z</time>
      </trkpt>
      <trkpt lat="41.58195" lon="9.08794">
        <ele>1191.21</ele>
        <time>2016-04-25T11:53:22Z</time>
      </trkpt>
      <trkpt lat="41.58196" lon="9.08794">
        <ele>1191.21</ele>
        <time>2016-04-25T11:53:39Z</time>
      </trkpt>
      <trkpt lat="41.58197" lon="9.08792">
        <ele>1191.21</ele>
        <time>2016-04-25T11:54:02Z</time>
      </trkpt>
      <trkpt lat="41.58197" lon="9.08788">
        <ele>1191.69</ele>
        <time>2016-04-25T11:54:24Z</time>
      </trkpt>
      <trkpt lat="41.58195" lon="9.08788">
        <ele>1191.69</ele>
        <time>2016-04-25T11:54:46Z</time>
      </trkpt>
      <trkpt lat="41.58198" lon="9.0879">
        <ele>1192.17</ele>
        <time>2016-04-25T11:55:01Z</time>
      </trkpt>
      <trkpt lat="41.58201" lon="9.08788">
        <ele>1193.61</ele>
        <time>2016-04-25T11:55:13Z</time>
      </trkpt>
      <trkpt lat="41.58205" lon="9.08787">
        <ele>1195.54</ele>
        <time>2016-04-25T11:55:27Z</time>
      </trkpt>
      <trkpt lat="41.5821" lon="9.08782">
        <ele>1196.02</ele>
        <time>2016-04-25T11:55:45Z</time>
      </trkpt>
      <trkpt lat="41.58215" lon="9.08777">
        <ele>1197.94</ele>
        <time>2016-04-25T11:56:01Z</time>
      </trkpt>
      <trkpt lat="41.58218" lon="9.08771">
        <ele>1198.42</ele>
        <time>2016-04-25T11:56:14Z</time>
      </trkpt>
      <trkpt lat="41.58222" lon="9.08769">
        <ele>1201.3</ele>
        <time>2016-04-25T11:56:26Z</time>
      </trkpt>
      <trkpt lat="41.58225" lon="9.08767">
        <ele>1201.79</ele>
        <time>2016-04-25T11:56:38Z</time>
      </trkpt>
      <trkpt lat="41.58233" lon="9.08763">
        <ele>1204.67</ele>
        <time>2016-04-25T11:56:51Z</time>
      </trkpt>
      <trkpt lat="41.58238" lon="9.08755">
        <ele>1205.63</ele>
        <time>2016-04-25T11:57:04Z</time>
      </trkpt>
      <trkpt lat="41.58246" lon="9.08749">
        <ele>1206.59</ele>
        <time>2016-04-25T11:57:16Z</time>
      </trkpt>
      <trkpt lat="41.58252" lon="9.08742">
        <ele>1207.55</ele>
        <time>2016-04-25T11:57:30Z</time>
      </trkpt>
      <trkpt lat="41.58259" lon="9.08739">
        <ele>1207.55</ele>
        <time>2016-04-25T11:57:41Z</time>
      </trkpt>
      <trkpt lat="41.58266" lon="9.08731">
        <ele>1209.48</ele>
        <time>2016-04-25T11:57:57Z</time>
      </trkpt>
      <trkpt lat="41.58274" lon="9.08727">
        <ele>1211.88</ele>
        <time>2016-04-25T11:58:13Z</time>
      </trkpt>
      <trkpt lat="41.58281" lon="9.08723">
        <ele>1212.84</ele>
        <time>2016-04-25T11:58:28Z</time>
      </trkpt>
      <trkpt lat="41.58286" lon="9.0872">
        <ele>1213.32</ele>
        <time>2016-04-25T11:58:44Z</time>
      </trkpt>
      <trkpt lat="41.58288" lon="9.08724">
        <ele>1215.24</ele>
        <time>2016-04-25T11:58:58Z</time>
      </trkpt>
      <trkpt lat="41.58291" lon="9.08722">
        <ele>1216.21</ele>
        <time>2016-04-25T11:59:12Z</time>
      </trkpt>
      <trkpt lat="41.58297" lon="9.08719">
        <ele>1216.21</ele>
        <time>2016-04-25T11:59:27Z</time>
      </trkpt>
      <trkpt lat="41.58304" lon="9.08712">
        <ele>1216.21</ele>
        <time>2016-04-25T11:59:42Z</time>
      </trkpt>
      <trkpt lat="41.58309" lon="9.08706">
        <ele>1216.21</ele>
        <time>2016-04-25T11:59:54Z</time>
      </trkpt>
      <trkpt lat="41.58315" lon="9.08705">
        <ele>1217.65</ele>
        <time>2016-04-25T12:00:11Z</time>
      </trkpt>
      <trkpt lat="41.5832" lon="9.08707">
        <ele>1218.13</ele>
        <time>2016-04-25T12:00:25Z</time>
      </trkpt>
      <trkpt lat="41.58325" lon="9.08706">
        <ele>1218.13</ele>
        <time>2016-04-25T12:00:38Z</time>
      </trkpt>
      <trkpt lat="41.58327" lon="9.08706">
        <ele>1219.09</ele>
        <time>2016-04-25T12:00:52Z</time>
      </trkpt>
      <trkpt lat="41.58329" lon="9.08702">
        <ele>1217.65</ele>
        <time>2016-04-25T12:01:11Z</time>
      </trkpt>
      <trkpt lat="41.58332" lon="9.08698">
        <ele>1217.17</ele>
        <time>2016-04-25T12:01:28Z</time>
      </trkpt>
      <trkpt lat="41.58334" lon="9.0869">
        <ele>1215.72</ele>
        <time>2016-04-25T12:01:46Z</time>
      </trkpt>
      <trkpt lat="41.58336" lon="9.08683">
        <ele>1214.76</ele>
        <time>2016-04-25T12:02:00Z</time>
      </trkpt>
      <trkpt lat="41.58341" lon="9.08682">
        <ele>1214.76</ele>
        <time>2016-04-25T12:02:16Z</time>
      </trkpt>
      <trkpt lat="41.58345" lon="9.08675">
        <ele>1214.76</ele>
        <time>2016-04-25T12:02:31Z</time>
      </trkpt>
      <trkpt lat="41.58346" lon="9.08668">
        <ele>1213.32</ele>
        <time>2016-04-25T12:02:42Z</time>
      </trkpt>
      <trkpt lat="41.58352" lon="9.08659">
        <ele>1212.84</ele>
        <time>2016-04-25T12:02:56Z</time>
      </trkpt>
      <trkpt lat="41.5836" lon="9.08655">
        <ele>1215.24</ele>
        <time>2016-04-25T12:03:10Z</time>
      </trkpt>
      <trkpt lat="41.58372" lon="9.08658">
        <ele>1216.21</ele>
        <time>2016-04-25T12:03:26Z</time>
      </trkpt>
      <trkpt lat="41.58378" lon="9.08657">
        <ele>1217.65</ele>
        <time>2016-04-25T12:03:43Z</time>
      </trkpt>
      <trkpt lat="41.58384" lon="9.08656">
        <ele>1218.13</ele>
        <time>2016-04-25T12:03:56Z</time>
      </trkpt>
      <trkpt lat="41.58387" lon="9.08649">
        <ele>1219.09</ele>
        <time>2016-04-25T12:04:09Z</time>
      </trkpt>
      <trkpt lat="41.58392" lon="9.08642">
        <ele>1219.09</ele>
        <time>2016-04-25T12:04:24Z</time>
      </trkpt>
      <trkpt lat="41.58399" lon="9.08641">
        <ele>1220.05</ele>
        <time>2016-04-25T12:04:38Z</time>
      </trkpt>
      <trkpt lat="41.58398" lon="9.08651">
        <ele>1218.61</ele>
        <time>2016-04-25T12:04:57Z</time>
      </trkpt>
      <trkpt lat="41.58398" lon="9.08653">
        <ele>1218.61</ele>
        <time>2016-04-25T12:05:00Z</time>
      </trkpt>
      <trkpt lat="41.58401" lon="9.0866">
        <ele>1220.05</ele>
        <time>2016-04-25T12:05:15Z</time>
      </trkpt>
      <trkpt lat="41.58402" lon="9.08664">
        <ele>1218.61</ele>
        <time>2016-04-25T12:05:22Z</time>
      </trkpt>
      <trkpt lat="41.58403" lon="9.08675">
        <ele>1218.61</ele>
        <time>2016-04-25T12:05:37Z</time>
      </trkpt>
      <trkpt lat="41.58407" lon="9.08676">
        <ele>1218.61</ele>
        <time>2016-04-25T12:05:50Z</time>
      </trkpt>
      <trkpt lat="41.58413" lon="9.0868">
        <ele>1221.49</ele>
        <time>2016-04-25T12:06:05Z</time>
      </trkpt>
      <trkpt lat="41.58418" lon="9.08687">
        <ele>1221.97</ele>
        <time>2016-04-25T12:06:18Z</time>
      </trkpt>
      <trkpt lat="41.5842" lon="9.08691">
        <ele>1221.97</ele>
        <time>2016-04-25T12:06:30Z</time>
      </trkpt>
      <trkpt lat="41.5842" lon="9.08689">
        <ele>1222.93</ele>
        <time>2016-04-25T12:06:49Z</time>
      </trkpt>
      <trkpt lat="41.58419" lon="9.08683">
        <ele>1222.93</ele>
        <time>2016-04-25T12:07:05Z</time>
      </trkpt>
      <trkpt lat="41.58419" lon="9.08679">
        <ele>1222.93</ele>
        <time>2016-04-25T12:07:18Z</time>
      </trkpt>
      <trkpt lat="41.58424" lon="9.08681">
        <ele>1221.49</ele>
        <time>2016-04-25T12:07:34Z</time>
      </trkpt>
      <trkpt lat="41.58428" lon="9.08681">
        <ele>1221.49</ele>
        <time>2016-04-25T12:07:49Z</time>
      </trkpt>
      <trkpt lat="41.58429" lon="9.08687">
        <ele>1223.9</ele>
        <time>2016-04-25T12:08:03Z</time>
      </trkpt>
      <trkpt lat="41.58432" lon="9.08693">
        <ele>1223.42</ele>
        <time>2016-04-25T12:08:16Z</time>
      </trkpt>
      <trkpt lat="41.58439" lon="9.08697">
        <ele>1226.3</ele>
        <time>2016-04-25T12:08:30Z</time>
      </trkpt>
      <trkpt lat="41.58442" lon="9.08696">
        <ele>1227.74</ele>
        <time>2016-04-25T12:08:39Z</time>
      </trkpt>
      <trkpt lat="41.58446" lon="9.08699">
        <ele>1228.7</ele>
        <time>2016-04-25T12:08:52Z</time>
      </trkpt>
      <trkpt lat="41.58449" lon="9.08701">
        <ele>1229.18</ele>
        <time>2016-04-25T12:09:04Z</time>
      </trkpt>
      <trkpt lat="41.58452" lon="9.08707">
        <ele>1230.62</ele>
        <time>2016-04-25T12:09:19Z</time>
      </trkpt>
      <trkpt lat="41.58455" lon="9.08705">
        <ele>1230.62</ele>
        <time>2016-04-25T12:09:34Z</time>
      </trkpt>
      <trkpt lat="41.58461" lon="9.08701">
        <ele>1231.11</ele>
        <time>2016-04-25T12:09:47Z</time>
      </trkpt>
      <trkpt lat="41.58464" lon="9.087">
        <ele>1231.59</ele>
        <time>2016-04-25T12:10:02Z</time>
      </trkpt>
      <trkpt lat="41.58469" lon="9.08707">
        <ele>1231.59</ele>
        <time>2016-04-25T12:10:16Z</time>
      </trkpt>
      <trkpt lat="41.58478" lon="9.08711">
        <ele>1231.59</ele>
        <time>2016-04-25T12:10:30Z</time>
      </trkpt>
      <trkpt lat="41.58487" lon="9.08711">
        <ele>1231.59</ele>
        <time>2016-04-25T12:10:43Z</time>
      </trkpt>
      <trkpt lat="41.58493" lon="9.08709">
        <ele>1232.07</ele>
        <time>2016-04-25T12:10:54Z</time>
      </trkpt>
      <trkpt lat="41.58497" lon="9.08709">
        <ele>1232.55</ele>
        <time>2016-04-25T12:11:06Z</time>
      </trkpt>
      <trkpt lat="41.58497" lon="9.08708">
        <ele>1233.51</ele>
        <time>2016-04-25T12:11:26Z</time>
      </trkpt>
      <trkpt lat="41.58499" lon="9.08709">
        <ele>1233.99</ele>
        <time>2016-04-25T12:11:43Z</time>
      </trkpt>
      <trkpt lat="41.58505" lon="9.08713">
        <ele>1232.07</ele>
        <time>2016-04-25T12:11:56Z</time>
      </trkpt>
      <trkpt lat="41.58517" lon="9.0872">
        <ele>1231.11</ele>
        <time>2016-04-25T12:12:13Z</time>
      </trkpt>
      <trkpt lat="41.58522" lon="9.08723">
        <ele>1231.11</ele>
        <time>2016-04-25T12:12:27Z</time>
      </trkpt>
      <trkpt lat="41.58523" lon="9.08722">
        <ele>1230.62</ele>
        <time>2016-04-25T12:12:51Z</time>
      </trkpt>
      <trkpt lat="41.58524" lon="9.08724">
        <ele>1230.62</ele>
        <time>2016-04-25T12:13:11Z</time>
      </trkpt>
      <trkpt lat="41.58522" lon="9.08725">
        <ele>1229.66</ele>
        <time>2016-04-25T12:13:42Z</time>
      </trkpt>
      <trkpt lat="41.58524" lon="9.08724">
        <ele>1231.11</ele>
        <time>2016-04-25T12:14:13Z</time>
      </trkpt>
      <trkpt lat="41.58526" lon="9.08725">
        <ele>1229.66</ele>
        <time>2016-04-25T12:14:35Z</time>
      </trkpt>
      <trkpt lat="41.58523" lon="9.08723">
        <ele>1229.66</ele>
        <time>2016-04-25T12:14:52Z</time>
      </trkpt>
      <trkpt lat="41.58522" lon="9.08726">
        <ele>1231.11</ele>
        <time>2016-04-25T12:15:23Z</time>
      </trkpt>
      <trkpt lat="41.58523" lon="9.08725">
        <ele>1230.14</ele>
        <time>2016-04-25T12:15:43Z</time>
      </trkpt>
      <trkpt lat="41.58524" lon="9.08726">
        <ele>1230.14</ele>
        <time>2016-04-25T12:16:00Z</time>
      </trkpt>
      <trkpt lat="41.58527" lon="9.08729">
        <ele>1230.14</ele>
        <time>2016-04-25T12:16:14Z</time>
      </trkpt>
      <trkpt lat="41.5853" lon="9.08732">
        <ele>1230.14</ele>
        <time>2016-04-25T12:16:19Z</time>
      </trkpt>
      <trkpt lat="41.58532" lon="9.08734">
        <ele>1229.18</ele>
        <time>2016-04-25T12:16:31Z</time>
      </trkpt>
      <trkpt lat="41.5853" lon="9.08732">
        <ele>1229.18</ele>
        <time>2016-04-25T12:17:07Z</time>
      </trkpt>
      <trkpt lat="41.5853" lon="9.0873">
        <ele>1229.18</ele>
        <time>2016-04-25T12:17:34Z</time>
      </trkpt>
      <trkpt lat="41.5853" lon="9.0873">
        <ele>1228.7</ele>
        <time>2016-04-25T12:18:02Z</time>
      </trkpt>
      <trkpt lat="41.5853" lon="9.08733">
        <ele>1228.7</ele>
        <time>2016-04-25T12:18:24Z</time>
      </trkpt>
      <trkpt lat="41.58527" lon="9.08731">
        <ele>1230.14</ele>
        <time>2016-04-25T12:18:41Z</time>
      </trkpt>
      <trkpt lat="41.58527" lon="9.08733">
        <ele>1229.66</ele>
        <time>2016-04-25T12:19:02Z</time>
      </trkpt>
      <trkpt lat="41.58527" lon="9.08732">
        <ele>1229.66</ele>
        <time>2016-04-25T12:19:20Z</time>
      </trkpt>
      <trkpt lat="41.58533" lon="9.08731">
        <ele>1229.66</ele>
        <time>2016-04-25T12:19:33Z</time>
      </trkpt>
      <trkpt lat="41.58534" lon="9.08728">
        <ele>1229.66</ele>
        <time>2016-04-25T12:19:48Z</time>
      </trkpt>
      <trkpt lat="41.58534" lon="9.08729">
        <ele>1228.22</ele>
        <time>2016-04-25T12:20:07Z</time>
      </trkpt>
      <trkpt lat="41.58533" lon="9.08728">
        <ele>1227.74</ele>
        <time>2016-04-25T12:20:35Z</time>
      </trkpt>
      <trkpt lat="41.5853" lon="9.08725">
        <ele>1229.18</ele>
        <time>2016-04-25T12:20:56Z</time>
      </trkpt>
      <trkpt lat="41.58527" lon="9.08727">
        <ele>1229.18</ele>
        <time>2016-04-25T12:21:07Z</time>
      </trkpt>
      <trkpt lat="41.58527" lon="9.0873">
        <ele>1229.18</ele>
        <time>2016-04-25T12:21:27Z</time>
      </trkpt>
      <trkpt lat="41.58528" lon="9.08731">
        <ele>1229.18</ele>
        <time>2016-04-25T12:21:41Z</time>
      </trkpt>
      <trkpt lat="41.58529" lon="9.0873">
        <ele>1229.18</ele>
        <time>2016-04-25T12:21:59Z</time>
      </trkpt>
      <trkpt lat="41.5853" lon="9.08731">
        <ele>1229.18</ele>
        <time>2016-04-25T12:22:18Z</time>
      </trkpt>
      <trkpt lat="41.5853" lon="9.0873">
        <ele>1228.22</ele>
        <time>2016-04-25T12:22:40Z</time>
      </trkpt>
      <trkpt lat="41.5853" lon="9.08731">
        <ele>1228.22</ele>
        <time>2016-04-25T12:23:09Z</time>
      </trkpt>
      <trkpt lat="41.58532" lon="9.08732">
        <ele>1230.14</ele>
        <time>2016-04-25T12:23:33Z</time>
      </trkpt>
      <trkpt lat="41.58532" lon="9.0873">
        <ele>1230.14</ele>
        <time>2016-04-25T12:24:04Z</time>
      </trkpt>
      <trkpt lat="41.5853" lon="9.08729">
        <ele>1229.18</ele>
        <time>2016-04-25T12:24:33Z</time>
      </trkpt>
      <trkpt lat="41.5853" lon="9.08728">
        <ele>1229.18</ele>
        <time>2016-04-25T12:25:04Z</time>
      </trkpt>
      <trkpt lat="41.58527" lon="9.08729">
        <ele>1228.22</ele>
        <time>2016-04-25T12:25:24Z</time>
      </trkpt>
      <trkpt lat="41.58527" lon="9.08731">
        <ele>1228.22</ele>
        <time>2016-04-25T12:25:44Z</time>
      </trkpt>
      <trkpt lat="41.5853" lon="9.08739">
        <ele>1228.22</ele>
        <time>2016-04-25T12:25:57Z</time>
      </trkpt>
      <trkpt lat="41.58531" lon="9.08747">
        <ele>1227.74</ele>
        <time>2016-04-25T12:26:05Z</time>
      </trkpt>
      <trkpt lat="41.58532" lon="9.08756">
        <ele>1229.18</ele>
        <time>2016-04-25T12:26:18Z</time>
      </trkpt>
      <trkpt lat="41.58533" lon="9.08756">
        <ele>1229.66</ele>
        <time>2016-04-25T12:26:41Z</time>
      </trkpt>
      <trkpt lat="41.58534" lon="9.08756">
        <ele>1229.66</ele>
        <time>2016-04-25T12:27:07Z</time>
      </trkpt>
      <trkpt lat="41.58533" lon="9.08755">
        <ele>1230.62</ele>
        <time>2016-04-25T12:27:30Z</time>
      </trkpt>
      <trkpt lat="41.58533" lon="9.08756">
        <ele>1229.66</ele>
        <time>2016-04-25T12:27:37Z</time>
      </trkpt>
      <trkpt lat="41.58531" lon="9.08753">
        <ele>1230.14</ele>
        <time>2016-04-25T12:28:05Z</time>
      </trkpt>
      <trkpt lat="41.58531" lon="9.08754">
        <ele>1229.18</ele>
        <time>2016-04-25T12:28:09Z</time>
      </trkpt>
      <trkpt lat="41.58531" lon="9.08753">
        <ele>1229.66</ele>
        <time>2016-04-25T12:28:36Z</time>
      </trkpt>
      <trkpt lat="41.58531" lon="9.0875">
        <ele>1229.66</ele>
        <time>2016-04-25T12:28:44Z</time>
      </trkpt>
      <trkpt lat="41.58529" lon="9.08747">
        <ele>1228.22</ele>
        <time>2016-04-25T12:28:51Z</time>
      </trkpt>
      <trkpt lat="41.58531" lon="9.08748">
        <ele>1227.26</ele>
        <time>2016-04-25T12:29:07Z</time>
      </trkpt>
      <trkpt lat="41.58532" lon="9.08749">
        <ele>1222.93</ele>
        <time>2016-04-25T12:29:30Z</time>
      </trkpt>
      <trkpt lat="41.58532" lon="9.08749">
        <ele>1230.62</ele>
        <time>2016-04-25T12:29:31Z</time>
      </trkpt>
      <trkpt lat="41.58532" lon="9.08755">
        <ele>1228.22</ele>
        <time>2016-04-25T12:29:44Z</time>
      </trkpt>
      <trkpt lat="41.58533" lon="9.08759">
        <ele>1228.22</ele>
        <time>2016-04-25T12:30:05Z</time>
      </trkpt>
      <trkpt lat="41.58534" lon="9.08756">
        <ele>1227.26</ele>
        <time>2016-04-25T12:30:27Z</time>
      </trkpt>
      <trkpt lat="41.58533" lon="9.08756">
        <ele>1227.26</ele>
        <time>2016-04-25T12:30:38Z</time>
      </trkpt>
      <trkpt lat="41.58534" lon="9.08756">
        <ele>1226.78</ele>
        <time>2016-04-25T12:30:55Z</time>
      </trkpt>
      <trkpt lat="41.58534" lon="9.08755">
        <ele>1226.78</ele>
        <time>2016-04-25T12:31:15Z</time>
      </trkpt>
      <trkpt lat="41.58535" lon="9.08756">
        <ele>1228.22</ele>
        <time>2016-04-25T12:31:39Z</time>
      </trkpt>
      <trkpt lat="41.58536" lon="9.08756">
        <ele>1228.22</ele>
        <time>2016-04-25T12:31:59Z</time>
      </trkpt>
      <trkpt lat="41.58538" lon="9.08755">
        <ele>1228.22</ele>
        <time>2016-04-25T12:32:18Z</time>
      </trkpt>
      <trkpt lat="41.58535" lon="9.08757">
        <ele>1226.78</ele>
        <time>2016-04-25T12:32:49Z</time>
      </trkpt>
      <trkpt lat="41.58536" lon="9.08756">
        <ele>1227.74</ele>
        <time>2016-04-25T12:33:16Z</time>
      </trkpt>
      <trkpt lat="41.58537" lon="9.08755">
        <ele>1227.74</ele>
        <time>2016-04-25T12:33:49Z</time>
      </trkpt>
      <trkpt lat="41.58533" lon="9.08757">
        <ele>1227.74</ele>
        <time>2016-04-25T12:34:11Z</time>
      </trkpt>
      <trkpt lat="41.58534" lon="9.08755">
        <ele>1228.22</ele>
        <time>2016-04-25T12:34:29Z</time>
      </trkpt>
      <trkpt lat="41.58533" lon="9.08754">
        <ele>1228.7</ele>
        <time>2016-04-25T12:34:53Z</time>
      </trkpt>
      <trkpt lat="41.58532" lon="9.08755">
        <ele>1228.7</ele>
        <time>2016-04-25T12:35:20Z</time>
      </trkpt>
      <trkpt lat="41.58534" lon="9.08754">
        <ele>1228.7</ele>
        <time>2016-04-25T12:35:43Z</time>
      </trkpt>
      <trkpt lat="41.58535" lon="9.08753">
        <ele>1228.7</ele>
        <time>2016-04-25T12:36:04Z</time>
      </trkpt>
      <trkpt lat="41.58535" lon="9.08753">
        <ele>1229.18</ele>
        <time>2016-04-25T12:36:30Z</time>
      </trkpt>
      <trkpt lat="41.58537" lon="9.08754">
        <ele>1227.26</ele>
        <time>2016-04-25T12:36:48Z</time>
      </trkpt>
      <trkpt lat="41.58536" lon="9.08752">
        <ele>1226.78</ele>
        <time>2016-04-25T12:37:05Z</time>
      </trkpt>
      <trkpt lat="41.58534" lon="9.08743">
        <ele>1226.78</ele>
        <time>2016-04-25T12:37:16Z</time>
      </trkpt>
      <trkpt lat="41.58532" lon="9.08737">
        <ele>1226.78</ele>
        <time>2016-04-25T12:37:29Z</time>
      </trkpt>
      <trkpt lat="41.5853" lon="9.08732">
        <ele>1226.3</ele>
        <time>2016-04-25T12:37:41Z</time>
      </trkpt>
      <trkpt lat="41.5853" lon="9.08732">
        <ele>1226.3</ele>
        <time>2016-04-25T12:38:05Z</time>
      </trkpt>
      <trkpt lat="41.5853" lon="9.0873">
        <ele>1227.26</ele>
        <time>2016-04-25T12:38:32Z</time>
      </trkpt>
      <trkpt lat="41.58528" lon="9.08733">
        <ele>1227.26</ele>
        <time>2016-04-25T12:38:56Z</time>
      </trkpt>
      <trkpt lat="41.58529" lon="9.08732">
        <ele>1227.26</ele>
        <time>2016-04-25T12:39:24Z</time>
      </trkpt>
      <trkpt lat="41.58529" lon="9.08732">
        <ele>1225.82</ele>
        <time>2016-04-25T12:39:28Z</time>
      </trkpt>
      <trkpt lat="41.58533" lon="9.08734">
        <ele>1225.34</ele>
        <time>2016-04-25T12:39:51Z</time>
      </trkpt>
      <trkpt lat="41.5853" lon="9.08732">
        <ele>1226.78</ele>
        <time>2016-04-25T12:40:19Z</time>
      </trkpt>
      <trkpt lat="41.58528" lon="9.08731">
        <ele>1226.78</ele>
        <time>2016-04-25T12:40:33Z</time>
      </trkpt>
      <trkpt lat="41.58529" lon="9.08732">
        <ele>1226.78</ele>
        <time>2016-04-25T12:41:01Z</time>
      </trkpt>
      <trkpt lat="41.58527" lon="9.0873">
        <ele>1226.78</ele>
        <time>2016-04-25T12:41:23Z</time>
      </trkpt>
      <trkpt lat="41.5853" lon="9.08727">
        <ele>1226.78</ele>
        <time>2016-04-25T12:41:51Z</time>
      </trkpt>
      <trkpt lat="41.58528" lon="9.08728">
        <ele>1226.78</ele>
        <time>2016-04-25T12:42:15Z</time>
      </trkpt>
      <trkpt lat="41.58528" lon="9.08728">
        <ele>1227.74</ele>
        <time>2016-04-25T12:42:39Z</time>
      </trkpt>
      <trkpt lat="41.58528" lon="9.08728">
        <ele>1227.74</ele>
        <time>2016-04-25T12:42:57Z</time>
      </trkpt>
      <trkpt lat="41.58527" lon="9.08727">
        <ele>1227.74</ele>
        <time>2016-04-25T12:43:27Z</time>
      </trkpt>
      <trkpt lat="41.58519" lon="9.08723">
        <ele>1227.74</ele>
        <time>2016-04-25T12:43:40Z</time>
      </trkpt>
      <trkpt lat="41.58514" lon="9.08719">
        <ele>1227.74</ele>
        <time>2016-04-25T12:43:54Z</time>
      </trkpt>
      <trkpt lat="41.58505" lon="9.08716">
        <ele>1227.74</ele>
        <time>2016-04-25T12:44:10Z</time>
      </trkpt>
      <trkpt lat="41.58501" lon="9.08719">
        <ele>1227.74</ele>
        <time>2016-04-25T12:44:24Z</time>
      </trkpt>
      <trkpt lat="41.58496" lon="9.08719">
        <ele>1227.74</ele>
        <time>2016-04-25T12:44:36Z</time>
      </trkpt>
      <trkpt lat="41.58491" lon="9.08719">
        <ele>1228.22</ele>
        <time>2016-04-25T12:44:49Z</time>
      </trkpt>
      <trkpt lat="41.5849" lon="9.08718">
        <ele>1228.7</ele>
        <time>2016-04-25T12:45:07Z</time>
      </trkpt>
      <trkpt lat="41.58492" lon="9.08718">
        <ele>1228.7</ele>
        <time>2016-04-25T12:45:21Z</time>
      </trkpt>
      <trkpt lat="41.58493" lon="9.08716">
        <ele>1227.74</ele>
        <time>2016-04-25T12:45:25Z</time>
      </trkpt>
      <trkpt lat="41.5849" lon="9.08712">
        <ele>1227.26</ele>
        <time>2016-04-25T12:45:40Z</time>
      </trkpt>
      <trkpt lat="41.5848" lon="9.08711">
        <ele>1226.78</ele>
        <time>2016-04-25T12:45:55Z</time>
      </trkpt>
      <trkpt lat="41.5847" lon="9.08708">
        <ele>1226.78</ele>
        <time>2016-04-25T12:46:11Z</time>
      </trkpt>
      <trkpt lat="41.58463" lon="9.08707">
        <ele>1226.78</ele>
        <time>2016-04-25T12:46:23Z</time>
      </trkpt>
      <trkpt lat="41.58455" lon="9.08711">
        <ele>1225.82</ele>
        <time>2016-04-25T12:46:37Z</time>
      </trkpt>
      <trkpt lat="41.58451" lon="9.08705">
        <ele>1224.86</ele>
        <time>2016-04-25T12:46:51Z</time>
      </trkpt>
      <trkpt lat="41.58447" lon="9.08701">
        <ele>1224.86</ele>
        <time>2016-04-25T12:47:05Z</time>
      </trkpt>
      <trkpt lat="41.58445" lon="9.08701">
        <ele>1223.42</ele>
        <time>2016-04-25T12:47:17Z</time>
      </trkpt>
      <trkpt lat="41.58445" lon="9.08699">
        <ele>1222.93</ele>
        <time>2016-04-25T12:47:33Z</time>
      </trkpt>
      <trkpt lat="41.58439" lon="9.08697">
        <ele>1222.93</ele>
        <time>2016-04-25T12:47:48Z</time>
      </trkpt>
      <trkpt lat="41.58439" lon="9.08692">
        <ele>1221.01</ele>
        <time>2016-04-25T12:48:00Z</time>
      </trkpt>
      <trkpt lat="41.58435" lon="9.08691">
        <ele>1220.53</ele>
        <time>2016-04-25T12:48:15Z</time>
      </trkpt>
      <trkpt lat="41.58434" lon="9.0869">
        <ele>1220.05</ele>
        <time>2016-04-25T12:48:28Z</time>
      </trkpt>
      <trkpt lat="41.58431" lon="9.08682">
        <ele>1219.09</ele>
        <time>2016-04-25T12:48:42Z</time>
      </trkpt>
      <trkpt lat="41.58426" lon="9.0868">
        <ele>1218.61</ele>
        <time>2016-04-25T12:48:55Z</time>
      </trkpt>
      <trkpt lat="41.58422" lon="9.08682">
        <ele>1217.65</ele>
        <time>2016-04-25T12:49:07Z</time>
      </trkpt>
      <trkpt lat="41.58415" lon="9.08682">
        <ele>1216.21</ele>
        <time>2016-04-25T12:49:24Z</time>
      </trkpt>
      <trkpt lat="41.58406" lon="9.08679">
        <ele>1214.76</ele>
        <time>2016-04-25T12:49:38Z</time>
      </trkpt>
      <trkpt lat="41.58403" lon="9.08674">
        <ele>1214.28</ele>
        <time>2016-04-25T12:49:52Z</time>
      </trkpt>
      <trkpt lat="41.58398" lon="9.08666">
        <ele>1213.8</ele>
        <time>2016-04-25T12:50:06Z</time>
      </trkpt>
      <trkpt lat="41.5839" lon="9.08653">
        <ele>1213.8</ele>
        <time>2016-04-25T12:50:20Z</time>
      </trkpt>
      <trkpt lat="41.58387" lon="9.08643">
        <ele>1213.8</ele>
        <time>2016-04-25T12:50:32Z</time>
      </trkpt>
      <trkpt lat="41.58384" lon="9.08642">
        <ele>1213.8</ele>
        <time>2016-04-25T12:50:55Z</time>
      </trkpt>
      <trkpt lat="41.5838" lon="9.08644">
        <ele>1213.32</ele>
        <time>2016-04-25T12:51:08Z</time>
      </trkpt>
      <trkpt lat="41.58381" lon="9.08652">
        <ele>1212.84</ele>
        <time>2016-04-25T12:51:21Z</time>
      </trkpt>
      <trkpt lat="41.58384" lon="9.08658">
        <ele>1212.84</ele>
        <time>2016-04-25T12:51:36Z</time>
      </trkpt>
      <trkpt lat="41.5838" lon="9.08661">
        <ele>1212.84</ele>
        <time>2016-04-25T12:51:51Z</time>
      </trkpt>
      <trkpt lat="41.58373" lon="9.08659">
        <ele>1211.88</ele>
        <time>2016-04-25T12:52:02Z</time>
      </trkpt>
      <trkpt lat="41.58361" lon="9.08655">
        <ele>1209.96</ele>
        <time>2016-04-25T12:52:18Z</time>
      </trkpt>
      <trkpt lat="41.58352" lon="9.08658">
        <ele>1208.51</ele>
        <time>2016-04-25T12:52:32Z</time>
      </trkpt>
      <trkpt lat="41.58351" lon="9.08659">
        <ele>1208.51</ele>
        <time>2016-04-25T12:52:35Z</time>
      </trkpt>
      <trkpt lat="41.58347" lon="9.08667">
        <ele>1209.48</ele>
        <time>2016-04-25T12:52:48Z</time>
      </trkpt>
      <trkpt lat="41.58345" lon="9.08673">
        <ele>1209.96</ele>
        <time>2016-04-25T12:53:01Z</time>
      </trkpt>
      <trkpt lat="41.58339" lon="9.08682">
        <ele>1210.92</ele>
        <time>2016-04-25T12:53:17Z</time>
      </trkpt>
      <trkpt lat="41.58333" lon="9.08679">
        <ele>1209.96</ele>
        <time>2016-04-25T12:53:36Z</time>
      </trkpt>
      <trkpt lat="41.58324" lon="9.08691">
        <ele>1209.96</ele>
        <time>2016-04-25T12:53:52Z</time>
      </trkpt>
      <trkpt lat="41.5831" lon="9.087">
        <ele>1209.96</ele>
        <time>2016-04-25T12:54:10Z</time>
      </trkpt>
      <trkpt lat="41.58309" lon="9.08702">
        <ele>1211.4</ele>
        <time>2016-04-25T12:54:24Z</time>
      </trkpt>
      <trkpt lat="41.58304" lon="9.08706">
        <ele>1211.4</ele>
        <time>2016-04-25T12:54:37Z</time>
      </trkpt>
      <trkpt lat="41.58295" lon="9.08717">
        <ele>1211.4</ele>
        <time>2016-04-25T12:54:54Z</time>
      </trkpt>
      <trkpt lat="41.58288" lon="9.08719">
        <ele>1209</ele>
        <time>2016-04-25T12:55:11Z</time>
      </trkpt>
      <trkpt lat="41.58282" lon="9.08723">
        <ele>1208.03</ele>
        <time>2016-04-25T12:55:27Z</time>
      </trkpt>
      <trkpt lat="41.58281" lon="9.08727">
        <ele>1209.48</ele>
        <time>2016-04-25T12:55:40Z</time>
      </trkpt>
      <trkpt lat="41.58282" lon="9.08736">
        <ele>1210.44</ele>
        <time>2016-04-25T12:55:54Z</time>
      </trkpt>
      <trkpt lat="41.58282" lon="9.08732">
        <ele>1210.92</ele>
        <time>2016-04-25T12:56:09Z</time>
      </trkpt>
      <trkpt lat="41.58282" lon="9.08732">
        <ele>1209.96</ele>
        <time>2016-04-25T12:56:11Z</time>
      </trkpt>
      <trkpt lat="41.58282" lon="9.08726">
        <ele>1207.55</ele>
        <time>2016-04-25T12:56:29Z</time>
      </trkpt>
      <trkpt lat="41.58281" lon="9.0872">
        <ele>1206.59</ele>
        <time>2016-04-25T12:56:44Z</time>
      </trkpt>
      <trkpt lat="41.58276" lon="9.08722">
        <ele>1204.67</ele>
        <time>2016-04-25T12:56:59Z</time>
      </trkpt>
      <trkpt lat="41.58271" lon="9.08726">
        <ele>1203.71</ele>
        <time>2016-04-25T12:57:10Z</time>
      </trkpt>
      <trkpt lat="41.58266" lon="9.08733">
        <ele>1202.27</ele>
        <time>2016-04-25T12:57:26Z</time>
      </trkpt>
      <trkpt lat="41.58258" lon="9.08738">
        <ele>1201.3</ele>
        <time>2016-04-25T12:57:41Z</time>
      </trkpt>
      <trkpt lat="41.5825" lon="9.08744">
        <ele>1200.34</ele>
        <time>2016-04-25T12:57:55Z</time>
      </trkpt>
      <trkpt lat="41.58245" lon="9.08752">
        <ele>1199.38</ele>
        <time>2016-04-25T12:58:07Z</time>
      </trkpt>
      <trkpt lat="41.58239" lon="9.08756">
        <ele>1197.46</ele>
        <time>2016-04-25T12:58:21Z</time>
      </trkpt>
      <trkpt lat="41.58236" lon="9.0876">
        <ele>1196.5</ele>
        <time>2016-04-25T12:58:34Z</time>
      </trkpt>
      <trkpt lat="41.58231" lon="9.08764">
        <ele>1196.02</ele>
        <time>2016-04-25T12:58:46Z</time>
      </trkpt>
      <trkpt lat="41.58227" lon="9.08765">
        <ele>1194.58</ele>
        <time>2016-04-25T12:58:59Z</time>
      </trkpt>
      <trkpt lat="41.58225" lon="9.08766">
        <ele>1192.17</ele>
        <time>2016-04-25T12:59:13Z</time>
      </trkpt>
      <trkpt lat="41.58223" lon="9.0877">
        <ele>1192.17</ele>
        <time>2016-04-25T12:59:29Z</time>
      </trkpt>
      <trkpt lat="41.58221" lon="9.08772">
        <ele>1191.21</ele>
        <time>2016-04-25T12:59:41Z</time>
      </trkpt>
      <trkpt lat="41.58218" lon="9.08777">
        <ele>1190.25</ele>
        <time>2016-04-25T12:59:53Z</time>
      </trkpt>
      <trkpt lat="41.58216" lon="9.08782">
        <ele>1188.81</ele>
        <time>2016-04-25T13:00:05Z</time>
      </trkpt>
      <trkpt lat="41.58212" lon="9.08783">
        <ele>1187.85</ele>
        <time>2016-04-25T13:00:16Z</time>
      </trkpt>
      <trkpt lat="41.5821" lon="9.08787">
        <ele>1187.85</ele>
        <time>2016-04-25T13:00:35Z</time>
      </trkpt>
      <trkpt lat="41.58206" lon="9.08791">
        <ele>1187.37</ele>
        <time>2016-04-25T13:00:48Z</time>
      </trkpt>
      <trkpt lat="41.58203" lon="9.08793">
        <ele>1185.92</ele>
        <time>2016-04-25T13:00:59Z</time>
      </trkpt>
      <trkpt lat="41.582" lon="9.08796">
        <ele>1184.96</ele>
        <time>2016-04-25T13:01:16Z</time>
      </trkpt>
      <trkpt lat="41.58197" lon="9.08798">
        <ele>1183.52</ele>
        <time>2016-04-25T13:01:30Z</time>
      </trkpt>
      <trkpt lat="41.58192" lon="9.08803">
        <ele>1182.08</ele>
        <time>2016-04-25T13:01:49Z</time>
      </trkpt>
      <trkpt lat="41.58186" lon="9.08809">
        <ele>1181.12</ele>
        <time>2016-04-25T13:02:05Z</time>
      </trkpt>
      <trkpt lat="41.58179" lon="9.08818">
        <ele>1179.67</ele>
        <time>2016-04-25T13:02:18Z</time>
      </trkpt>
      <trkpt lat="41.58175" lon="9.08827">
        <ele>1178.71</ele>
        <time>2016-04-25T13:02:32Z</time>
      </trkpt>
      <trkpt lat="41.58169" lon="9.08829">
        <ele>1176.31</ele>
        <time>2016-04-25T13:02:47Z</time>
      </trkpt>
      <trkpt lat="41.58163" lon="9.08833">
        <ele>1173.91</ele>
        <time>2016-04-25T13:03:05Z</time>
      </trkpt>
      <trkpt lat="41.58155" lon="9.0884">
        <ele>1171.98</ele>
        <time>2016-04-25T13:03:18Z</time>
      </trkpt>
      <trkpt lat="41.5815" lon="9.08847">
        <ele>1170.06</ele>
        <time>2016-04-25T13:03:31Z</time>
      </trkpt>
      <trkpt lat="41.58148" lon="9.08854">
        <ele>1169.1</ele>
        <time>2016-04-25T13:03:45Z</time>
      </trkpt>
      <trkpt lat="41.58145" lon="9.08861">
        <ele>1169.58</ele>
        <time>2016-04-25T13:04:00Z</time>
      </trkpt>
      <trkpt lat="41.58143" lon="9.08862">
        <ele>1168.62</ele>
        <time>2016-04-25T13:04:23Z</time>
      </trkpt>
      <trkpt lat="41.58141" lon="9.08867">
        <ele>1167.18</ele>
        <time>2016-04-25T13:04:44Z</time>
      </trkpt>
      <trkpt lat="41.58136" lon="9.08873">
        <ele>1164.77</ele>
        <time>2016-04-25T13:05:02Z</time>
      </trkpt>
      <trkpt lat="41.58131" lon="9.08876">
        <ele>1162.85</ele>
        <time>2016-04-25T13:05:15Z</time>
      </trkpt>
      <trkpt lat="41.58126" lon="9.08883">
        <ele>1160.45</ele>
        <time>2016-04-25T13:05:31Z</time>
      </trkpt>
      <trkpt lat="41.58121" lon="9.08889">
        <ele>1158.53</ele>
        <time>2016-04-25T13:05:42Z</time>
      </trkpt>
      <trkpt lat="41.58119" lon="9.08893">
        <ele>1157.56</ele>
        <time>2016-04-25T13:05:56Z</time>
      </trkpt>
      <trkpt lat="41.58121" lon="9.08895">
        <ele>1156.6</ele>
        <time>2016-04-25T13:06:16Z</time>
      </trkpt>
      <trkpt lat="41.58118" lon="9.08894">
        <ele>1156.12</ele>
        <time>2016-04-25T13:06:41Z</time>
      </trkpt>
      <trkpt lat="41.58121" lon="9.089">
        <ele>1154.68</ele>
        <time>2016-04-25T13:06:59Z</time>
      </trkpt>
      <trkpt lat="41.58118" lon="9.08908">
        <ele>1152.28</ele>
        <time>2016-04-25T13:07:17Z</time>
      </trkpt>
      <trkpt lat="41.58113" lon="9.08912">
        <ele>1149.87</ele>
        <time>2016-04-25T13:07:32Z</time>
      </trkpt>
      <trkpt lat="41.58111" lon="9.08917">
        <ele>1147.47</ele>
        <time>2016-04-25T13:07:51Z</time>
      </trkpt>
      <trkpt lat="41.58114" lon="9.08922">
        <ele>1146.99</ele>
        <time>2016-04-25T13:08:07Z</time>
      </trkpt>
      <trkpt lat="41.58115" lon="9.08927">
        <ele>1148.43</ele>
        <time>2016-04-25T13:08:17Z</time>
      </trkpt>
      <trkpt lat="41.58115" lon="9.08934">
        <ele>1148.91</ele>
        <time>2016-04-25T13:08:33Z</time>
      </trkpt>
      <trkpt lat="41.58117" lon="9.08943">
        <ele>1150.35</ele>
        <time>2016-04-25T13:08:50Z</time>
      </trkpt>
      <trkpt lat="41.58119" lon="9.08953">
        <ele>1152.28</ele>
        <time>2016-04-25T13:09:07Z</time>
      </trkpt>
      <trkpt lat="41.58118" lon="9.08961">
        <ele>1152.28</ele>
        <time>2016-04-25T13:09:22Z</time>
      </trkpt>
      <trkpt lat="41.58115" lon="9.08968">
        <ele>1152.28</ele>
        <time>2016-04-25T13:09:36Z</time>
      </trkpt>
      <trkpt lat="41.58116" lon="9.08969">
        <ele>1152.76</ele>
        <time>2016-04-25T13:09:51Z</time>
      </trkpt>
      <trkpt lat="41.58116" lon="9.08968">
        <ele>1152.76</ele>
        <time>2016-04-25T13:10:07Z</time>
      </trkpt>
      <trkpt lat="41.58113" lon="9.0897">
        <ele>1152.76</ele>
        <time>2016-04-25T13:10:20Z</time>
      </trkpt>
      <trkpt lat="41.58114" lon="9.08971">
        <ele>1151.8</ele>
        <time>2016-04-25T13:10:33Z</time>
      </trkpt>
      <trkpt lat="41.58112" lon="9.08973">
        <ele>1150.35</ele>
        <time>2016-04-25T13:10:47Z</time>
      </trkpt>
      <trkpt lat="41.5811" lon="9.08974">
        <ele>1150.84</ele>
        <time>2016-04-25T13:11:01Z</time>
      </trkpt>
      <trkpt lat="41.58109" lon="9.08972">
        <ele>1150.84</ele>
        <time>2016-04-25T13:11:18Z</time>
      </trkpt>
      <trkpt lat="41.58113" lon="9.08969">
        <ele>1150.84</ele>
        <time>2016-04-25T13:11:37Z</time>
      </trkpt>
      <trkpt lat="41.58115" lon="9.08972">
        <ele>1150.84</ele>
        <time>2016-04-25T13:11:52Z</time>
      </trkpt>
      <trkpt lat="41.58115" lon="9.08972">
        <ele>1152.28</ele>
        <time>2016-04-25T13:11:54Z</time>
      </trkpt>
      <trkpt lat="41.58116" lon="9.08972">
        <ele>1152.28</ele>
        <time>2016-04-25T13:12:15Z</time>
      </trkpt>
      <trkpt lat="41.58116" lon="9.0897">
        <ele>1152.28</ele>
        <time>2016-04-25T13:12:36Z</time>
      </trkpt>
      <trkpt lat="41.58117" lon="9.08968">
        <ele>1152.28</ele>
        <time>2016-04-25T13:12:56Z</time>
      </trkpt>
      <trkpt lat="41.58117" lon="9.08964">
        <ele>1152.76</ele>
        <time>2016-04-25T13:13:11Z</time>
      </trkpt>
      <trkpt lat="41.58116" lon="9.08964">
        <ele>1151.8</ele>
        <time>2016-04-25T13:13:29Z</time>
      </trkpt>
      <trkpt lat="41.58118" lon="9.08962">
        <ele>1152.28</ele>
        <time>2016-04-25T13:13:39Z</time>
      </trkpt>
      <trkpt lat="41.58117" lon="9.08962">
        <ele>1148.43</ele>
        <time>2016-04-25T13:13:43Z</time>
      </trkpt>
      <trkpt lat="41.58117" lon="9.08963">
        <ele>1151.8</ele>
        <time>2016-04-25T13:13:44Z</time>
      </trkpt>
      <trkpt lat="41.58117" lon="9.08963">
        <ele>1152.76</ele>
        <time>2016-04-25T13:13:46Z</time>
      </trkpt>
      <trkpt lat="41.5812" lon="9.08967">
        <ele>1152.28</ele>
        <time>2016-04-25T13:13:55Z</time>
      </trkpt>
      <trkpt lat="41.58121" lon="9.08965">
        <ele>1152.28</ele>
        <time>2016-04-25T13:14:20Z</time>
      </trkpt>
      <trkpt lat="41.58117" lon="9.08966">
        <ele>1152.28</ele>
        <time>2016-04-25T13:14:46Z</time>
      </trkpt>
      <trkpt lat="41.58116" lon="9.08967">
        <ele>1152.76</ele>
        <time>2016-04-25T13:15:03Z</time>
      </trkpt>
      <trkpt lat="41.58116" lon="9.08969">
        <ele>1152.76</ele>
        <time>2016-04-25T13:15:22Z</time>
      </trkpt>
      <trkpt lat="41.58114" lon="9.08969">
        <ele>1152.28</ele>
        <time>2016-04-25T13:15:43Z</time>
      </trkpt>
      <trkpt lat="41.58115" lon="9.08973">
        <ele>1153.72</ele>
        <time>2016-04-25T13:15:56Z</time>
      </trkpt>
      <trkpt lat="41.58117" lon="9.08968">
        <ele>1154.2</ele>
        <time>2016-04-25T13:16:12Z</time>
      </trkpt>
      <trkpt lat="41.58117" lon="9.08966">
        <ele>1154.2</ele>
        <time>2016-04-25T13:16:36Z</time>
      </trkpt>
      <trkpt lat="41.58117" lon="9.08965">
        <ele>1154.68</ele>
        <time>2016-04-25T13:17:05Z</time>
      </trkpt>
      <trkpt lat="41.58115" lon="9.08967">
        <ele>1154.68</ele>
        <time>2016-04-25T13:17:29Z</time>
      </trkpt>
      <trkpt lat="41.58115" lon="9.08965">
        <ele>1155.16</ele>
        <time>2016-04-25T13:17:57Z</time>
      </trkpt>
      <trkpt lat="41.58114" lon="9.08971">
        <ele>1155.16</ele>
        <time>2016-04-25T13:18:23Z</time>
      </trkpt>
      <trkpt lat="41.58115" lon="9.08975">
        <ele>1153.72</ele>
        <time>2016-04-25T13:18:44Z</time>
      </trkpt>
      <trkpt lat="41.58115" lon="9.08975">
        <ele>1153.72</ele>
        <time>2016-04-25T13:18:45Z</time>
      </trkpt>
      <trkpt lat="41.58117" lon="9.08979">
        <ele>1153.24</ele>
        <time>2016-04-25T13:19:04Z</time>
      </trkpt>
      <trkpt lat="41.58116" lon="9.08982">
        <ele>1154.2</ele>
        <time>2016-04-25T13:19:19Z</time>
      </trkpt>
      <trkpt lat="41.58114" lon="9.0898">
        <ele>1154.2</ele>
        <time>2016-04-25T13:19:38Z</time>
      </trkpt>
      <trkpt lat="41.58114" lon="9.0898">
        <ele>1155.16</ele>
        <time>2016-04-25T13:19:53Z</time>
      </trkpt>
      <trkpt lat="41.58115" lon="9.08982">
        <ele>1156.6</ele>
        <time>2016-04-25T13:20:07Z</time>
      </trkpt>
      <trkpt lat="41.58113" lon="9.08984">
        <ele>1157.08</ele>
        <time>2016-04-25T13:20:27Z</time>
      </trkpt>
      <trkpt lat="41.58114" lon="9.08985">
        <ele>1157.56</ele>
        <time>2016-04-25T13:20:48Z</time>
      </trkpt>
      <trkpt lat="41.58113" lon="9.08983">
        <ele>1157.56</ele>
        <time>2016-04-25T13:21:09Z</time>
      </trkpt>
      <trkpt lat="41.58112" lon="9.0899">
        <ele>1157.56</ele>
        <time>2016-04-25T13:21:35Z</time>
      </trkpt>
      <trkpt lat="41.58109" lon="9.08994">
        <ele>1155.64</ele>
        <time>2016-04-25T13:21:47Z</time>
      </trkpt>
      <trkpt lat="41.58106" lon="9.08995">
        <ele>1155.64</ele>
        <time>2016-04-25T13:22:07Z</time>
      </trkpt>
      <trkpt lat="41.58107" lon="9.08994">
        <ele>1155.64</ele>
        <time>2016-04-25T13:22:23Z</time>
      </trkpt>
      <trkpt lat="41.58109" lon="9.08991">
        <ele>1155.64</ele>
        <time>2016-04-25T13:22:39Z</time>
      </trkpt>
      <trkpt lat="41.58108" lon="9.08995">
        <ele>1155.64</ele>
        <time>2016-04-25T13:23:00Z</time>
      </trkpt>
      <trkpt lat="41.58105" lon="9.08998">
        <ele>1155.64</ele>
        <time>2016-04-25T13:23:13Z</time>
      </trkpt>
      <trkpt lat="41.58103" lon="9.08999">
        <ele>1156.6</ele>
        <time>2016-04-25T13:23:28Z</time>
      </trkpt>
      <trkpt lat="41.581" lon="9.09001">
        <ele>1155.64</ele>
        <time>2016-04-25T13:23:46Z</time>
      </trkpt>
      <trkpt lat="41.58099" lon="9.09005">
        <ele>1155.64</ele>
        <time>2016-04-25T13:24:05Z</time>
      </trkpt>
      <trkpt lat="41.58095" lon="9.09008">
        <ele>1155.64</ele>
        <time>2016-04-25T13:24:17Z</time>
      </trkpt>
      <trkpt lat="41.58088" lon="9.09012">
        <ele>1152.76</ele>
        <time>2016-04-25T13:24:31Z</time>
      </trkpt>
      <trkpt lat="41.58081" lon="9.09015">
        <ele>1151.8</ele>
        <time>2016-04-25T13:24:45Z</time>
      </trkpt>
      <trkpt lat="41.58074" lon="9.09019">
        <ele>1151.32</ele>
        <time>2016-04-25T13:24:59Z</time>
      </trkpt>
      <trkpt lat="41.58071" lon="9.09021">
        <ele>1152.76</ele>
        <time>2016-04-25T13:25:04Z</time>
      </trkpt>
      <trkpt lat="41.58069" lon="9.09022">
        <ele>1153.24</ele>
        <time>2016-04-25T13:25:16Z</time>
      </trkpt>
      <trkpt lat="41.58069" lon="9.09025">
        <ele>1153.24</ele>
        <time>2016-04-25T13:25:25Z</time>
      </trkpt>
      <trkpt lat="41.58067" lon="9.09027">
        <ele>1153.24</ele>
        <time>2016-04-25T13:25:39Z</time>
      </trkpt>
      <trkpt lat="41.58066" lon="9.09027">
        <ele>1153.24</ele>
        <time>2016-04-25T13:25:59Z</time>
      </trkpt>
      <trkpt lat="41.58067" lon="9.09026">
        <ele>1153.24</ele>
        <time>2016-04-25T13:26:19Z</time>
      </trkpt>
      <trkpt lat="41.58066" lon="9.09024">
        <ele>1153.24</ele>
        <time>2016-04-25T13:26:43Z</time>
      </trkpt>
      <trkpt lat="41.58066" lon="9.09022">
        <ele>1153.24</ele>
        <time>2016-04-25T13:27:06Z</time>
      </trkpt>
      <trkpt lat="41.58065" lon="9.09021">
        <ele>1153.24</ele>
        <time>2016-04-25T13:27:23Z</time>
      </trkpt>
      <trkpt lat="41.58065" lon="9.09022">
        <ele>1153.24</ele>
        <time>2016-04-25T13:27:44Z</time>
      </trkpt>
      <trkpt lat="41.58068" lon="9.09025">
        <ele>1153.24</ele>
        <time>2016-04-25T13:28:05Z</time>
      </trkpt>
      <trkpt lat="41.58068" lon="9.09024">
        <ele>1152.28</ele>
        <time>2016-04-25T13:28:35Z</time>
      </trkpt>
      <trkpt lat="41.58068" lon="9.09024">
        <ele>1152.28</ele>
        <time>2016-04-25T13:28:53Z</time>
      </trkpt>
      <trkpt lat="41.58065" lon="9.09026">
        <ele>1152.28</ele>
        <time>2016-04-25T13:29:29Z</time>
      </trkpt>
      <trkpt lat="41.58066" lon="9.09027">
        <ele>1152.28</ele>
        <time>2016-04-25T13:29:56Z</time>
      </trkpt>
      <trkpt lat="41.58066" lon="9.09023">
        <ele>1152.28</ele>
        <time>2016-04-25T13:30:27Z</time>
      </trkpt>
      <trkpt lat="41.58067" lon="9.09025">
        <ele>1152.28</ele>
        <time>2016-04-25T13:30:49Z</time>
      </trkpt>
      <trkpt lat="41.58066" lon="9.09024">
        <ele>1152.28</ele>
        <time>2016-04-25T13:31:14Z</time>
      </trkpt>
      <trkpt lat="41.58066" lon="9.09023">
        <ele>1153.24</ele>
        <time>2016-04-25T13:31:41Z</time>
      </trkpt>
      <trkpt lat="41.58067" lon="9.09025">
        <ele>1153.24</ele>
        <time>2016-04-25T13:32:06Z</time>
      </trkpt>
      <trkpt lat="41.58067" lon="9.09025">
        <ele>1153.72</ele>
        <time>2016-04-25T13:32:34Z</time>
      </trkpt>
      <trkpt lat="41.58068" lon="9.09024">
        <ele>1153.24</ele>
        <time>2016-04-25T13:32:59Z</time>
      </trkpt>
      <trkpt lat="41.58066" lon="9.09026">
        <ele>1153.24</ele>
        <time>2016-04-25T13:33:27Z</time>
      </trkpt>
      <trkpt lat="41.58066" lon="9.09025">
        <ele>1153.24</ele>
        <time>2016-04-25T13:33:54Z</time>
      </trkpt>
      <trkpt lat="41.58064" lon="9.09024">
        <ele>1151.8</ele>
        <time>2016-04-25T13:34:00Z</time>
      </trkpt>
      <trkpt lat="41.58063" lon="9.09024">
        <ele>1150.84</ele>
        <time>2016-04-25T13:34:13Z</time>
      </trkpt>
      <trkpt lat="41.5806" lon="9.09025">
        <ele>1150.35</ele>
        <time>2016-04-25T13:34:26Z</time>
      </trkpt>
      <trkpt lat="41.58058" lon="9.09023">
        <ele>1148.91</ele>
        <time>2016-04-25T13:34:38Z</time>
      </trkpt>
      <trkpt lat="41.58056" lon="9.09023">
        <ele>1147.95</ele>
        <time>2016-04-25T13:34:59Z</time>
      </trkpt>
      <trkpt lat="41.58056" lon="9.09019">
        <ele>1146.03</ele>
        <time>2016-04-25T13:35:10Z</time>
      </trkpt>
      <trkpt lat="41.58055" lon="9.09013">
        <ele>1144.11</ele>
        <time>2016-04-25T13:35:22Z</time>
      </trkpt>
      <trkpt lat="41.58052" lon="9.09011">
        <ele>1141.7</ele>
        <time>2016-04-25T13:35:33Z</time>
      </trkpt>
      <trkpt lat="41.58047" lon="9.09012">
        <ele>1140.74</ele>
        <time>2016-04-25T13:35:45Z</time>
      </trkpt>
      <trkpt lat="41.58043" lon="9.09015">
        <ele>1139.78</ele>
        <time>2016-04-25T13:35:57Z</time>
      </trkpt>
      <trkpt lat="41.58039" lon="9.09016">
        <ele>1137.86</ele>
        <time>2016-04-25T13:36:08Z</time>
      </trkpt>
      <trkpt lat="41.58036" lon="9.09016">
        <ele>1135.94</ele>
        <time>2016-04-25T13:36:24Z</time>
      </trkpt>
      <trkpt lat="41.58029" lon="9.09014">
        <ele>1134.97</ele>
        <time>2016-04-25T13:36:37Z</time>
      </trkpt>
      <trkpt lat="41.58024" lon="9.09014">
        <ele>1134.01</ele>
        <time>2016-04-25T13:36:48Z</time>
      </trkpt>
      <trkpt lat="41.58018" lon="9.09013">
        <ele>1133.53</ele>
        <time>2016-04-25T13:37:02Z</time>
      </trkpt>
      <trkpt lat="41.58014" lon="9.09016">
        <ele>1133.05</ele>
        <time>2016-04-25T13:37:22Z</time>
      </trkpt>
      <trkpt lat="41.58007" lon="9.09018">
        <ele>1132.09</ele>
        <time>2016-04-25T13:37:33Z</time>
      </trkpt>
      <trkpt lat="41.58001" lon="9.09017">
        <ele>1130.17</ele>
        <time>2016-04-25T13:37:46Z</time>
      </trkpt>
      <trkpt lat="41.57992" lon="9.09019">
        <ele>1128.24</ele>
        <time>2016-04-25T13:38:00Z</time>
      </trkpt>
      <trkpt lat="41.57985" lon="9.09018">
        <ele>1125.36</ele>
        <time>2016-04-25T13:38:15Z</time>
      </trkpt>
      <trkpt lat="41.57981" lon="9.09017">
        <ele>1124.4</ele>
        <time>2016-04-25T13:38:28Z</time>
      </trkpt>
      <trkpt lat="41.57975" lon="9.09018">
        <ele>1122.96</ele>
        <time>2016-04-25T13:38:38Z</time>
      </trkpt>
      <trkpt lat="41.5797" lon="9.09015">
        <ele>1121.03</ele>
        <time>2016-04-25T13:38:50Z</time>
      </trkpt>
      <trkpt lat="41.57966" lon="9.0901">
        <ele>1119.59</ele>
        <time>2016-04-25T13:39:03Z</time>
      </trkpt>
      <trkpt lat="41.57965" lon="9.09007">
        <ele>1118.63</ele>
        <time>2016-04-25T13:39:13Z</time>
      </trkpt>
      <trkpt lat="41.57966" lon="9.09003">
        <ele>1117.19</ele>
        <time>2016-04-25T13:39:24Z</time>
      </trkpt>
      <trkpt lat="41.57969" lon="9.08996">
        <ele>1116.71</ele>
        <time>2016-04-25T13:39:37Z</time>
      </trkpt>
      <trkpt lat="41.57967" lon="9.08997">
        <ele>1114.79</ele>
        <time>2016-04-25T13:39:53Z</time>
      </trkpt>
      <trkpt lat="41.57963" lon="9.08997">
        <ele>1113.34</ele>
        <time>2016-04-25T13:40:05Z</time>
      </trkpt>
      <trkpt lat="41.57959" lon="9.08998">
        <ele>1111.9</ele>
        <time>2016-04-25T13:40:17Z</time>
      </trkpt>
      <trkpt lat="41.57955" lon="9.08995">
        <ele>1109.98</ele>
        <time>2016-04-25T13:40:31Z</time>
      </trkpt>
      <trkpt lat="41.57951" lon="9.08994">
        <ele>1109.5</ele>
        <time>2016-04-25T13:40:47Z</time>
      </trkpt>
      <trkpt lat="41.57947" lon="9.08993">
        <ele>1108.06</ele>
        <time>2016-04-25T13:40:59Z</time>
      </trkpt>
      <trkpt lat="41.57944" lon="9.08989">
        <ele>1106.61</ele>
        <time>2016-04-25T13:41:10Z</time>
      </trkpt>
      <trkpt lat="41.5794" lon="9.08991">
        <ele>1106.13</ele>
        <time>2016-04-25T13:41:26Z</time>
      </trkpt>
      <trkpt lat="41.57936" lon="9.08992">
        <ele>1104.69</ele>
        <time>2016-04-25T13:41:40Z</time>
      </trkpt>
      <trkpt lat="41.57935" lon="9.08991">
        <ele>1103.25</ele>
        <time>2016-04-25T13:41:44Z</time>
      </trkpt>
      <trkpt lat="41.5793" lon="9.08994">
        <ele>1101.81</ele>
        <time>2016-04-25T13:41:56Z</time>
      </trkpt>
      <trkpt lat="41.57927" lon="9.08993">
        <ele>1099.89</ele>
        <time>2016-04-25T13:42:11Z</time>
      </trkpt>
      <trkpt lat="41.57926" lon="9.08989">
        <ele>1098.44</ele>
        <time>2016-04-25T13:42:24Z</time>
      </trkpt>
      <trkpt lat="41.57922" lon="9.0899">
        <ele>1096.52</ele>
        <time>2016-04-25T13:42:34Z</time>
      </trkpt>
      <trkpt lat="41.57918" lon="9.08993">
        <ele>1095.56</ele>
        <time>2016-04-25T13:42:45Z</time>
      </trkpt>
      <trkpt lat="41.57914" lon="9.08992">
        <ele>1094.12</ele>
        <time>2016-04-25T13:42:57Z</time>
      </trkpt>
      <trkpt lat="41.57911" lon="9.08994">
        <ele>1092.68</ele>
        <time>2016-04-25T13:43:06Z</time>
      </trkpt>
      <trkpt lat="41.57907" lon="9.08991">
        <ele>1091.23</ele>
        <time>2016-04-25T13:43:18Z</time>
      </trkpt>
      <trkpt lat="41.57907" lon="9.08992">
        <ele>1090.27</ele>
        <time>2016-04-25T13:43:26Z</time>
      </trkpt>
      <trkpt lat="41.57907" lon="9.08996">
        <ele>1090.27</ele>
        <time>2016-04-25T13:43:46Z</time>
      </trkpt>
      <trkpt lat="41.57903" lon="9.09">
        <ele>1088.35</ele>
        <time>2016-04-25T13:43:56Z</time>
      </trkpt>
      <trkpt lat="41.57898" lon="9.09001">
        <ele>1087.39</ele>
        <time>2016-04-25T13:44:09Z</time>
      </trkpt>
      <trkpt lat="41.57894" lon="9.09002">
        <ele>1085.95</ele>
        <time>2016-04-25T13:44:21Z</time>
      </trkpt>
      <trkpt lat="41.5789" lon="9.09004">
        <ele>1084.99</ele>
        <time>2016-04-25T13:44:34Z</time>
      </trkpt>
      <trkpt lat="41.57884" lon="9.09006">
        <ele>1083.54</ele>
        <time>2016-04-25T13:44:45Z</time>
      </trkpt>
      <trkpt lat="41.57879" lon="9.09008">
        <ele>1082.1</ele>
        <time>2016-04-25T13:44:58Z</time>
      </trkpt>
      <trkpt lat="41.57873" lon="9.09007">
        <ele>1079.7</ele>
        <time>2016-04-25T13:45:11Z</time>
      </trkpt>
      <trkpt lat="41.5787" lon="9.09005">
        <ele>1077.78</ele>
        <time>2016-04-25T13:45:24Z</time>
      </trkpt>
      <trkpt lat="41.57864" lon="9.09005">
        <ele>1076.81</ele>
        <time>2016-04-25T13:45:36Z</time>
      </trkpt>
      <trkpt lat="41.57857" lon="9.09006">
        <ele>1075.37</ele>
        <time>2016-04-25T13:45:49Z</time>
      </trkpt>
      <trkpt lat="41.57854" lon="9.09003">
        <ele>1074.41</ele>
        <time>2016-04-25T13:46:05Z</time>
      </trkpt>
      <trkpt lat="41.5785" lon="9.08999">
        <ele>1072.49</ele>
        <time>2016-04-25T13:46:12Z</time>
      </trkpt>
      <trkpt lat="41.57847" lon="9.08997">
        <ele>1072.49</ele>
        <time>2016-04-25T13:46:23Z</time>
      </trkpt>
      <trkpt lat="41.57844" lon="9.08991">
        <ele>1071.05</ele>
        <time>2016-04-25T13:46:35Z</time>
      </trkpt>
      <trkpt lat="41.57841" lon="9.08981">
        <ele>1069.12</ele>
        <time>2016-04-25T13:46:48Z</time>
      </trkpt>
      <trkpt lat="41.5784" lon="9.0897">
        <ele>1066.24</ele>
        <time>2016-04-25T13:47:01Z</time>
      </trkpt>
      <trkpt lat="41.57834" lon="9.08965">
        <ele>1065.76</ele>
        <time>2016-04-25T13:47:13Z</time>
      </trkpt>
      <trkpt lat="41.57833" lon="9.08961">
        <ele>1062.87</ele>
        <time>2016-04-25T13:47:25Z</time>
      </trkpt>
      <trkpt lat="41.57835" lon="9.08955">
        <ele>1062.39</ele>
        <time>2016-04-25T13:47:38Z</time>
      </trkpt>
      <trkpt lat="41.57839" lon="9.08947">
        <ele>1060.47</ele>
        <time>2016-04-25T13:47:52Z</time>
      </trkpt>
      <trkpt lat="41.57841" lon="9.0894">
        <ele>1058.55</ele>
        <time>2016-04-25T13:48:04Z</time>
      </trkpt>
      <trkpt lat="41.57844" lon="9.08937">
        <ele>1058.55</ele>
        <time>2016-04-25T13:48:15Z</time>
      </trkpt>
      <trkpt lat="41.57844" lon="9.08931">
        <ele>1057.59</ele>
        <time>2016-04-25T13:48:29Z</time>
      </trkpt>
      <trkpt lat="41.57845" lon="9.08927">
        <ele>1055.18</ele>
        <time>2016-04-25T13:48:47Z</time>
      </trkpt>
      <trkpt lat="41.57848" lon="9.08924">
        <ele>1054.7</ele>
        <time>2016-04-25T13:49:05Z</time>
      </trkpt>
      <trkpt lat="41.57851" lon="9.08923">
        <ele>1056.15</ele>
        <time>2016-04-25T13:49:40Z</time>
      </trkpt>
      <trkpt lat="41.57846" lon="9.08928">
        <ele>1056.63</ele>
        <time>2016-04-25T13:49:57Z</time>
      </trkpt>
      <trkpt lat="41.57841" lon="9.08926">
        <ele>1056.63</ele>
        <time>2016-04-25T13:50:23Z</time>
      </trkpt>
      <trkpt lat="41.57839" lon="9.08923">
        <ele>1055.67</ele>
        <time>2016-04-25T13:50:31Z</time>
      </trkpt>
      <trkpt lat="41.57841" lon="9.08919">
        <ele>1054.7</ele>
        <time>2016-04-25T13:50:43Z</time>
      </trkpt>
      <trkpt lat="41.57842" lon="9.08914">
        <ele>1053.74</ele>
        <time>2016-04-25T13:50:55Z</time>
      </trkpt>
      <trkpt lat="41.57843" lon="9.08912">
        <ele>1052.78</ele>
        <time>2016-04-25T13:51:13Z</time>
      </trkpt>
      <trkpt lat="41.57843" lon="9.08908">
        <ele>1050.38</ele>
        <time>2016-04-25T13:51:28Z</time>
      </trkpt>
      <trkpt lat="41.57847" lon="9.08904">
        <ele>1048.45</ele>
        <time>2016-04-25T13:51:40Z</time>
      </trkpt>
      <trkpt lat="41.57844" lon="9.08898">
        <ele>1045.57</ele>
        <time>2016-04-25T13:51:55Z</time>
      </trkpt>
      <trkpt lat="41.57846" lon="9.08894">
        <ele>1044.13</ele>
        <time>2016-04-25T13:52:08Z</time>
      </trkpt>
      <trkpt lat="41.57851" lon="9.08888">
        <ele>1042.69</ele>
        <time>2016-04-25T13:52:26Z</time>
      </trkpt>
      <trkpt lat="41.57848" lon="9.0888">
        <ele>1039.8</ele>
        <time>2016-04-25T13:52:43Z</time>
      </trkpt>
      <trkpt lat="41.57847" lon="9.08876">
        <ele>1038.84</ele>
        <time>2016-04-25T13:53:04Z</time>
      </trkpt>
      <trkpt lat="41.57844" lon="9.08871">
        <ele>1036.92</ele>
        <time>2016-04-25T13:53:23Z</time>
      </trkpt>
      <trkpt lat="41.57839" lon="9.08872">
        <ele>1034.52</ele>
        <time>2016-04-25T13:53:35Z</time>
      </trkpt>
      <trkpt lat="41.57836" lon="9.08872">
        <ele>1032.11</ele>
        <time>2016-04-25T13:53:48Z</time>
      </trkpt>
      <trkpt lat="41.57836" lon="9.08868">
        <ele>1028.27</ele>
        <time>2016-04-25T13:54:00Z</time>
      </trkpt>
      <trkpt lat="41.57831" lon="9.08865">
        <ele>1026.83</ele>
        <time>2016-04-25T13:54:16Z</time>
      </trkpt>
      <trkpt lat="41.57831" lon="9.08863">
        <ele>1028.27</ele>
        <time>2016-04-25T13:54:26Z</time>
      </trkpt>
      <trkpt lat="41.57825" lon="9.08864">
        <ele>1028.75</ele>
        <time>2016-04-25T13:54:42Z</time>
      </trkpt>
      <trkpt lat="41.57823" lon="9.08864">
        <ele>1027.31</ele>
        <time>2016-04-25T13:54:45Z</time>
      </trkpt>
      <trkpt lat="41.57818" lon="9.08863">
        <ele>1026.34</ele>
        <time>2016-04-25T13:54:58Z</time>
      </trkpt>
      <trkpt lat="41.57811" lon="9.08859">
        <ele>1024.42</ele>
        <time>2016-04-25T13:55:12Z</time>
      </trkpt>
      <trkpt lat="41.57806" lon="9.0886">
        <ele>1022.5</ele>
        <time>2016-04-25T13:55:26Z</time>
      </trkpt>
      <trkpt lat="41.57805" lon="9.08858">
        <ele>1020.58</ele>
        <time>2016-04-25T13:55:39Z</time>
      </trkpt>
      <trkpt lat="41.578" lon="9.08856">
        <ele>1019.13</ele>
        <time>2016-04-25T13:55:57Z</time>
      </trkpt>
      <trkpt lat="41.57792" lon="9.08844">
        <ele>1016.73</ele>
        <time>2016-04-25T13:56:12Z</time>
      </trkpt>
      <trkpt lat="41.57789" lon="9.08838">
        <ele>1014.81</ele>
        <time>2016-04-25T13:56:25Z</time>
      </trkpt>
      <trkpt lat="41.57785" lon="9.08833">
        <ele>1012.89</ele>
        <time>2016-04-25T13:56:40Z</time>
      </trkpt>
      <trkpt lat="41.5778" lon="9.08822">
        <ele>1009.52</ele>
        <time>2016-04-25T13:56:54Z</time>
      </trkpt>
      <trkpt lat="41.57778" lon="9.08817">
        <ele>1008.08</ele>
        <time>2016-04-25T13:57:12Z</time>
      </trkpt>
      <trkpt lat="41.57777" lon="9.08814">
        <ele>1008.08</ele>
        <time>2016-04-25T13:57:34Z</time>
      </trkpt>
      <trkpt lat="41.57773" lon="9.08817">
        <ele>1008.08</ele>
        <time>2016-04-25T13:57:55Z</time>
      </trkpt>
      <trkpt lat="41.57766" lon="9.08815">
        <ele>1006.16</ele>
        <time>2016-04-25T13:58:09Z</time>
      </trkpt>
      <trkpt lat="41.5776" lon="9.08815">
        <ele>1005.68</ele>
        <time>2016-04-25T13:58:25Z</time>
      </trkpt>
      <trkpt lat="41.57758" lon="9.0881">
        <ele>1004.72</ele>
        <time>2016-04-25T13:58:41Z</time>
      </trkpt>
      <trkpt lat="41.57752" lon="9.08802">
        <ele>1002.79</ele>
        <time>2016-04-25T13:58:55Z</time>
      </trkpt>
      <trkpt lat="41.57747" lon="9.08794">
        <ele>1000.87</ele>
        <time>2016-04-25T13:59:12Z</time>
      </trkpt>
      <trkpt lat="41.57744" lon="9.08787">
        <ele>999.43</ele>
        <time>2016-04-25T13:59:31Z</time>
      </trkpt>
      <trkpt lat="41.57743" lon="9.08777">
        <ele>998.47</ele>
        <time>2016-04-25T13:59:49Z</time>
      </trkpt>
      <trkpt lat="41.57746" lon="9.08768">
        <ele>998.47</ele>
        <time>2016-04-25T14:00:05Z</time>
      </trkpt>
      <trkpt lat="41.5774" lon="9.08764">
        <ele>998.47</ele>
        <time>2016-04-25T14:00:25Z</time>
      </trkpt>
      <trkpt lat="41.57734" lon="9.08765">
        <ele>998.47</ele>
        <time>2016-04-25T14:00:43Z</time>
      </trkpt>
      <trkpt lat="41.57732" lon="9.08762">
        <ele>998.47</ele>
        <time>2016-04-25T14:00:59Z</time>
      </trkpt>
      <trkpt lat="41.57734" lon="9.08754">
        <ele>999.43</ele>
        <time>2016-04-25T14:01:15Z</time>
      </trkpt>
      <trkpt lat="41.57731" lon="9.08759">
        <ele>999.43</ele>
        <time>2016-04-25T14:01:33Z</time>
      </trkpt>
      <trkpt lat="41.57728" lon="9.08764">
        <ele>999.43</ele>
        <time>2016-04-25T14:01:49Z</time>
      </trkpt>
      <trkpt lat="41.57721" lon="9.08764">
        <ele>999.43</ele>
        <time>2016-04-25T14:02:07Z</time>
      </trkpt>
      <trkpt lat="41.57711" lon="9.0876">
        <ele>998.47</ele>
        <time>2016-04-25T14:02:22Z</time>
      </trkpt>
      <trkpt lat="41.57708" lon="9.08755">
        <ele>998.47</ele>
        <time>2016-04-25T14:02:42Z</time>
      </trkpt>
      <trkpt lat="41.57704" lon="9.08748">
        <ele>998.47</ele>
        <time>2016-04-25T14:02:54Z</time>
      </trkpt>
      <trkpt lat="41.57699" lon="9.08744">
        <ele>997.99</ele>
        <time>2016-04-25T14:03:08Z</time>
      </trkpt>
      <trkpt lat="41.57698" lon="9.08744">
        <ele>999.43</ele>
        <time>2016-04-25T14:03:18Z</time>
      </trkpt>
      <trkpt lat="41.57695" lon="9.08737">
        <ele>999.43</ele>
        <time>2016-04-25T14:03:35Z</time>
      </trkpt>
      <trkpt lat="41.57696" lon="9.08729">
        <ele>1000.39</ele>
        <time>2016-04-25T14:03:50Z</time>
      </trkpt>
      <trkpt lat="41.57692" lon="9.0872">
        <ele>1001.35</ele>
        <time>2016-04-25T14:04:04Z</time>
      </trkpt>
      <trkpt lat="41.57689" lon="9.08709">
        <ele>1004.23</ele>
        <time>2016-04-25T14:04:23Z</time>
      </trkpt>
      <trkpt lat="41.5768" lon="9.08698">
        <ele>1006.64</ele>
        <time>2016-04-25T14:04:42Z</time>
      </trkpt>
      <trkpt lat="41.57677" lon="9.08685">
        <ele>1007.6</ele>
        <time>2016-04-25T14:05:00Z</time>
      </trkpt>
      <trkpt lat="41.57679" lon="9.08679">
        <ele>1010</ele>
        <time>2016-04-25T14:05:16Z</time>
      </trkpt>
      <trkpt lat="41.5768" lon="9.08669">
        <ele>1010.96</ele>
        <time>2016-04-25T14:05:34Z</time>
      </trkpt>
      <trkpt lat="41.57675" lon="9.08657">
        <ele>1012.89</ele>
        <time>2016-04-25T14:05:50Z</time>
      </trkpt>
      <trkpt lat="41.57668" lon="9.08652">
        <ele>1012.89</ele>
        <time>2016-04-25T14:06:02Z</time>
      </trkpt>
      <trkpt lat="41.57663" lon="9.08646">
        <ele>1011.44</ele>
        <time>2016-04-25T14:06:11Z</time>
      </trkpt>
      <trkpt lat="41.57657" lon="9.0864">
        <ele>1010.48</ele>
        <time>2016-04-25T14:06:26Z</time>
      </trkpt>
      <trkpt lat="41.57648" lon="9.08636">
        <ele>1008.08</ele>
        <time>2016-04-25T14:06:42Z</time>
      </trkpt>
      <trkpt lat="41.57642" lon="9.08632">
        <ele>1007.12</ele>
        <time>2016-04-25T14:06:55Z</time>
      </trkpt>
      <trkpt lat="41.57637" lon="9.08629">
        <ele>1005.68</ele>
        <time>2016-04-25T14:07:07Z</time>
      </trkpt>
      <trkpt lat="41.57631" lon="9.08626">
        <ele>1003.75</ele>
        <time>2016-04-25T14:07:17Z</time>
      </trkpt>
      <trkpt lat="41.57624" lon="9.08621">
        <ele>1001.35</ele>
        <time>2016-04-25T14:07:31Z</time>
      </trkpt>
      <trkpt lat="41.57619" lon="9.0862">
        <ele>1000.87</ele>
        <time>2016-04-25T14:07:43Z</time>
      </trkpt>
      <trkpt lat="41.57615" lon="9.08609">
        <ele>1000.39</ele>
        <time>2016-04-25T14:07:58Z</time>
      </trkpt>
      <trkpt lat="41.57612" lon="9.08601">
        <ele>1000.39</ele>
        <time>2016-04-25T14:08:10Z</time>
      </trkpt>
      <trkpt lat="41.5761" lon="9.086">
        <ele>1000.39</ele>
        <time>2016-04-25T14:08:29Z</time>
      </trkpt>
      <trkpt lat="41.57609" lon="9.086">
        <ele>1000.87</ele>
        <time>2016-04-25T14:08:42Z</time>
      </trkpt>
      <trkpt lat="41.57607" lon="9.08593">
        <ele>1002.31</ele>
        <time>2016-04-25T14:08:59Z</time>
      </trkpt>
      <trkpt lat="41.57601" lon="9.08593">
        <ele>1001.35</ele>
        <time>2016-04-25T14:09:11Z</time>
      </trkpt>
      <trkpt lat="41.57602" lon="9.08589">
        <ele>1000.87</ele>
        <time>2016-04-25T14:09:28Z</time>
      </trkpt>
      <trkpt lat="41.57602" lon="9.08589">
        <ele>1000.87</ele>
        <time>2016-04-25T14:09:55Z</time>
      </trkpt>
      <trkpt lat="41.57605" lon="9.08588">
        <ele>1002.31</ele>
        <time>2016-04-25T14:10:05Z</time>
      </trkpt>
      <trkpt lat="41.5761" lon="9.08584">
        <ele>1004.72</ele>
        <time>2016-04-25T14:10:18Z</time>
      </trkpt>
      <trkpt lat="41.5761" lon="9.0857">
        <ele>1005.68</ele>
        <time>2016-04-25T14:10:34Z</time>
      </trkpt>
      <trkpt lat="41.57605" lon="9.08561">
        <ele>1007.6</ele>
        <time>2016-04-25T14:10:47Z</time>
      </trkpt>
      <trkpt lat="41.57601" lon="9.08552">
        <ele>1008.56</ele>
        <time>2016-04-25T14:11:01Z</time>
      </trkpt>
      <trkpt lat="41.576" lon="9.0855">
        <ele>1007.6</ele>
        <time>2016-04-25T14:11:03Z</time>
      </trkpt>
      <trkpt lat="41.57599" lon="9.08545">
        <ele>1009.04</ele>
        <time>2016-04-25T14:11:08Z</time>
      </trkpt>
      <trkpt lat="41.57595" lon="9.08535">
        <ele>1011.44</ele>
        <time>2016-04-25T14:11:21Z</time>
      </trkpt>
      <trkpt lat="41.57591" lon="9.08524">
        <ele>1013.85</ele>
        <time>2016-04-25T14:11:35Z</time>
      </trkpt>
      <trkpt lat="41.57587" lon="9.08509">
        <ele>1015.29</ele>
        <time>2016-04-25T14:11:51Z</time>
      </trkpt>
      <trkpt lat="41.57588" lon="9.08502">
        <ele>1015.29</ele>
        <time>2016-04-25T14:11:59Z</time>
      </trkpt>
      <trkpt lat="41.57585" lon="9.08498">
        <ele>1015.29</ele>
        <time>2016-04-25T14:12:04Z</time>
      </trkpt>
      <trkpt lat="41.57571" lon="9.08496">
        <ele>1015.29</ele>
        <time>2016-04-25T14:12:19Z</time>
      </trkpt>
      <trkpt lat="41.57562" lon="9.08497">
        <ele>1015.29</ele>
        <time>2016-04-25T14:12:32Z</time>
      </trkpt>
      <trkpt lat="41.57566" lon="9.08488">
        <ele>1012.89</ele>
        <time>2016-04-25T14:12:44Z</time>
      </trkpt>
      <trkpt lat="41.57568" lon="9.08475">
        <ele>1010</ele>
        <time>2016-04-25T14:12:59Z</time>
      </trkpt>
      <trkpt lat="41.57567" lon="9.08474">
        <ele>1010</ele>
        <time>2016-04-25T14:13:01Z</time>
      </trkpt>
      <trkpt lat="41.5756" lon="9.08465">
        <ele>1008.08</ele>
        <time>2016-04-25T14:13:16Z</time>
      </trkpt>
      <trkpt lat="41.5755" lon="9.08463">
        <ele>1006.16</ele>
        <time>2016-04-25T14:13:33Z</time>
      </trkpt>
      <trkpt lat="41.57547" lon="9.08457">
        <ele>1002.79</ele>
        <time>2016-04-25T14:13:49Z</time>
      </trkpt>
      <trkpt lat="41.57535" lon="9.08451">
        <ele>1000.39</ele>
        <time>2016-04-25T14:14:06Z</time>
      </trkpt>
      <trkpt lat="41.5752" lon="9.08456">
        <ele>998.95</ele>
        <time>2016-04-25T14:14:23Z</time>
      </trkpt>
      <trkpt lat="41.57515" lon="9.0846">
        <ele>998.95</ele>
        <time>2016-04-25T14:14:27Z</time>
      </trkpt>
      <trkpt lat="41.57501" lon="9.08466">
        <ele>997.99</ele>
        <time>2016-04-25T14:14:42Z</time>
      </trkpt>
      <trkpt lat="41.57494" lon="9.08473">
        <ele>996.06</ele>
        <time>2016-04-25T14:14:54Z</time>
      </trkpt>
      <trkpt lat="41.57486" lon="9.08486">
        <ele>995.1</ele>
        <time>2016-04-25T14:15:07Z</time>
      </trkpt>
      <trkpt lat="41.57478" lon="9.08491">
        <ele>993.18</ele>
        <time>2016-04-25T14:15:21Z</time>
      </trkpt>
      <trkpt lat="41.57476" lon="9.08498">
        <ele>993.18</ele>
        <time>2016-04-25T14:15:26Z</time>
      </trkpt>
      <trkpt lat="41.57475" lon="9.08502">
        <ele>993.18</ele>
        <time>2016-04-25T14:15:29Z</time>
      </trkpt>
      <trkpt lat="41.57467" lon="9.08514">
        <ele>992.7</ele>
        <time>2016-04-25T14:15:43Z</time>
      </trkpt>
      <trkpt lat="41.57462" lon="9.08522">
        <ele>991.74</ele>
        <time>2016-04-25T14:15:54Z</time>
      </trkpt>
      <trkpt lat="41.57455" lon="9.08529">
        <ele>990.78</ele>
        <time>2016-04-25T14:16:07Z</time>
      </trkpt>
      <trkpt lat="41.57451" lon="9.0853">
        <ele>989.33</ele>
        <time>2016-04-25T14:16:11Z</time>
      </trkpt>
      <trkpt lat="41.57441" lon="9.08537">
        <ele>987.89</ele>
        <time>2016-04-25T14:16:25Z</time>
      </trkpt>
      <trkpt lat="41.57436" lon="9.08543">
        <ele>987.41</ele>
        <time>2016-04-25T14:16:30Z</time>
      </trkpt>
      <trkpt lat="41.57434" lon="9.08551">
        <ele>986.93</ele>
        <time>2016-04-25T14:16:35Z</time>
      </trkpt>
      <trkpt lat="41.57431" lon="9.08557">
        <ele>986.93</ele>
        <time>2016-04-25T14:16:39Z</time>
      </trkpt>
      <trkpt lat="41.57425" lon="9.08564">
        <ele>986.45</ele>
        <time>2016-04-25T14:16:46Z</time>
      </trkpt>
      <trkpt lat="41.57421" lon="9.08571">
        <ele>985.49</ele>
        <time>2016-04-25T14:16:52Z</time>
      </trkpt>
      <trkpt lat="41.57419" lon="9.08577">
        <ele>985.49</ele>
        <time>2016-04-25T14:16:56Z</time>
      </trkpt>
      <trkpt lat="41.57418" lon="9.08579">
        <ele>985.49</ele>
        <time>2016-04-25T14:16:58Z</time>
      </trkpt>
      <trkpt lat="41.57414" lon="9.08593">
        <ele>984.53</ele>
        <time>2016-04-25T14:17:09Z</time>
      </trkpt>
      <trkpt lat="41.57419" lon="9.08605">
        <ele>984.53</ele>
        <time>2016-04-25T14:17:19Z</time>
      </trkpt>
      <trkpt lat="41.57423" lon="9.0862">
        <ele>983.09</ele>
        <time>2016-04-25T14:17:33Z</time>
      </trkpt>
      <trkpt lat="41.57422" lon="9.08632">
        <ele>981.16</ele>
        <time>2016-04-25T14:17:46Z</time>
      </trkpt>
      <trkpt lat="41.57422" lon="9.08643">
        <ele>979.72</ele>
        <time>2016-04-25T14:17:59Z</time>
      </trkpt>
      <trkpt lat="41.57424" lon="9.08651">
        <ele>977.8</ele>
        <time>2016-04-25T14:18:11Z</time>
      </trkpt>
      <trkpt lat="41.57421" lon="9.08657">
        <ele>975.39</ele>
        <time>2016-04-25T14:18:23Z</time>
      </trkpt>
      <trkpt lat="41.57419" lon="9.08663">
        <ele>973.47</ele>
        <time>2016-04-25T14:18:35Z</time>
      </trkpt>
      <trkpt lat="41.57419" lon="9.08671">
        <ele>972.03</ele>
        <time>2016-04-25T14:18:48Z</time>
      </trkpt>
      <trkpt lat="41.57417" lon="9.08682">
        <ele>969.63</ele>
        <time>2016-04-25T14:19:01Z</time>
      </trkpt>
      <trkpt lat="41.57412" lon="9.08685">
        <ele>969.15</ele>
        <time>2016-04-25T14:19:12Z</time>
      </trkpt>
      <trkpt lat="41.57406" lon="9.08685">
        <ele>966.74</ele>
        <time>2016-04-25T14:19:24Z</time>
      </trkpt>
      <trkpt lat="41.57404" lon="9.08692">
        <ele>964.82</ele>
        <time>2016-04-25T14:19:38Z</time>
      </trkpt>
      <trkpt lat="41.57401" lon="9.087">
        <ele>962.42</ele>
        <time>2016-04-25T14:19:52Z</time>
      </trkpt>
      <trkpt lat="41.57397" lon="9.0871">
        <ele>960.49</ele>
        <time>2016-04-25T14:20:05Z</time>
      </trkpt>
      <trkpt lat="41.57397" lon="9.08714">
        <ele>960.01</ele>
        <time>2016-04-25T14:20:11Z</time>
      </trkpt>
      <trkpt lat="41.57394" lon="9.08728">
        <ele>958.09</ele>
        <time>2016-04-25T14:20:25Z</time>
      </trkpt>
      <trkpt lat="41.5739" lon="9.08741">
        <ele>956.65</ele>
        <time>2016-04-25T14:20:38Z</time>
      </trkpt>
      <trkpt lat="41.5739" lon="9.08759">
        <ele>956.17</ele>
        <time>2016-04-25T14:20:53Z</time>
      </trkpt>
      <trkpt lat="41.57387" lon="9.0877">
        <ele>955.21</ele>
        <time>2016-04-25T14:21:02Z</time>
      </trkpt>
      <trkpt lat="41.57387" lon="9.08773">
        <ele>955.21</ele>
        <time>2016-04-25T14:21:04Z</time>
      </trkpt>
      <trkpt lat="41.57388" lon="9.08788">
        <ele>953.28</ele>
        <time>2016-04-25T14:21:16Z</time>
      </trkpt>
      <trkpt lat="41.57388" lon="9.08805">
        <ele>950.88</ele>
        <time>2016-04-25T14:21:31Z</time>
      </trkpt>
      <trkpt lat="41.57394" lon="9.0881">
        <ele>949.44</ele>
        <time>2016-04-25T14:21:44Z</time>
      </trkpt>
      <trkpt lat="41.57402" lon="9.08814">
        <ele>946.07</ele>
        <time>2016-04-25T14:21:59Z</time>
      </trkpt>
      <trkpt lat="41.57409" lon="9.08816">
        <ele>944.15</ele>
        <time>2016-04-25T14:22:14Z</time>
      </trkpt>
      <trkpt lat="41.57408" lon="9.08828">
        <ele>941.75</ele>
        <time>2016-04-25T14:22:28Z</time>
      </trkpt>
      <trkpt lat="41.57412" lon="9.08835">
        <ele>938.86</ele>
        <time>2016-04-25T14:22:41Z</time>
      </trkpt>
      <trkpt lat="41.57414" lon="9.08841">
        <ele>936.94</ele>
        <time>2016-04-25T14:22:55Z</time>
      </trkpt>
      <trkpt lat="41.57418" lon="9.08851">
        <ele>934.06</ele>
        <time>2016-04-25T14:23:13Z</time>
      </trkpt>
      <trkpt lat="41.57414" lon="9.08862">
        <ele>932.62</ele>
        <time>2016-04-25T14:23:37Z</time>
      </trkpt>
      <trkpt lat="41.57417" lon="9.08869">
        <ele>929.73</ele>
        <time>2016-04-25T14:23:53Z</time>
      </trkpt>
      <trkpt lat="41.57417" lon="9.08872">
        <ele>929.25</ele>
        <time>2016-04-25T14:24:14Z</time>
      </trkpt>
      <trkpt lat="41.57423" lon="9.08875">
        <ele>926.37</ele>
        <time>2016-04-25T14:24:34Z</time>
      </trkpt>
      <trkpt lat="41.57429" lon="9.08876">
        <ele>923.48</ele>
        <time>2016-04-25T14:24:50Z</time>
      </trkpt>
      <trkpt lat="41.57437" lon="9.08876">
        <ele>920.12</ele>
        <time>2016-04-25T14:25:06Z</time>
      </trkpt>
      <trkpt lat="41.57445" lon="9.08869">
        <ele>919.16</ele>
        <time>2016-04-25T14:25:22Z</time>
      </trkpt>
      <trkpt lat="41.57455" lon="9.08862">
        <ele>916.75</ele>
        <time>2016-04-25T14:25:37Z</time>
      </trkpt>
      <trkpt lat="41.57465" lon="9.08861">
        <ele>913.39</ele>
        <time>2016-04-25T14:25:54Z</time>
      </trkpt>
      <trkpt lat="41.57472" lon="9.08855">
        <ele>912.43</ele>
        <time>2016-04-25T14:26:12Z</time>
      </trkpt>
      <trkpt lat="41.57477" lon="9.08854">
        <ele>910.99</ele>
        <time>2016-04-25T14:26:28Z</time>
      </trkpt>
      <trkpt lat="41.57477" lon="9.08863">
        <ele>910.03</ele>
        <time>2016-04-25T14:26:45Z</time>
      </trkpt>
      <trkpt lat="41.57479" lon="9.08867">
        <ele>909.06</ele>
        <time>2016-04-25T14:27:02Z</time>
      </trkpt>
      <trkpt lat="41.5748" lon="9.08872">
        <ele>908.1</ele>
        <time>2016-04-25T14:27:19Z</time>
      </trkpt>
      <trkpt lat="41.57482" lon="9.08877">
        <ele>906.66</ele>
        <time>2016-04-25T14:27:34Z</time>
      </trkpt>
      <trkpt lat="41.57481" lon="9.0888">
        <ele>906.18</ele>
        <time>2016-04-25T14:27:47Z</time>
      </trkpt>
      <trkpt lat="41.57475" lon="9.08887">
        <ele>905.7</ele>
        <time>2016-04-25T14:28:03Z</time>
      </trkpt>
      <trkpt lat="41.57473" lon="9.08887">
        <ele>907.14</ele>
        <time>2016-04-25T14:28:07Z</time>
      </trkpt>
      <trkpt lat="41.57473" lon="9.08892">
        <ele>905.7</ele>
        <time>2016-04-25T14:28:26Z</time>
      </trkpt>
      <trkpt lat="41.57477" lon="9.08894">
        <ele>904.26</ele>
        <time>2016-04-25T14:28:43Z</time>
      </trkpt>
      <trkpt lat="41.57476" lon="9.08886">
        <ele>904.74</ele>
        <time>2016-04-25T14:29:15Z</time>
      </trkpt>
      <trkpt lat="41.5748" lon="9.08889">
        <ele>904.74</ele>
        <time>2016-04-25T14:29:48Z</time>
      </trkpt>
      <trkpt lat="41.57479" lon="9.08886">
        <ele>904.74</ele>
        <time>2016-04-25T14:30:23Z</time>
      </trkpt>
      <trkpt lat="41.57481" lon="9.0889">
        <ele>904.26</ele>
        <time>2016-04-25T14:30:53Z</time>
      </trkpt>
      <trkpt lat="41.5748" lon="9.08882">
        <ele>904.26</ele>
        <time>2016-04-25T14:31:24Z</time>
      </trkpt>
      <trkpt lat="41.57478" lon="9.08884">
        <ele>904.74</ele>
        <time>2016-04-25T14:31:59Z</time>
      </trkpt>
      <trkpt lat="41.57477" lon="9.0888">
        <ele>904.74</ele>
        <time>2016-04-25T14:32:36Z</time>
      </trkpt>
      <trkpt lat="41.57482" lon="9.08885">
        <ele>905.22</ele>
        <time>2016-04-25T14:33:07Z</time>
      </trkpt>
      <trkpt lat="41.57485" lon="9.08886">
        <ele>905.22</ele>
        <time>2016-04-25T14:33:40Z</time>
      </trkpt>
      <trkpt lat="41.57487" lon="9.08883">
        <ele>905.22</ele>
        <time>2016-04-25T14:34:21Z</time>
      </trkpt>
      <trkpt lat="41.57487" lon="9.08887">
        <ele>905.7</ele>
        <time>2016-04-25T14:34:51Z</time>
      </trkpt>
      <trkpt lat="41.57489" lon="9.0889">
        <ele>905.7</ele>
        <time>2016-04-25T14:35:29Z</time>
      </trkpt>
      <trkpt lat="41.57489" lon="9.08886">
        <ele>905.7</ele>
        <time>2016-04-25T14:36:04Z</time>
      </trkpt>
      <trkpt lat="41.5748" lon="9.08895">
        <ele>906.18</ele>
        <time>2016-04-25T14:36:42Z</time>
      </trkpt>
      <trkpt lat="41.57481" lon="9.08893">
        <ele>906.18</ele>
        <time>2016-04-25T14:37:24Z</time>
      </trkpt>
      <trkpt lat="41.57479" lon="9.08894">
        <ele>907.62</ele>
        <time>2016-04-25T14:37:55Z</time>
      </trkpt>
      <trkpt lat="41.57477" lon="9.08895">
        <ele>906.18</ele>
        <time>2016-04-25T14:38:02Z</time>
      </trkpt>
      <trkpt lat="41.57479" lon="9.08905">
        <ele>904.26</ele>
        <time>2016-04-25T14:38:19Z</time>
      </trkpt>
      <trkpt lat="41.5748" lon="9.08915">
        <ele>901.85</ele>
        <time>2016-04-25T14:38:35Z</time>
      </trkpt>
      <trkpt lat="41.57482" lon="9.08933">
        <ele>899.45</ele>
        <time>2016-04-25T14:38:52Z</time>
      </trkpt>
      <trkpt lat="41.5748" lon="9.08954">
        <ele>898.49</ele>
        <time>2016-04-25T14:39:07Z</time>
      </trkpt>
      <trkpt lat="41.57479" lon="9.08976">
        <ele>897.53</ele>
        <time>2016-04-25T14:39:20Z</time>
      </trkpt>
      <trkpt lat="41.57477" lon="9.08991">
        <ele>896.09</ele>
        <time>2016-04-25T14:39:34Z</time>
      </trkpt>
      <trkpt lat="41.5748" lon="9.09003">
        <ele>893.2</ele>
        <time>2016-04-25T14:39:47Z</time>
      </trkpt>
      <trkpt lat="41.5749" lon="9.0901">
        <ele>890.8</ele>
        <time>2016-04-25T14:40:03Z</time>
      </trkpt>
      <trkpt lat="41.5749" lon="9.09028">
        <ele>887.91</ele>
        <time>2016-04-25T14:40:18Z</time>
      </trkpt>
      <trkpt lat="41.5749" lon="9.09042">
        <ele>886.47</ele>
        <time>2016-04-25T14:40:33Z</time>
      </trkpt>
      <trkpt lat="41.57489" lon="9.09059">
        <ele>885.51</ele>
        <time>2016-04-25T14:40:47Z</time>
      </trkpt>
      <trkpt lat="41.57492" lon="9.09076">
        <ele>885.03</ele>
        <time>2016-04-25T14:41:00Z</time>
      </trkpt>
      <trkpt lat="41.57494" lon="9.09095">
        <ele>883.59</ele>
        <time>2016-04-25T14:41:14Z</time>
      </trkpt>
      <trkpt lat="41.57496" lon="9.09117">
        <ele>880.71</ele>
        <time>2016-04-25T14:41:29Z</time>
      </trkpt>
      <trkpt lat="41.57494" lon="9.0913">
        <ele>878.78</ele>
        <time>2016-04-25T14:41:44Z</time>
      </trkpt>
      <trkpt lat="41.57492" lon="9.09144">
        <ele>875.9</ele>
        <time>2016-04-25T14:42:00Z</time>
      </trkpt>
      <trkpt lat="41.57493" lon="9.09153">
        <ele>873.5</ele>
        <time>2016-04-25T14:42:11Z</time>
      </trkpt>
      <trkpt lat="41.57497" lon="9.09167">
        <ele>870.61</ele>
        <time>2016-04-25T14:42:25Z</time>
      </trkpt>
      <trkpt lat="41.57497" lon="9.09175">
        <ele>867.73</ele>
        <time>2016-04-25T14:42:40Z</time>
      </trkpt>
      <trkpt lat="41.57497" lon="9.09187">
        <ele>865.32</ele>
        <time>2016-04-25T14:42:53Z</time>
      </trkpt>
      <trkpt lat="41.57495" lon="9.09208">
        <ele>862.44</ele>
        <time>2016-04-25T14:43:06Z</time>
      </trkpt>
      <trkpt lat="41.57501" lon="9.09222">
        <ele>859.08</ele>
        <time>2016-04-25T14:43:23Z</time>
      </trkpt>
      <trkpt lat="41.57502" lon="9.09231">
        <ele>855.71</ele>
        <time>2016-04-25T14:43:42Z</time>
      </trkpt>
      <trkpt lat="41.57504" lon="9.09236">
        <ele>852.83</ele>
        <time>2016-04-25T14:43:58Z</time>
      </trkpt>
      <trkpt lat="41.57505" lon="9.09244">
        <ele>849.46</ele>
        <time>2016-04-25T14:44:14Z</time>
      </trkpt>
      <trkpt lat="41.57504" lon="9.09254">
        <ele>846.58</ele>
        <time>2016-04-25T14:44:28Z</time>
      </trkpt>
      <trkpt lat="41.57501" lon="9.09263">
        <ele>843.69</ele>
        <time>2016-04-25T14:44:42Z</time>
      </trkpt>
      <trkpt lat="41.575" lon="9.09273">
        <ele>840.81</ele>
        <time>2016-04-25T14:44:59Z</time>
      </trkpt>
      <trkpt lat="41.57501" lon="9.09283">
        <ele>839.37</ele>
        <time>2016-04-25T14:45:15Z</time>
      </trkpt>
      <trkpt lat="41.57506" lon="9.09295">
        <ele>840.81</ele>
        <time>2016-04-25T14:45:38Z</time>
      </trkpt>
      <trkpt lat="41.57515" lon="9.09308">
        <ele>840.81</ele>
        <time>2016-04-25T14:45:57Z</time>
      </trkpt>
      <trkpt lat="41.57524" lon="9.09312">
        <ele>842.25</ele>
        <time>2016-04-25T14:46:15Z</time>
      </trkpt>
      <trkpt lat="41.57527" lon="9.09323">
        <ele>842.25</ele>
        <time>2016-04-25T14:46:29Z</time>
      </trkpt>
      <trkpt lat="41.57527" lon="9.09328">
        <ele>840.81</ele>
        <time>2016-04-25T14:46:37Z</time>
      </trkpt>
      <trkpt lat="41.57528" lon="9.09337">
        <ele>838.89</ele>
        <time>2016-04-25T14:46:53Z</time>
      </trkpt>
      <trkpt lat="41.57526" lon="9.09355">
        <ele>837.93</ele>
        <time>2016-04-25T14:47:10Z</time>
      </trkpt>
      <trkpt lat="41.5752" lon="9.09362">
        <ele>837.45</ele>
        <time>2016-04-25T14:47:24Z</time>
      </trkpt>
      <trkpt lat="41.57515" lon="9.09369">
        <ele>835.04</ele>
        <time>2016-04-25T14:47:38Z</time>
      </trkpt>
      <trkpt lat="41.57509" lon="9.09386">
        <ele>833.12</ele>
        <time>2016-04-25T14:47:51Z</time>
      </trkpt>
      <trkpt lat="41.57505" lon="9.09399">
        <ele>831.2</ele>
        <time>2016-04-25T14:48:03Z</time>
      </trkpt>
      <trkpt lat="41.57508" lon="9.09412">
        <ele>830.72</ele>
        <time>2016-04-25T14:48:16Z</time>
      </trkpt>
      <trkpt lat="41.57516" lon="9.09422">
        <ele>830.24</ele>
        <time>2016-04-25T14:48:31Z</time>
      </trkpt>
      <trkpt lat="41.57517" lon="9.09427">
        <ele>827.35</ele>
        <time>2016-04-25T14:48:51Z</time>
      </trkpt>
      <trkpt lat="41.57515" lon="9.0945">
        <ele>828.31</ele>
        <time>2016-04-25T14:49:06Z</time>
      </trkpt>
      <trkpt lat="41.57515" lon="9.09468">
        <ele>829.27</ele>
        <time>2016-04-25T14:49:26Z</time>
      </trkpt>
      <trkpt lat="41.57515" lon="9.09481">
        <ele>827.83</ele>
        <time>2016-04-25T14:49:41Z</time>
      </trkpt>
      <trkpt lat="41.57511" lon="9.09502">
        <ele>825.43</ele>
        <time>2016-04-25T14:49:59Z</time>
      </trkpt>
      <trkpt lat="41.57507" lon="9.09527">
        <ele>824.95</ele>
        <time>2016-04-25T14:50:18Z</time>
      </trkpt>
      <trkpt lat="41.57506" lon="9.09543">
        <ele>824.95</ele>
        <time>2016-04-25T14:50:33Z</time>
      </trkpt>
      <trkpt lat="41.57502" lon="9.09564">
        <ele>823.99</ele>
        <time>2016-04-25T14:50:48Z</time>
      </trkpt>
      <trkpt lat="41.57499" lon="9.09584">
        <ele>823.51</ele>
        <time>2016-04-25T14:51:02Z</time>
      </trkpt>
      <trkpt lat="41.57496" lon="9.096">
        <ele>823.03</ele>
        <time>2016-04-25T14:51:16Z</time>
      </trkpt>
      <trkpt lat="41.57494" lon="9.09615">
        <ele>823.03</ele>
        <time>2016-04-25T14:51:30Z</time>
      </trkpt>
      <trkpt lat="41.57491" lon="9.0963">
        <ele>823.03</ele>
        <time>2016-04-25T14:51:41Z</time>
      </trkpt>
      <trkpt lat="41.5749" lon="9.09641">
        <ele>823.99</ele>
        <time>2016-04-25T14:51:49Z</time>
      </trkpt>
      <trkpt lat="41.57491" lon="9.09659">
        <ele>824.95</ele>
        <time>2016-04-25T14:52:02Z</time>
      </trkpt>
      <trkpt lat="41.57492" lon="9.09677">
        <ele>824.95</ele>
        <time>2016-04-25T14:52:16Z</time>
      </trkpt>
      <trkpt lat="41.57493" lon="9.09693">
        <ele>823.51</ele>
        <time>2016-04-25T14:52:27Z</time>
      </trkpt>
      <trkpt lat="41.57493" lon="9.09711">
        <ele>823.03</ele>
        <time>2016-04-25T14:52:39Z</time>
      </trkpt>
      <trkpt lat="41.57493" lon="9.09727">
        <ele>822.06</ele>
        <time>2016-04-25T14:52:54Z</time>
      </trkpt>
      <trkpt lat="41.57492" lon="9.09749">
        <ele>821.58</ele>
        <time>2016-04-25T14:53:07Z</time>
      </trkpt>
      <trkpt lat="41.57492" lon="9.09752">
        <ele>821.58</ele>
        <time>2016-04-25T14:53:09Z</time>
      </trkpt>
      <trkpt lat="41.57493" lon="9.09779">
        <ele>821.58</ele>
        <time>2016-04-25T14:53:23Z</time>
      </trkpt>
      <trkpt lat="41.57488" lon="9.09806">
        <ele>820.62</ele>
        <time>2016-04-25T14:53:41Z</time>
      </trkpt>
      <trkpt lat="41.57487" lon="9.09826">
        <ele>819.66</ele>
        <time>2016-04-25T14:53:55Z</time>
      </trkpt>
      <trkpt lat="41.57488" lon="9.09847">
        <ele>819.66</ele>
        <time>2016-04-25T14:54:07Z</time>
      </trkpt>
      <trkpt lat="41.57486" lon="9.09858">
        <ele>819.18</ele>
        <time>2016-04-25T14:54:19Z</time>
      </trkpt>
      <trkpt lat="41.57486" lon="9.09861">
        <ele>819.18</ele>
        <time>2016-04-25T14:54:21Z</time>
      </trkpt>
      <trkpt lat="41.57487" lon="9.09864">
        <ele>819.18</ele>
        <time>2016-04-25T14:54:23Z</time>
      </trkpt>
      <trkpt lat="41.57485" lon="9.09869">
        <ele>819.18</ele>
        <time>2016-04-25T14:54:27Z</time>
      </trkpt>
      <trkpt lat="41.57483" lon="9.09871">
        <ele>819.18</ele>
        <time>2016-04-25T14:54:29Z</time>
      </trkpt>
      <trkpt lat="41.57474" lon="9.09893">
        <ele>818.7</ele>
        <time>2016-04-25T14:54:45Z</time>
      </trkpt>
      <trkpt lat="41.57468" lon="9.09904">
        <ele>820.14</ele>
        <time>2016-04-25T14:54:58Z</time>
      </trkpt>
      <trkpt lat="41.57458" lon="9.09911">
        <ele>821.58</ele>
        <time>2016-04-25T14:55:11Z</time>
      </trkpt>
      <trkpt lat="41.57456" lon="9.09914">
        <ele>822.06</ele>
        <time>2016-04-25T14:55:14Z</time>
      </trkpt>
      <trkpt lat="41.57455" lon="9.09916">
        <ele>822.55</ele>
        <time>2016-04-25T14:55:16Z</time>
      </trkpt>
      <trkpt lat="41.57448" lon="9.09924">
        <ele>823.99</ele>
        <time>2016-04-25T14:55:28Z</time>
      </trkpt>
      <trkpt lat="41.57439" lon="9.09928">
        <ele>824.95</ele>
        <time>2016-04-25T14:55:41Z</time>
      </trkpt>
      <trkpt lat="41.57426" lon="9.09931">
        <ele>826.87</ele>
        <time>2016-04-25T14:55:55Z</time>
      </trkpt>
      <trkpt lat="41.57415" lon="9.09941">
        <ele>827.35</ele>
        <time>2016-04-25T14:56:09Z</time>
      </trkpt>
      <trkpt lat="41.57411" lon="9.09945">
        <ele>827.35</ele>
        <time>2016-04-25T14:56:13Z</time>
      </trkpt>
      <trkpt lat="41.57402" lon="9.09964">
        <ele>827.35</ele>
        <time>2016-04-25T14:56:28Z</time>
      </trkpt>
      <trkpt lat="41.57394" lon="9.09975">
        <ele>827.35</ele>
        <time>2016-04-25T14:56:42Z</time>
      </trkpt>
      <trkpt lat="41.57386" lon="9.09982">
        <ele>829.76</ele>
        <time>2016-04-25T14:56:53Z</time>
      </trkpt>
      <trkpt lat="41.57378" lon="9.09988">
        <ele>831.2</ele>
        <time>2016-04-25T14:57:04Z</time>
      </trkpt>
      <trkpt lat="41.57369" lon="9.09998">
        <ele>831.68</ele>
        <time>2016-04-25T14:57:16Z</time>
      </trkpt>
      <trkpt lat="41.57368" lon="9.09998">
        <ele>832.16</ele>
        <time>2016-04-25T14:57:32Z</time>
      </trkpt>
      <trkpt lat="41.57368" lon="9.09998">
        <ele>830.72</ele>
        <time>2016-04-25T14:57:34Z</time>
      </trkpt>
      <trkpt lat="41.57367" lon="9.1">
        <ele>830.72</ele>
        <time>2016-04-25T14:57:46Z</time>
      </trkpt>
      <trkpt lat="41.57365" lon="9.1">
        <ele>830.72</ele>
        <time>2016-04-25T14:57:48Z</time>
      </trkpt>
      <trkpt lat="41.57352" lon="9.10004">
        <ele>830.72</ele>
        <time>2016-04-25T14:58:01Z</time>
      </trkpt>
      <trkpt lat="41.57338" lon="9.10012">
        <ele>830.24</ele>
        <time>2016-04-25T14:58:15Z</time>
      </trkpt>
      <trkpt lat="41.57337" lon="9.10013">
        <ele>830.24</ele>
        <time>2016-04-25T14:58:16Z</time>
      </trkpt>
      <trkpt lat="41.57327" lon="9.10019">
        <ele>830.24</ele>
        <time>2016-04-25T14:58:30Z</time>
      </trkpt>
      <trkpt lat="41.57322" lon="9.1002">
        <ele>831.2</ele>
        <time>2016-04-25T14:58:37Z</time>
      </trkpt>
      <trkpt lat="41.57312" lon="9.10025">
        <ele>831.68</ele>
        <time>2016-04-25T14:58:47Z</time>
      </trkpt>
      <trkpt lat="41.573" lon="9.10033">
        <ele>832.64</ele>
        <time>2016-04-25T14:59:00Z</time>
      </trkpt>
      <trkpt lat="41.57288" lon="9.10037">
        <ele>833.12</ele>
        <time>2016-04-25T14:59:13Z</time>
      </trkpt>
      <trkpt lat="41.57276" lon="9.10038">
        <ele>834.56</ele>
        <time>2016-04-25T14:59:26Z</time>
      </trkpt>
      <trkpt lat="41.5727" lon="9.10039">
        <ele>834.56</ele>
        <time>2016-04-25T14:59:41Z</time>
      </trkpt>
      <trkpt lat="41.57269" lon="9.10039">
        <ele>834.56</ele>
        <time>2016-04-25T15:00:02Z</time>
      </trkpt>
      <trkpt lat="41.57263" lon="9.10036">
        <ele>835.04</ele>
        <time>2016-04-25T15:00:16Z</time>
      </trkpt>
      <trkpt lat="41.57255" lon="9.10032">
        <ele>836.48</ele>
        <time>2016-04-25T15:00:29Z</time>
      </trkpt>
      <trkpt lat="41.57246" lon="9.10031">
        <ele>838.89</ele>
        <time>2016-04-25T15:00:45Z</time>
      </trkpt>
      <trkpt lat="41.57239" lon="9.10028">
        <ele>840.81</ele>
        <time>2016-04-25T15:01:00Z</time>
      </trkpt>
      <trkpt lat="41.57235" lon="9.10023">
        <ele>843.21</ele>
        <time>2016-04-25T15:01:14Z</time>
      </trkpt>
      <trkpt lat="41.57228" lon="9.10025">
        <ele>844.18</ele>
        <time>2016-04-25T15:01:28Z</time>
      </trkpt>
      <trkpt lat="41.57221" lon="9.10027">
        <ele>846.1</ele>
        <time>2016-04-25T15:01:41Z</time>
      </trkpt>
      <trkpt lat="41.57215" lon="9.10029">
        <ele>848.5</ele>
        <time>2016-04-25T15:01:54Z</time>
      </trkpt>
      <trkpt lat="41.57211" lon="9.1003">
        <ele>849.94</ele>
        <time>2016-04-25T15:02:07Z</time>
      </trkpt>
      <trkpt lat="41.57206" lon="9.10029">
        <ele>852.83</ele>
        <time>2016-04-25T15:02:20Z</time>
      </trkpt>
      <trkpt lat="41.57202" lon="9.10019">
        <ele>854.27</ele>
        <time>2016-04-25T15:02:34Z</time>
      </trkpt>
      <trkpt lat="41.57197" lon="9.10015">
        <ele>856.67</ele>
        <time>2016-04-25T15:02:47Z</time>
      </trkpt>
      <trkpt lat="41.57194" lon="9.10008">
        <ele>858.59</ele>
        <time>2016-04-25T15:03:00Z</time>
      </trkpt>
      <trkpt lat="41.57189" lon="9.09999">
        <ele>860.04</ele>
        <time>2016-04-25T15:03:14Z</time>
      </trkpt>
      <trkpt lat="41.57188" lon="9.09997">
        <ele>860.04</ele>
        <time>2016-04-25T15:03:16Z</time>
      </trkpt>
      <trkpt lat="41.5718" lon="9.09989">
        <ele>861.96</ele>
        <time>2016-04-25T15:03:30Z</time>
      </trkpt>
      <trkpt lat="41.57174" lon="9.09984">
        <ele>863.4</ele>
        <time>2016-04-25T15:03:42Z</time>
      </trkpt>
      <trkpt lat="41.5717" lon="9.09976">
        <ele>865.32</ele>
        <time>2016-04-25T15:03:56Z</time>
      </trkpt>
      <trkpt lat="41.57165" lon="9.09968">
        <ele>867.25</ele>
        <time>2016-04-25T15:04:09Z</time>
      </trkpt>
      <trkpt lat="41.57158" lon="9.09961">
        <ele>868.69</ele>
        <time>2016-04-25T15:04:24Z</time>
      </trkpt>
      <trkpt lat="41.57151" lon="9.09955">
        <ele>869.65</ele>
        <time>2016-04-25T15:04:36Z</time>
      </trkpt>
      <trkpt lat="41.57142" lon="9.09961">
        <ele>872.05</ele>
        <time>2016-04-25T15:04:52Z</time>
      </trkpt>
      <trkpt lat="41.57138" lon="9.0997">
        <ele>873.98</ele>
        <time>2016-04-25T15:05:06Z</time>
      </trkpt>
      <trkpt lat="41.57138" lon="9.09981">
        <ele>874.94</ele>
        <time>2016-04-25T15:05:17Z</time>
      </trkpt>
      <trkpt lat="41.57139" lon="9.09988">
        <ele>874.94</ele>
        <time>2016-04-25T15:05:31Z</time>
      </trkpt>
      <trkpt lat="41.57139" lon="9.09988">
        <ele>874.94</ele>
        <time>2016-04-25T15:05:48Z</time>
      </trkpt>
      <trkpt lat="41.5714" lon="9.09989">
        <ele>874.94</ele>
        <time>2016-04-25T15:06:08Z</time>
      </trkpt>
      <trkpt lat="41.57136" lon="9.09993">
        <ele>874.94</ele>
        <time>2016-04-25T15:06:29Z</time>
      </trkpt>
      <trkpt lat="41.57132" lon="9.09996">
        <ele>876.38</ele>
        <time>2016-04-25T15:06:42Z</time>
      </trkpt>
      <trkpt lat="41.57128" lon="9.09988">
        <ele>878.3</ele>
        <time>2016-04-25T15:06:55Z</time>
      </trkpt>
      <trkpt lat="41.57121" lon="9.09984">
        <ele>880.71</ele>
        <time>2016-04-25T15:07:09Z</time>
      </trkpt>
      <trkpt lat="41.57117" lon="9.09986">
        <ele>882.63</ele>
        <time>2016-04-25T15:07:24Z</time>
      </trkpt>
      <trkpt lat="41.57114" lon="9.09989">
        <ele>883.11</ele>
        <time>2016-04-25T15:07:30Z</time>
      </trkpt>
      <trkpt lat="41.57108" lon="9.09991">
        <ele>885.51</ele>
        <time>2016-04-25T15:07:42Z</time>
      </trkpt>
      <trkpt lat="41.57099" lon="9.09989">
        <ele>887.43</ele>
        <time>2016-04-25T15:07:56Z</time>
      </trkpt>
      <trkpt lat="41.57089" lon="9.09992">
        <ele>889.36</ele>
        <time>2016-04-25T15:08:11Z</time>
      </trkpt>
      <trkpt lat="41.57085" lon="9.09991">
        <ele>891.76</ele>
        <time>2016-04-25T15:08:24Z</time>
      </trkpt>
      <trkpt lat="41.57083" lon="9.09996">
        <ele>891.76</ele>
        <time>2016-04-25T15:08:38Z</time>
      </trkpt>
      <trkpt lat="41.57081" lon="9.09999">
        <ele>892.24</ele>
        <time>2016-04-25T15:08:42Z</time>
      </trkpt>
      <trkpt lat="41.57074" lon="9.10007">
        <ele>893.68</ele>
        <time>2016-04-25T15:08:55Z</time>
      </trkpt>
      <trkpt lat="41.57067" lon="9.10011">
        <ele>895.12</ele>
        <time>2016-04-25T15:09:07Z</time>
      </trkpt>
      <trkpt lat="41.57062" lon="9.10016">
        <ele>895.61</ele>
        <time>2016-04-25T15:09:13Z</time>
      </trkpt>
      <trkpt lat="41.5705" lon="9.10024">
        <ele>896.09</ele>
        <time>2016-04-25T15:09:25Z</time>
      </trkpt>
      <trkpt lat="41.57037" lon="9.10029">
        <ele>896.09</ele>
        <time>2016-04-25T15:09:39Z</time>
      </trkpt>
      <trkpt lat="41.57025" lon="9.1003">
        <ele>894.64</ele>
        <time>2016-04-25T15:09:52Z</time>
      </trkpt>
      <trkpt lat="41.57008" lon="9.10033">
        <ele>893.68</ele>
        <time>2016-04-25T15:10:07Z</time>
      </trkpt>
      <trkpt lat="41.56993" lon="9.10035">
        <ele>892.24</ele>
        <time>2016-04-25T15:10:24Z</time>
      </trkpt>
      <trkpt lat="41.56976" lon="9.10038">
        <ele>890.32</ele>
        <time>2016-04-25T15:10:41Z</time>
      </trkpt>
      <trkpt lat="41.56956" lon="9.10048">
        <ele>889.36</ele>
        <time>2016-04-25T15:10:57Z</time>
      </trkpt>
      <trkpt lat="41.5694" lon="9.10059">
        <ele>889.36</ele>
        <time>2016-04-25T15:11:12Z</time>
      </trkpt>
      <trkpt lat="41.56917" lon="9.10064">
        <ele>888.4</ele>
        <time>2016-04-25T15:11:32Z</time>
      </trkpt>
      <trkpt lat="41.56896" lon="9.10068">
        <ele>887.91</ele>
        <time>2016-04-25T15:11:49Z</time>
      </trkpt>
      <trkpt lat="41.56881" lon="9.10072">
        <ele>887.91</ele>
        <time>2016-04-25T15:12:07Z</time>
      </trkpt>
      <trkpt lat="41.5686" lon="9.10072">
        <ele>887.91</ele>
        <time>2016-04-25T15:12:23Z</time>
      </trkpt>
      <trkpt lat="41.5684" lon="9.10071">
        <ele>890.32</ele>
        <time>2016-04-25T15:12:38Z</time>
      </trkpt>
      <trkpt lat="41.56826" lon="9.10067">
        <ele>890.8</ele>
        <time>2016-04-25T15:12:53Z</time>
      </trkpt>
      <trkpt lat="41.56814" lon="9.10066">
        <ele>890.8</ele>
        <time>2016-04-25T15:13:06Z</time>
      </trkpt>
      <trkpt lat="41.56793" lon="9.10059">
        <ele>891.28</ele>
        <time>2016-04-25T15:13:24Z</time>
      </trkpt>
      <trkpt lat="41.56777" lon="9.10059">
        <ele>892.24</ele>
        <time>2016-04-25T15:13:38Z</time>
      </trkpt>
      <trkpt lat="41.56766" lon="9.10057">
        <ele>892.72</ele>
        <time>2016-04-25T15:13:49Z</time>
      </trkpt>
      <trkpt lat="41.56756" lon="9.10053">
        <ele>894.64</ele>
        <time>2016-04-25T15:14:01Z</time>
      </trkpt>
      <trkpt lat="41.56743" lon="9.10052">
        <ele>895.61</ele>
        <time>2016-04-25T15:14:14Z</time>
      </trkpt>
      <trkpt lat="41.56731" lon="9.10048">
        <ele>895.61</ele>
        <time>2016-04-25T15:14:26Z</time>
      </trkpt>
      <trkpt lat="41.56719" lon="9.10044">
        <ele>895.61</ele>
        <time>2016-04-25T15:14:37Z</time>
      </trkpt>
      <trkpt lat="41.56705" lon="9.10039">
        <ele>895.61</ele>
        <time>2016-04-25T15:14:51Z</time>
      </trkpt>
      <trkpt lat="41.56689" lon="9.10033">
        <ele>895.61</ele>
        <time>2016-04-25T15:15:06Z</time>
      </trkpt>
      <trkpt lat="41.56674" lon="9.10028">
        <ele>895.61</ele>
        <time>2016-04-25T15:15:20Z</time>
      </trkpt>
      <trkpt lat="41.56661" lon="9.10025">
        <ele>895.61</ele>
        <time>2016-04-25T15:15:35Z</time>
      </trkpt>
      <trkpt lat="41.56646" lon="9.10022">
        <ele>893.68</ele>
        <time>2016-04-25T15:15:49Z</time>
      </trkpt>
      <trkpt lat="41.5663" lon="9.10024">
        <ele>892.72</ele>
        <time>2016-04-25T15:16:05Z</time>
      </trkpt>
      <trkpt lat="41.56614" lon="9.10018">
        <ele>891.28</ele>
        <time>2016-04-25T15:16:20Z</time>
      </trkpt>
      <trkpt lat="41.566" lon="9.10013">
        <ele>890.8</ele>
        <time>2016-04-25T15:16:34Z</time>
      </trkpt>
      <trkpt lat="41.56586" lon="9.10005">
        <ele>889.36</ele>
        <time>2016-04-25T15:16:49Z</time>
      </trkpt>
      <trkpt lat="41.56575" lon="9.09996">
        <ele>887.91</ele>
        <time>2016-04-25T15:17:04Z</time>
      </trkpt>
      <trkpt lat="41.56566" lon="9.09991">
        <ele>887.43</ele>
        <time>2016-04-25T15:17:18Z</time>
      </trkpt>
      <trkpt lat="41.56552" lon="9.09983">
        <ele>885.99</ele>
        <time>2016-04-25T15:17:32Z</time>
      </trkpt>
      <trkpt lat="41.56536" lon="9.0997">
        <ele>885.99</ele>
        <time>2016-04-25T15:17:48Z</time>
      </trkpt>
      <trkpt lat="41.5652" lon="9.09963">
        <ele>885.99</ele>
        <time>2016-04-25T15:18:01Z</time>
      </trkpt>
      <trkpt lat="41.56507" lon="9.09958">
        <ele>885.51</ele>
        <time>2016-04-25T15:18:14Z</time>
      </trkpt>
      <trkpt lat="41.56488" lon="9.09947">
        <ele>885.51</ele>
        <time>2016-04-25T15:18:36Z</time>
      </trkpt>
      <trkpt lat="41.56473" lon="9.09948">
        <ele>886.95</ele>
        <time>2016-04-25T15:18:44Z</time>
      </trkpt>
      <trkpt lat="41.56454" lon="9.09935">
        <ele>887.91</ele>
        <time>2016-04-25T15:19:03Z</time>
      </trkpt>
      <trkpt lat="41.56443" lon="9.09925">
        <ele>886.47</ele>
        <time>2016-04-25T15:19:20Z</time>
      </trkpt>
      <trkpt lat="41.56419" lon="9.09908">
        <ele>885.03</ele>
        <time>2016-04-25T15:19:40Z</time>
      </trkpt>
      <trkpt lat="41.56405" lon="9.09899">
        <ele>886.95</ele>
        <time>2016-04-25T15:19:59Z</time>
      </trkpt>
      <trkpt lat="41.56396" lon="9.0989">
        <ele>886.95</ele>
        <time>2016-04-25T15:20:14Z</time>
      </trkpt>
      <trkpt lat="41.56392" lon="9.09887">
        <ele>885.51</ele>
        <time>2016-04-25T15:20:17Z</time>
      </trkpt>
      <trkpt lat="41.56368" lon="9.09874">
        <ele>884.07</ele>
        <time>2016-04-25T15:20:36Z</time>
      </trkpt>
      <trkpt lat="41.5635" lon="9.09871">
        <ele>883.11</ele>
        <time>2016-04-25T15:20:52Z</time>
      </trkpt>
      <trkpt lat="41.56333" lon="9.09874">
        <ele>883.11</ele>
        <time>2016-04-25T15:21:06Z</time>
      </trkpt>
      <trkpt lat="41.56322" lon="9.09868">
        <ele>881.19</ele>
        <time>2016-04-25T15:21:23Z</time>
      </trkpt>
      <trkpt lat="41.56311" lon="9.09867">
        <ele>881.19</ele>
        <time>2016-04-25T15:21:37Z</time>
      </trkpt>
      <trkpt lat="41.56299" lon="9.09879">
        <ele>882.63</ele>
        <time>2016-04-25T15:21:51Z</time>
      </trkpt>
      <trkpt lat="41.56287" lon="9.09891">
        <ele>884.07</ele>
        <time>2016-04-25T15:22:04Z</time>
      </trkpt>
      <trkpt lat="41.56276" lon="9.09902">
        <ele>885.03</ele>
        <time>2016-04-25T15:22:16Z</time>
      </trkpt>
      <trkpt lat="41.5626" lon="9.09914">
        <ele>885.99</ele>
        <time>2016-04-25T15:22:31Z</time>
      </trkpt>
      <trkpt lat="41.56249" lon="9.0992">
        <ele>886.95</ele>
        <time>2016-04-25T15:22:44Z</time>
      </trkpt>
      <trkpt lat="41.56233" lon="9.09931">
        <ele>887.43</ele>
        <time>2016-04-25T15:23:01Z</time>
      </trkpt>
      <trkpt lat="41.56227" lon="9.09934">
        <ele>887.43</ele>
        <time>2016-04-25T15:23:09Z</time>
      </trkpt>
      <trkpt lat="41.56221" lon="9.09939">
        <ele>887.43</ele>
        <time>2016-04-25T15:23:14Z</time>
      </trkpt>
      <trkpt lat="41.56206" lon="9.09969">
        <ele>887.43</ele>
        <time>2016-04-25T15:23:31Z</time>
      </trkpt>
      <trkpt lat="41.56205" lon="9.09972">
        <ele>887.43</ele>
        <time>2016-04-25T15:23:33Z</time>
      </trkpt>
      <trkpt lat="41.562" lon="9.09983">
        <ele>887.43</ele>
        <time>2016-04-25T15:23:40Z</time>
      </trkpt>
      <trkpt lat="41.56198" lon="9.09987">
        <ele>887.43</ele>
        <time>2016-04-25T15:23:44Z</time>
      </trkpt>
      <trkpt lat="41.56188" lon="9.09996">
        <ele>887.43</ele>
        <time>2016-04-25T15:23:58Z</time>
      </trkpt>
      <trkpt lat="41.56189" lon="9.09998">
        <ele>887.43</ele>
        <time>2016-04-25T15:24:14Z</time>
      </trkpt>
      <trkpt lat="41.56192" lon="9.09998">
        <ele>887.43</ele>
        <time>2016-04-25T15:24:27Z</time>
      </trkpt>
      <trkpt lat="41.56191" lon="9.09993">
        <ele>887.43</ele>
        <time>2016-04-25T15:24:48Z</time>
      </trkpt>
      <trkpt lat="41.56191" lon="9.09994">
        <ele>888.88</ele>
        <time>2016-04-25T15:24:58Z</time>
      </trkpt>
      <trkpt lat="41.5619" lon="9.09995">
        <ele>887.43</ele>
        <time>2016-04-25T15:25:04Z</time>
      </trkpt>
    </trkseg>
  </trk>
</gpx>